[[{"header":{"parameterUnit":"m.s-1","parameterCategory":1,"la1":30.6,"la2":29.2853,"lo1":-89.7004,"lo2":-87.6739,"dy":0.0162,"dx":0.0183,"nx":112,"ny":82,"refTime":"2023-04-12T12:00:00:Z","depth":0,"parameterNumber":2,"parameterNumberName":"U-component_of_WINDS"},"data":[0.0,0.0,0.0,0.0,0.0,0.0,0.0,0.0,0.0,0.0,0.0,0.0,0.0,0.0,0.0,0.0,0.0,0.0,0.0,0.0,0.0,0.0,0.0,0.0,0.0,0.0,0.0,0.0,0.0,0.0,0.0,0.0,0.0,0.0,0.0,0.0,0.0,0.0,0.0,0.0,0.0,0.0,0.0,0.0,0.0,0.0,0.0,0.0,0.0,0.0,0.0,0.0,0.0,0.0,0.0,0.0,0.0,0.0,0.0,0.0,0.0,0.0,0.0,0.0,0.0,0.0,0.0,0.0,0.0,0.0,0.0,0.0,0.0,0.0,0.0,0.0,0.0,0.0,0.0,0.0,0.0,0.0,0.0,0.0,0.0,0.0,0.0,0.0,0.0,0.0,-2.1689,-2.4083,-2.4821,-2.5747,-2.7178,-2.516,-2.3891,-2.4089,0.0,0.0,0.0,0.0,0.0,0.0,0.0,0.0,0.0,0.0,0.0,0.0,0.0,0.0,0.0,0.0,0.0,0.0,0.0,0.0,0.0,0.0,0.0,0.0,0.0,0.0,0.0,0.0,0.0,0.0,0.0,0.0,0.0,0.0,0.0,0.0,0.0,0.0,0.0,0.0,0.0,0.0,0.0,0.0,0.0,0.0,0.0,0.0,0.0,0.0,0.0,0.0,0.0,0.0,0.0,0.0,0.0,0.0,0.0,0.0,0.0,0.0,0.0,0.0,0.0,0.0,0.0,0.0,0.0,0.0,0.0,0.0,0.0,0.0,0.0,0.0,0.0,0.0,0.0,0.0,0.0,0.0,0.0,0.0,0.0,0.0,0.0,0.0,0.0,0.0,0.0,0.0,0.0,0.0,0.0,0.0,0.0,0.0,0.0,0.0,0.0,0.0,0.0,0.0,-2.2694,-2.5483,-2.5868,-2.6299,-2.7213,-2.516,-2.3891,-2.4089,0.0,0.0,0.0,0.0,0.0,0.0,0.0,0.0,0.0,0.0,0.0,0.0,0.0,0.0,0.0,0.0,0.0,0.0,0.0,0.0,0.0,0.0,0.0,0.0,0.0,0.0,0.0,0.0,0.0,0.0,0.0,0.0,0.0,0.0,0.0,0.0,0.0,0.0,0.0,0.0,0.0,0.0,0.0,0.0,0.0,0.0,0.0,0.0,0.0,0.0,0.0,0.0,0.0,0.0,0.0,0.0,0.0,0.0,0.0,0.0,0.0,0.0,0.0,0.0,0.0,0.0,0.0,0.0,0.0,0.0,0.0,0.0,0.0,0.0,0.0,0.0,0.0,0.0,0.0,0.0,0.0,0.0,0.0,0.0,0.0,0.0,0.0,0.0,0.0,0.0,0.0,0.0,0.0,0.0,0.0,0.0,0.0,0.0,0.0,0.0,0.0,0.0,0.0,-2.2705,-2.4122,-2.5382,-2.5505,-2.5816,-2.6575,-2.4525,-2.3456,-2.4072,-2.3689,0.0,0.0,0.0,0.0,0.0,0.0,0.0,0.0,0.0,0.0,0.0,0.0,0.0,0.0,0.0,0.0,0.0,0.0,0.0,0.0,0.0,0.0,0.0,0.0,0.0,0.0,0.0,0.0,0.0,0.0,0.0,0.0,0.0,0.0,0.0,0.0,0.0,0.0,0.0,0.0,0.0,0.0,0.0,0.0,0.0,0.0,0.0,0.0,0.0,0.0,0.0,0.0,0.0,0.0,0.0,0.0,0.0,0.0,0.0,0.0,0.0,0.0,0.0,0.0,0.0,0.0,0.0,0.0,0.0,0.0,0.0,0.0,0.0,0.0,0.0,0.0,0.0,0.0,0.0,0.0,0.0,0.0,0.0,0.0,0.0,0.0,0.0,0.0,0.0,0.0,0.0,0.0,0.0,0.0,0.0,0.0,0.0,0.0,0.0,0.0,0.0,0.0,-2.3906,-2.4635,-2.4712,-2.4885,-2.516,-2.5525,-2.3957,-2.3214,-2.3776,-2.3237,0.0,0.0,0.0,0.0,0.0,0.0,0.0,0.0,0.0,0.0,0.0,0.0,0.0,0.0,0.0,0.0,0.0,0.0,0.0,0.0,0.0,0.0,0.0,0.0,0.0,0.0,0.0,0.0,0.0,0.0,0.0,0.0,0.0,0.0,0.0,0.0,0.0,0.0,0.0,0.0,0.0,0.0,0.0,0.0,0.0,0.0,0.0,0.0,0.0,0.0,0.0,0.0,0.0,0.0,0.0,0.0,0.0,0.0,0.0,0.0,0.0,0.0,0.0,0.0,0.0,0.0,0.0,0.0,0.0,0.0,0.0,0.0,0.0,0.0,0.0,0.0,0.0,0.0,0.0,0.0,0.0,0.0,0.0,0.0,0.0,0.0,0.0,0.0,0.0,0.0,0.0,0.0,0.0,0.0,0.0,0.0,0.0,0.0,0.0,0.0,0.0,0.0,-2.2894,-2.3143,-2.3819,-2.4543,-2.4729,-2.4026,-2.3819,-2.3511,-2.3015,-2.2924,0.0,0.0,0.0,0.0,0.0,0.0,0.0,0.0,0.0,0.0,0.0,0.0,0.0,0.0,0.0,0.0,0.0,0.0,0.0,0.0,0.0,0.0,0.0,0.0,0.0,0.0,0.0,0.0,0.0,0.0,0.0,0.0,0.0,0.0,0.0,0.0,0.0,0.0,0.0,0.0,0.0,0.0,0.0,0.0,0.0,0.0,0.0,0.0,0.0,0.0,0.0,0.0,0.0,0.0,0.0,0.0,0.0,0.0,0.0,0.0,0.0,0.0,0.0,0.0,0.0,0.0,0.0,0.0,0.0,0.0,0.0,0.0,0.0,0.0,0.0,0.0,0.0,0.0,0.0,0.0,0.0,0.0,0.0,0.0,0.0,0.0,0.0,0.0,0.0,0.0,0.0,0.0,0.0,0.0,0.0,0.0,0.0,0.0,0.0,0.0,0.0,0.0,-2.3188,-2.3532,0.0,-2.4077,-2.4129,-2.3836,-2.3388,-2.3045,-2.2911,0.0,0.0,0.0,0.0,0.0,0.0,0.0,0.0,0.0,0.0,0.0,0.0,0.0,0.0,0.0,0.0,0.0,0.0,0.0,0.0,0.0,0.0,0.0,0.0,0.0,0.0,0.0,0.0,0.0,0.0,0.0,0.0,0.0,0.0,0.0,0.0,0.0,0.0,0.0,0.0,0.0,0.0,0.0,0.0,0.0,0.0,0.0,0.0,0.0,0.0,0.0,0.0,0.0,0.0,0.0,0.0,0.0,0.0,0.0,0.0,0.0,0.0,0.0,0.0,0.0,0.0,0.0,0.0,0.0,0.0,0.0,0.0,0.0,0.0,0.0,0.0,0.0,0.0,0.0,0.0,0.0,0.0,0.0,0.0,0.0,0.0,0.0,0.0,0.0,0.0,0.0,0.0,0.0,0.0,0.0,0.0,0.0,0.0,0.0,0.0,0.0,0.0,-2.315,-2.3365,-2.3511,0.0,-2.3457,-2.3457,-2.3457,-2.2992,-2.2868,-2.3254,0.0,0.0,0.0,0.0,0.0,0.0,0.0,0.0,0.0,0.0,0.0,0.0,0.0,0.0,0.0,0.0,0.0,0.0,0.0,0.0,0.0,0.0,0.0,0.0,0.0,0.0,0.0,0.0,0.0,0.0,0.0,0.0,0.0,0.0,0.0,0.0,0.0,0.0,0.0,0.0,0.0,0.0,0.0,0.0,0.0,0.0,0.0,0.0,0.0,0.0,0.0,0.0,0.0,0.0,0.0,0.0,0.0,0.0,0.0,0.0,0.0,0.0,0.0,0.0,0.0,0.0,0.0,0.0,0.0,0.0,0.0,0.0,0.0,0.0,0.0,0.0,0.0,0.0,0.0,0.0,0.0,0.0,0.0,0.0,0.0,0.0,0.0,0.0,0.0,0.0,0.0,0.0,0.0,0.0,0.0,0.0,0.0,0.0,0.0,0.0,0.0,0.0,-2.3898,-2.3204,-2.2699,-2.2699,-2.2699,-2.2699,-2.2699,-2.2699,-2.3106,0.0,0.0,0.0,0.0,0.0,0.0,0.0,0.0,0.0,0.0,0.0,0.0,0.0,0.0,0.0,0.0,0.0,0.0,0.0,0.0,0.0,0.0,0.0,0.0,0.0,0.0,0.0,0.0,0.0,0.0,0.0,0.0,0.0,0.0,0.0,0.0,0.0,0.0,0.0,0.0,0.0,0.0,0.0,0.0,0.0,0.0,0.0,0.0,0.0,0.0,0.0,0.0,0.0,0.0,0.0,0.0,0.0,0.0,0.0,0.0,0.0,0.0,0.0,0.0,0.0,0.0,0.0,0.0,0.0,0.0,0.0,0.0,0.0,0.0,0.0,0.0,0.0,0.0,0.0,0.0,0.0,0.0,0.0,0.0,0.0,0.0,0.0,0.0,0.0,0.0,0.0,0.0,0.0,0.0,0.0,0.0,0.0,0.0,0.0,0.0,0.0,0.0,0.0,-2.3829,-2.3177,-2.2699,-2.2699,-2.2699,-2.2699,-2.2699,-2.2699,-2.3049,-2.3904,0.0,0.0,0.0,0.0,0.0,0.0,0.0,0.0,0.0,0.0,0.0,0.0,0.0,0.0,0.0,0.0,0.0,0.0,0.0,0.0,0.0,0.0,0.0,0.0,0.0,0.0,0.0,0.0,0.0,0.0,0.0,0.0,0.0,0.0,0.0,0.0,0.0,0.0,0.0,0.0,0.0,0.0,0.0,0.0,0.0,0.0,0.0,0.0,0.0,0.0,0.0,0.0,0.0,0.0,0.0,0.0,0.0,0.0,0.0,0.0,0.0,0.0,0.0,0.0,0.0,0.0,0.0,0.0,0.0,0.0,0.0,0.0,0.0,0.0,0.0,0.0,0.0,0.0,0.0,0.0,0.0,0.0,0.0,0.0,0.0,0.0,0.0,0.0,0.0,0.0,0.0,0.0,0.0,0.0,0.0,0.0,0.0,0.0,0.0,0.0,0.0,0.0,-2.4284,-2.3353,-2.2699,-2.2699,-2.2699,-2.2699,-2.2699,-2.2699,-2.3049,-2.389,0.0,0.0,0.0,0.0,0.0,0.0,0.0,0.0,0.0,0.0,0.0,0.0,0.0,0.0,0.0,0.0,0.0,0.0,0.0,0.0,0.0,0.0,0.0,0.0,0.0,0.0,0.0,0.0,0.0,0.0,0.0,0.0,0.0,0.0,0.0,0.0,0.0,0.0,0.0,0.0,0.0,0.0,0.0,0.0,0.0,0.0,0.0,0.0,0.0,0.0,0.0,0.0,0.0,0.0,0.0,0.0,0.0,0.0,0.0,0.0,0.0,0.0,0.0,0.0,0.0,0.0,0.0,0.0,0.0,0.0,0.0,0.0,0.0,0.0,0.0,0.0,0.0,0.0,0.0,0.0,0.0,0.0,0.0,0.0,0.0,0.0,0.0,0.0,0.0,0.0,0.0,0.0,0.0,0.0,0.0,0.0,0.0,0.0,0.0,0.0,0.0,0.0,-2.5005,-2.3646,-2.2699,-2.2699,-2.2699,-2.2699,-2.2699,-2.2699,-2.3066,-2.3921,0.0,0.0,0.0,0.0,0.0,0.0,0.0,0.0,0.0,0.0,0.0,0.0,0.0,0.0,0.0,0.0,0.0,0.0,0.0,0.0,0.0,0.0,0.0,0.0,0.0,0.0,0.0,0.0,0.0,0.0,0.0,0.0,0.0,0.0,0.0,0.0,0.0,0.0,0.0,0.0,0.0,0.0,0.0,0.0,0.0,0.0,0.0,0.0,0.0,0.0,0.0,0.0,0.0,0.0,0.0,0.0,0.0,0.0,0.0,0.0,-2.4972,0.0,0.0,0.0,0.0,0.0,0.0,0.0,0.0,0.0,0.0,0.0,0.0,0.0,0.0,0.0,0.0,0.0,0.0,0.0,0.0,0.0,0.0,0.0,0.0,0.0,0.0,0.0,0.0,0.0,0.0,0.0,0.0,0.0,0.0,0.0,0.0,0.0,0.0,0.0,0.0,0.0,-2.5005,-2.3646,-2.2699,-2.2699,-2.2699,-2.2699,-2.2699,-2.2699,-2.3039,-2.3795,-2.3829,0.0,0.0,0.0,0.0,0.0,0.0,0.0,0.0,0.0,0.0,0.0,0.0,0.0,0.0,0.0,0.0,0.0,0.0,0.0,0.0,0.0,0.0,0.0,0.0,0.0,0.0,0.0,0.0,0.0,0.0,0.0,0.0,0.0,0.0,0.0,0.0,0.0,0.0,0.0,0.0,0.0,0.0,0.0,0.0,0.0,0.0,0.0,0.0,0.0,0.0,0.0,0.0,0.0,0.0,0.0,0.0,0.0,0.0,0.0,0.0,-2.6162,0.0,0.0,0.0,0.0,0.0,0.0,0.0,0.0,0.0,0.0,0.0,0.0,0.0,0.0,0.0,0.0,0.0,0.0,0.0,0.0,0.0,0.0,0.0,0.0,0.0,0.0,0.0,0.0,0.0,0.0,0.0,0.0,0.0,0.0,0.0,0.0,0.0,0.0,0.0,0.0,-2.6057,-2.4422,-2.3233,-2.3233,-2.2905,-2.2699,-2.2699,-2.2699,-2.2854,-2.325,-2.3612,0.0,0.0,0.0,0.0,0.0,0.0,0.0,0.0,0.0,0.0,0.0,0.0,0.0,0.0,0.0,0.0,0.0,0.0,0.0,0.0,0.0,0.0,0.0,0.0,0.0,0.0,0.0,0.0,0.0,0.0,0.0,0.0,0.0,0.0,0.0,0.0,0.0,0.0,0.0,0.0,0.0,0.0,0.0,0.0,0.0,0.0,0.0,0.0,0.0,0.0,0.0,0.0,0.0,-3.0765,-3.1437,-3.2161,-3.2161,-3.2161,-3.2023,-2.9403,-2.7959,-2.745,0.0,0.0,0.0,0.0,0.0,0.0,0.0,0.0,0.0,0.0,0.0,0.0,0.0,0.0,0.0,0.0,0.0,0.0,0.0,0.0,0.0,0.0,0.0,0.0,0.0,-2.7726,-2.7694,0.0,0.0,0.0,0.0,0.0,0.0,0.0,0.0,0.0,0.0,0.0,0.0,-2.7023,-2.5298,-2.4008,-2.4008,-2.3457,-2.3043,-2.2905,-2.2888,-2.2836,-2.2699,-2.3267,-2.3378,0.0,0.0,0.0,0.0,0.0,0.0,0.0,0.0,0.0,0.0,0.0,0.0,0.0,0.0,0.0,0.0,0.0,0.0,0.0,0.0,0.0,0.0,0.0,0.0,0.0,0.0,0.0,0.0,0.0,0.0,0.0,0.0,-2.5877,-2.5688,0.0,0.0,0.0,0.0,0.0,0.0,0.0,0.0,0.0,0.0,0.0,0.0,0.0,-2.9437,-3.0231,-3.0972,-3.1714,-3.2455,-3.2502,-3.2911,-3.3616,-3.3616,-3.3616,-3.3564,-3.259,0.0,-2.9127,-2.8507,0.0,0.0,0.0,0.0,0.0,0.0,0.0,0.0,0.0,0.0,0.0,0.0,0.0,0.0,0.0,0.0,0.0,0.0,0.0,0.0,0.0,0.0,-2.8574,-2.9109,-2.9213,-2.9213,0.0,-2.8212,-2.7329,-2.7329,-2.7329,0.0,0.0,0.0,0.0,0.0,0.0,0.0,-2.6318,-2.5422,-2.485,-2.485,-2.4747,-2.4405,-2.3715,-2.3646,-2.3388,-2.2733,-2.2785,-2.3095,-2.3615,-2.4494,0.0,0.0,0.0,0.0,0.0,0.0,0.0,0.0,0.0,0.0,0.0,0.0,0.0,0.0,0.0,0.0,0.0,0.0,0.0,0.0,0.0,0.0,0.0,0.0,0.0,0.0,0.0,0.0,0.0,-2.6633,-2.7243,-2.7117,-2.74,-2.7613,0.0,0.0,0.0,0.0,0.0,0.0,0.0,0.0,0.0,-3.1045,-3.1301,-3.18,-3.2612,-3.3335,-3.4076,-3.4818,-3.5246,-3.5828,-3.6551,-3.6551,-3.6551,-3.65,-3.5801,-3.4421,-3.2541,-3.0524,-2.942,-2.8989,0.0,0.0,0.0,0.0,-2.9955,-3.0317,-3.042,-3.0455,0.0,0.0,0.0,0.0,0.0,0.0,0.0,0.0,0.0,0.0,0.0,0.0,0.0,-3.0835,-3.0782,-3.0679,-3.0265,-2.9661,-2.8937,0.0,-2.792,-2.7885,-2.7799,0.0,0.0,0.0,0.0,-2.7316,-2.7385,-2.6335,-2.5626,-2.5626,-2.5247,-2.4867,-2.4491,-2.4474,-2.4322,-2.3966,-2.3935,-2.403,-2.424,-2.499,-2.5567,0.0,0.0,0.0,0.0,0.0,0.0,0.0,0.0,0.0,0.0,0.0,0.0,0.0,0.0,0.0,0.0,0.0,0.0,0.0,0.0,0.0,0.0,0.0,0.0,0.0,0.0,0.0,0.0,-2.7705,-2.8588,-2.8182,-2.9009,-2.9301,0.0,0.0,0.0,0.0,0.0,0.0,-3.0872,-3.1219,-3.2083,-3.3586,-3.3926,-3.4352,-3.4976,-3.5887,-3.6628,-3.718,-3.7996,-3.8772,-3.9457,-3.9457,-3.9457,-3.9428,-3.8456,-3.7404,-3.6094,-3.2886,-3.1093,-3.0317,-2.9765,-2.9679,-2.9989,-3.1163,-3.1903,-3.2472,-3.3024,-3.3214,-3.2938,-3.1231,0.0,-3.0437,-2.9127,0.0,0.0,0.0,0.0,-3.2204,-3.2412,-3.274,-3.2948,-3.2491,-3.2386,-3.2231,-3.1679,-3.1403,-3.0748,0.0,-2.8678,-2.8506,-2.7954,0.0,0.0,0.0,0.0,-2.7713,-2.8075,-2.7126,-2.6419,-2.6419,-2.5919,-2.5505,-2.5298,-2.5281,-2.5183,-2.495,-2.4918,-2.4859,-2.4677,-2.5392,-2.5816,-2.5913,0.0,0.0,0.0,0.0,0.0,0.0,0.0,0.0,0.0,0.0,0.0,0.0,0.0,0.0,0.0,0.0,0.0,0.0,0.0,0.0,0.0,0.0,0.0,0.0,0.0,0.0,0.0,0.0,0.0,-2.7936,-2.9495,0.0,0.0,0.0,0.0,-3.1742,-3.1811,-3.247,-3.3902,-3.3365,-3.3638,-3.5062,-3.6512,-3.7288,-3.734,-3.875,-3.9491,-3.9526,-4.0359,-4.1119,-4.1843,-4.1843,-4.1843,-4.1733,-4.0233,-3.9543,-3.9181,-3.5456,-3.3438,-3.2731,-3.2697,-3.3128,-3.382,-3.3906,-3.3958,-3.3992,-3.4027,-3.4044,-3.4027,-3.3923,-3.3872,-3.3716,-3.2869,-3.3179,0.0,0.0,-3.3423,-3.3024,-3.3803,-3.3457,-3.3076,-3.382,-3.3992,-3.3975,-3.3941,-3.3317,-3.2127,0.0,-2.9455,-2.9437,-2.9403,0.0,-2.9161,-2.8506,-2.8368,-2.8109,-2.7437,-2.7297,-2.723,-2.723,-2.7195,-2.6868,-2.6109,-2.6042,-2.5732,-2.504,-2.4991,-2.4962,-2.4888,-2.5592,-2.5958,-2.5898,-2.6568,0.0,0.0,0.0,0.0,0.0,0.0,0.0,0.0,0.0,0.0,0.0,0.0,0.0,0.0,0.0,0.0,0.0,0.0,0.0,0.0,0.0,0.0,0.0,0.0,0.0,0.0,0.0,0.0,-3.1179,-3.2894,0.0,-3.2511,-3.2767,-3.3126,-3.3403,-3.3813,-3.4725,-3.6243,-3.6515,-3.7551,-3.9514,-4.0118,-4.0411,-4.0411,-4.0905,-4.1164,-4.1164,-4.1481,-4.2033,-4.2775,-4.2775,-4.2775,-4.2741,-4.2189,-4.1395,-4.0377,-3.9031,-3.6874,-3.4369,-3.4369,-3.4266,-3.4217,-3.5163,-3.5835,-3.6374,-3.6839,-3.7012,-3.6818,-3.5835,-3.4869,-3.4148,-3.4318,-3.4576,-3.4904,-3.537,-3.568,-3.5801,-3.5576,-3.568,-3.5801,-3.5559,-3.5508,-3.5387,-3.4904,-3.4576,-3.3852,-3.2041,-3.092,-3.011,-2.9592,-2.9506,-2.942,-2.9161,-2.911,-2.9006,-2.8747,-2.8299,-2.8006,-2.8006,-2.7575,-2.7178,-2.6902,-2.6868,-2.6732,-2.636,-2.636,-2.6313,-2.6236,-2.6462,-2.6582,-2.6615,-2.6706,-2.7063,0.0,0.0,0.0,0.0,0.0,0.0,0.0,0.0,0.0,0.0,0.0,0.0,0.0,0.0,0.0,0.0,0.0,0.0,0.0,0.0,0.0,0.0,0.0,0.0,0.0,0.0,-3.4411,-3.44,-3.6239,-3.7054,-3.5902,-3.5951,-3.6177,-3.6437,-3.6878,-3.7806,-3.9341,-3.9635,-4.0543,-4.2361,-4.2654,-4.2672,-4.2413,-4.2654,-4.2654,-4.2413,-4.2672,-4.3069,-4.3569,-4.3569,-4.3569,-4.3552,-4.331,-4.2465,-4.1274,-4.1274,-3.9457,-3.668,-3.6439,-3.6063,-3.5787,-3.6991,-3.7784,-3.8358,-3.9094,-3.9198,-3.8784,-3.7784,-3.6611,-3.5718,-3.6197,-3.6335,-3.649,-3.7232,-3.7646,-3.7823,-3.7508,-3.7646,-3.7754,-3.7198,-3.7077,-3.687,-3.6149,-3.5749,-3.5197,-3.3921,-3.2472,-3.111,-3.0075,-2.9903,-2.9903,-2.9903,-2.9679,-2.961,-2.9868,-2.9248,-2.8765,-2.8765,-2.8109,-2.7661,-2.7661,-2.7404,-2.7217,-2.7168,-2.7135,-2.7086,-2.7039,-2.7197,-2.7317,-2.7333,-2.7148,-2.7233,-2.7555,0.0,0.0,0.0,0.0,0.0,0.0,0.0,0.0,0.0,0.0,0.0,0.0,0.0,0.0,0.0,0.0,0.0,0.0,0.0,0.0,0.0,0.0,0.0,-3.252,-3.5069,-3.7018,-3.7255,-3.927,-4.007,-3.8636,-3.9282,-4.0152,-4.0935,-4.0981,-4.1636,-4.3155,-4.2499,-4.2447,-4.3241,-4.3966,-4.3983,-4.3241,-4.3949,-4.3931,-4.3241,-4.3966,-4.4311,-4.4328,-4.4328,-4.4328,-4.4294,-4.3586,-4.2792,-4.205,-4.205,-4.1136,-3.9664,-3.8939,-3.8646,-3.8715,-3.9457,-3.9733,-3.9836,-4.0636,-4.0394,-3.9733,-3.9733,-3.925,-3.8663,-3.8663,-3.8663,-3.8819,-3.9526,-3.9215,-3.8819,-3.9508,-3.9163,-3.8629,-3.8617,-3.8594,-3.841,-3.7668,-3.6887,-3.6111,-3.5335,-3.399,-3.2507,-3.1007,-3.0765,-3.0766,-3.0748,-3.0075,0.0,-3.0627,-3.0024,-2.9558,-2.9575,-2.892,-2.8472,-2.8472,-2.7666,-2.7237,-2.7368,-2.7235,-2.7153,-2.717,-2.7775,-2.8049,-2.7964,-2.7876,-2.7503,-2.6776,0.0,0.0,0.0,0.0,0.0,0.0,0.0,0.0,0.0,0.0,0.0,0.0,0.0,0.0,0.0,0.0,0.0,0.0,0.0,0.0,0.0,-3.3798,-3.5233,-3.5158,-3.7909,-4.0242,-4.1125,-4.2524,-4.3248,-4.2902,-4.2474,-4.2479,-4.3034,-4.2753,-4.2982,-4.3949,-4.3793,-4.4009,-4.4785,-4.501,-4.4734,-4.4,-4.4207,-4.4207,-4.4,-4.4207,-4.4578,-4.5113,-4.5113,-4.5113,-4.5096,-4.4889,-4.4061,-4.2879,-4.2879,-4.1964,-4.0549,-4.0359,-3.9928,-3.9491,-4.0267,-4.0584,-4.0601,-4.0825,-4.0774,-4.0584,-4.0584,-4.0446,-4.0273,-4.0273,-4.0273,-4.0308,-4.0515,-4.0429,-4.0187,-3.9802,-3.9543,-3.925,-3.8715,-3.8594,-3.841,-3.7668,-3.734,-3.6788,-3.5456,-3.4852,-3.4076,-3.2559,-3.23,-3.211,-3.1576,-3.13,0.0,-3.1472,-3.0834,-3.0575,-3.111,-3.0506,-3.0058,-3.0058,-2.9317,-2.8852,-2.8885,-2.8369,-2.8283,-2.8817,-2.8357,-2.7811,-2.7215,-2.8218,-2.8641,0.0,0.0,0.0,0.0,0.0,0.0,0.0,0.0,0.0,0.0,0.0,0.0,0.0,0.0,0.0,0.0,0.0,0.0,0.0,0.0,0.0,0.0,-3.6156,-3.7885,-3.9522,-4.139,-4.3099,-4.4436,-4.5317,-4.5824,-4.5863,-4.5174,-4.4786,-4.4858,-4.4786,-4.4753,-4.476,-4.4965,-4.5199,-4.538,-4.5397,-4.5173,-4.4768,-4.4751,-4.4751,-4.4751,-4.4751,-4.4992,-4.5397,-4.5397,-4.5397,0.0,-4.5397,-4.4751,-4.3638,-4.3327,-4.2465,0.0,0.0,0.0,0.0,0.0,-4.0912,-4.0912,-4.0912,-4.0912,-4.0912,-4.0912,-4.0912,-4.0912,-4.0912,-4.0912,-4.0912,-4.0912,-4.0912,-4.0791,-4.0325,-4.0198,-4.0077,-3.9687,-3.9566,-3.9359,-3.8599,-3.8427,-3.7978,-3.6477,0.0,0.0,-3.4128,-3.3611,-3.3248,-3.2817,-3.2472,-3.2265,-3.2265,-3.161,-3.1317,-3.1748,-3.1127,-3.0714,-3.0714,-2.9954,0.0,0.0,0.0,-2.9145,-2.9885,-2.9402,0.0,0.0,0.0,-2.9389,-2.9065,0.0,0.0,0.0,-2.7381,-2.7066,0.0,0.0,0.0,0.0,0.0,0.0,0.0,0.0,0.0,0.0,0.0,0.0,0.0,0.0,0.0,0.0,-3.867,-4.0653,-4.4306,-4.5094,-4.5737,-4.7076,-4.7458,-4.7611,-4.7674,-4.7204,-4.6747,-4.6387,-4.679,-4.6578,-4.5554,0.0,0.0,0.0,0.0,-4.5397,-4.5397,-4.5397,-4.5397,-4.5397,-4.5397,-4.5397,-4.5397,-4.5397,-4.5397,-4.5397,-4.5397,-4.4992,-4.4242,-4.35,-4.2689,-4.1826,-4.117,-4.0912,-4.0912,-4.0912,-4.0912,-4.0912,-4.0912,0.0,0.0,-4.0912,-4.0912,-4.0912,-4.0912,-4.0912,-4.0912,-4.0912,-4.0912,-4.0912,-4.0912,-4.0912,-4.0912,-4.0912,-4.0912,-4.0687,-3.9871,-3.9629,-3.9163,-3.7771,-3.7426,-3.6943,-3.5559,-3.4717,-3.4199,-3.4113,-3.3421,-3.2904,-3.2904,-3.2265,-3.1834,-3.1921,0.0,0.0,-3.0938,-3.0161,-2.9696,-2.9765,-2.9696,-2.9918,-3.0484,-3.0569,-3.0462,-3.0125,-3.0175,-2.9866,-2.9183,-2.9183,-2.9165,-2.9146,-2.9555,-2.9168,0.0,0.0,0.0,0.0,0.0,0.0,0.0,0.0,0.0,0.0,0.0,0.0,0.0,0.0,0.0,-3.9108,-4.1735,-4.4048,-4.5461,-4.7388,-4.8508,-4.8122,-4.7786,-4.7754,-4.8132,-4.7417,-4.7004,-4.7313,-4.7644,-4.7335,-4.6122,-4.6758,-4.6609,-4.5441,-4.5397,-4.5397,-4.5397,-4.5397,-4.5397,-4.5397,0.0,0.0,-4.5397,-4.5397,-4.5397,-4.5397,-4.5397,-4.4992,-4.4242,-4.35,-4.2378,-4.1101,-4.0963,-4.0912,-4.0912,-4.0912,-4.0912,-4.0912,-4.0912,-4.0912,-4.0912,-4.0912,-4.0912,-4.0912,-4.0912,-4.0912,0.0,-4.0912,-4.0912,-4.0912,-4.0912,-4.0912,-4.0912,-4.0912,-4.0912,-4.0687,-3.9871,-3.9232,-3.8565,-3.7668,-3.6973,-3.6439,-3.6146,-3.5473,-3.4803,-3.4199,-3.3421,-3.2904,-3.2904,-3.2265,-3.2024,-3.2628,-3.2559,-3.2472,-3.2472,-3.1764,-3.1333,-3.1351,-3.1333,-3.1073,-3.0519,-3.1067,-3.0809,-2.9573,-3.0138,-3.0377,-3.0205,-3.0205,-3.0132,-2.9949,-2.9082,-2.8375,0.0,0.0,0.0,0.0,0.0,0.0,0.0,0.0,0.0,0.0,0.0,-3.561,-3.6837,0.0,-3.9785,-4.3068,-4.3881,-4.5094,-4.7957,-4.8691,-4.8948,-4.8948,-4.91,-4.9151,-4.8966,-4.8896,-4.868,-4.8224,-4.859,-4.8339,-4.721,-4.7363,-4.7092,-4.6186,-4.6144,-4.6144,-4.6144,-4.6144,-4.6144,-4.6144,-4.6144,-4.6144,-4.6144,-4.5912,-4.5803,-4.5778,-4.5528,-4.5173,-4.4768,-4.3655,-4.2292,-4.0912,-4.0912,-4.0912,-4.0912,-4.0912,-4.0912,-4.0912,-4.0912,-4.0912,-4.0912,-4.0912,-4.0912,-4.0912,-4.0912,-4.0912,-4.0912,-4.0912,-4.0912,-4.0912,-4.0912,-4.0912,-4.0912,-4.0912,-4.0912,-4.0791,-4.0394,-4.0014,-3.941,-3.8272,-3.7715,-3.7198,-3.6422,-3.599,-3.549,-3.4749,-3.399,-3.3352,-3.2955,-3.2265,-3.1938,-3.2317,-3.2352,-3.2352,-3.2352,-3.2007,-3.18,-3.18,-3.18,-3.1592,-3.1176,-3.1502,-3.1518,-3.1103,-3.1067,-3.1219,-3.1557,-3.118,-3.09,-3.0751,-3.0555,-2.9897,0.0,0.0,0.0,0.0,0.0,0.0,0.0,-3.468,-3.5373,-3.6181,-3.7595,-3.911,-4.0606,-4.1127,-4.263,-4.6635,-4.5938,-4.6177,-4.9811,-4.9444,-4.8985,-4.9537,-5.0306,-5.0472,-4.9684,-5.0178,-5.011,-4.9047,-4.9356,-4.9195,-4.8281,-4.7977,-4.7634,-4.7145,-4.698,-4.698,-4.7122,-4.698,-4.6908,-4.6908,-4.6908,-4.6908,-4.6886,-4.6507,-4.6357,-4.6308,-4.5778,-4.5451,-4.5209,-4.3784,-4.2378,-4.1101,-4.0963,-4.0912,-4.0912,-4.0912,-4.0912,-4.0912,-4.0912,-4.0912,-4.0912,-4.0912,-4.0912,-4.0912,-4.0912,-4.0912,-4.0912,-4.0912,-4.0935,-4.0935,-4.0935,-4.0942,-4.0942,-4.0935,-4.0935,-4.0935,-4.0912,-4.0791,-4.0308,-3.9043,-3.8703,-3.8198,-3.6956,-3.6628,-3.6284,-3.5525,-3.4803,-3.4044,-3.3231,-3.2472,-3.1955,-3.1817,-3.18,-3.18,-3.18,-3.18,-3.18,-3.18,-3.18,-3.18,-3.18,-3.18,-3.2056,-3.2599,-3.1962,-3.1907,-3.2427,-3.1865,-3.1481,-3.1349,-3.1995,-3.154,-3.0496,-3.036,-3.1251,-3.3283,-3.3918,-3.4829,0.0,-3.8488,-3.879,-3.9587,-4.1022,-4.2384,-4.3166,-4.5032,-4.6599,-4.7058,-4.8728,-4.9646,-4.871,-4.9701,-5.0288,-4.9665,-5.0306,-5.0472,-4.9684,-4.9684,-4.9682,-4.9513,-4.9572,-4.9336,-4.8743,-4.8692,-4.8446,-4.7972,-4.7265,-4.7229,-4.7972,-4.7247,-4.6908,-4.6908,-4.6908,-4.6908,-4.6908,-4.684,-4.6817,-4.6794,-4.6315,-4.5709,-4.4942,-4.3717,-4.2689,-4.1826,-4.117,-4.0912,-4.0912,-4.0912,-4.0912,-4.0912,-4.0912,-4.0912,-4.0912,-4.0912,-4.0912,-4.0912,-4.0912,-4.0912,-4.0912,-4.0912,-4.1,-4.107,-4.107,-4.1129,-4.1157,-4.1093,-4.107,-4.1047,-4.0935,-4.0359,-3.9767,-3.9612,-3.9043,-3.8565,-3.8353,-3.7806,-3.7116,-3.6301,-3.5542,-3.48,-3.4061,-3.3266,-3.2524,-3.1869,-3.18,-3.18,-3.18,-3.18,-3.18,-3.18,-3.18,-3.18,-3.18,-3.18,-3.1834,-3.1902,-3.1816,-3.1816,-3.1883,-3.1797,-3.167,-3.1479,-3.1564,-3.1188,-3.121,-3.2222,-3.388,-3.4132,-3.6017,-3.8284,-4.0141,-4.0921,-4.1627,-4.2934,-4.4464,-4.5655,-4.5973,-4.6723,-4.7776,-4.9195,-4.8989,-4.9077,-5.0288,-5.0251,-4.9996,-4.9647,-5.0306,-5.0472,-4.9684,-5.0455,-5.0784,-5.0325,-5.0288,-5.0391,-5.0647,-4.9768,-4.9175,-4.8989,-4.9095,-4.8859,-4.8203,-4.8387,-4.8224,-4.7713,-4.7713,-4.7713,-4.7713,-4.7421,-4.716,-4.6886,-4.6701,-4.6147,-4.5361,-4.4563,-4.3794,-4.3003,-4.1947,-4.155,-4.1498,-4.1067,-4.0912,-4.0912,-4.0912,-4.0912,-4.0912,-4.0912,-4.0912,-4.0912,-4.0912,-4.0912,-4.0912,-4.0912,-4.1,-4.1093,-4.1093,-4.1152,-4.1186,-4.1157,-4.1175,-4.1134,-4.1088,-4.0776,-4.0383,-3.9893,-3.9502,-3.9094,-3.8663,-3.7996,-3.7392,-3.7064,-3.5956,-3.4921,-3.4199,-3.3404,-3.2783,-3.2472,-3.2438,-3.2628,-3.3093,-3.3128,-3.3128,-3.3128,-3.3128,-3.2921,-3.2455,-3.2438,-3.2438,-3.2438,-3.2024,-3.2007,-3.2438,-3.2007,-3.1726,-3.1576,-3.1963,-3.1718,-3.2396,-3.3967,-3.5844,-3.5603,-3.8321,-4.12,-4.1794,-4.2909,-4.4153,-4.5379,-4.6704,-4.7635,-4.7686,-4.7846,-4.8532,-5.0138,-4.912,-4.8875,-5.1063,-5.0143,-4.9243,-4.9243,-4.9352,-4.9389,-4.9242,-5.051,-5.1096,-5.0508,-5.0472,-5.082,-5.1628,-5.0545,-5.0033,-5.0253,-5.06,-5.0325,-4.9334,-4.9719,-4.9499,-4.8655,-4.8655,-4.8526,-4.8287,-4.7955,-4.7609,-4.7288,-4.7138,-4.6753,-4.6175,-4.5491,-4.4899,-4.4339,-4.3214,-4.2783,-4.2702,-4.195,-4.1377,-4.0959,-4.0912,-4.0935,-4.0959,-4.0912,-4.0912,-4.0912,-4.0935,-4.0959,-4.0959,-4.0989,-4.1076,-4.1186,-4.1186,-4.1244,-4.13,-4.1255,-4.1272,-4.1255,-4.1209,-4.1157,-4.0949,-4.0377,-4.0181,-3.9917,-3.9387,-3.8444,-3.7806,-3.7806,-3.6473,-3.5232,-3.449,-3.3714,-3.3145,-3.2921,-3.3093,-3.3455,-3.4061,-3.4113,-3.4113,-3.4113,-3.4113,-3.3835,-3.3266,-3.3231,-3.3128,-3.2904,-3.2369,-3.2265,-3.2593,-3.2059,-3.1727,-3.1615,-3.2104,-3.1976,-3.4244,-3.5229,-3.6393,-3.8433,-4.0847,-4.2723,-4.276,-4.4636,-4.6401,-4.6438,-4.7125,-4.7667,-4.7617,-4.8771,-4.9492,-4.879,-4.98,-5.0475,-4.9856,-4.8933,-4.8343,-4.8343,-4.6985,-4.6654,0.0,-4.9132,-4.9665,-4.9647,-4.9647,-4.9996,-5.0784,-5.0784,-5.1114,-5.1885,-5.1187,-5.1151,-5.1867,-5.1132,-5.0362,-4.9555,-4.9555,-4.9114,-4.8306,-4.8287,-4.8267,-4.823,-4.7775,-4.7572,-4.7458,-4.6197,-4.5748,-4.5749,-4.5,-4.474,-4.4718,-4.3924,-4.2544,-4.1087,-4.0959,-4.1,-4.107,-4.0935,-4.0912,-4.0935,-4.1047,-4.1093,-4.1117,-4.1163,-4.1295,-4.1403,-4.1403,-4.1493,-4.156,-4.1426,-4.1403,-4.1363,-4.1232,-4.1209,-4.1192,-4.1174,-4.1094,-4.1059,-4.1041,-3.9669,-3.8582,-3.8582,-3.7249,-3.6008,-3.5249,-3.4527,-3.3749,-3.299,-3.3593,-3.4079,-3.4113,-3.4113,-3.4113,-3.4113,-3.4113,-3.4096,-3.4061,-3.4061,-3.3697,-3.2921,-3.2886,-3.2524,-3.1834,-3.18,-3.1727,-3.1598,-3.1615,-3.1576,-3.5209,-3.7758,-4.0183,-4.0645,-4.302,-4.5379,-4.5937,-4.6271,-4.6643,-4.7181,-4.6661,-4.6104,-4.609,-4.597,-4.6311,-4.7661,-4.7739,-4.8107,-4.9507,-4.8878,-4.8123,-4.7684,-4.7629,0.0,0.0,0.0,0.0,-5.0306,-5.0398,-5.0986,-5.2325,-5.1885,-5.172,-5.1977,-5.227,-5.2036,-5.129,-5.1012,-5.0776,-5.0597,-5.0062,-4.9343,-4.8495,-4.8495,-4.8495,-4.8495,-4.8345,-4.8251,-4.8213,-4.745,-4.7197,-4.7107,-4.6005,-4.5597,-4.5531,-4.4795,-4.3837,-4.2828,-4.1903,-4.1391,-4.1157,-4.1094,-4.1111,-4.1111,-4.1157,-4.1157,-4.1157,-4.1186,-4.1295,-4.1403,-4.1403,-4.1493,-4.1582,-4.1538,-4.1538,-4.1515,-4.1475,-4.1386,-4.134,-4.134,-4.1215,-4.1093,-4.1093,-4.0118,-3.8991,-3.803,-3.6559,-3.5473,-3.5232,-3.4562,-3.4162,-3.4404,-3.4663,-3.5025,-3.5508,-3.5559,-3.5559,-3.5559,-3.5559,-3.5335,-3.4835,-3.4818,-3.4214,-3.2938,-3.2904,-3.2541,-3.18,-3.18,-3.1781,-3.1727,-3.1635,-3.1596,-3.8058,-4.0585,-4.2762,-4.323,-4.5138,-4.6903,-4.6865,-4.6661,-4.6475,-4.6401,-4.5565,-4.4748,-4.4451,-4.3886,-4.399,-4.5562,-4.5466,-4.5935,-4.8145,-4.7923,-4.7592,-4.7703,-4.7961,-4.8016,0.0,0.0,0.0,-4.9829,-5.0472,-5.1261,-5.2307,-5.2399,-5.2438,-5.2461,-5.2975,-5.2778,-5.1831,-5.1831,-5.1594,-5.1099,-5.0268,-4.9437,-4.8605,-4.8605,-4.8605,-4.8605,-4.8605,-4.8605,-4.8569,-4.827,-4.8193,-4.8138,-4.7319,-4.7021,-4.6931,-4.6187,-4.5546,-4.4809,-4.311,-4.2161,-4.1696,-4.1674,-4.1578,-4.1445,-4.1468,-4.1373,-4.1277,-4.134,-4.1408,-4.1471,-4.1471,-4.1538,-4.1604,-4.1604,-4.1604,-4.1604,-4.1604,-4.1538,-4.1471,-4.1471,-4.129,-4.1146,-4.1146,-4.0349,-3.9198,-3.7719,-3.6667,-3.5821,-3.5266,-3.5007,-3.4956,-3.518,-3.5439,-3.5783,-3.6266,-3.6301,-3.6301,-3.6301,-3.6301,-3.6094,-3.5611,-3.5576,-3.499,-3.3749,-3.3455,-3.2955,-3.2179,-3.1921,-3.18,-3.18,-3.1709,-3.1671,-4.2434,-4.3542,-4.4158,-4.6097,-4.7175,-4.7343,-4.5783,-4.5932,-4.5951,-4.4336,-4.3909,-4.3593,-4.2831,-4.264,-4.2665,-4.2819,-4.3368,-4.4345,-4.6078,-4.6353,-4.6926,-4.8403,-4.7979,-4.7885,-4.8661,-4.8735,0.0,-4.8509,0.0,-5.0914,-5.1006,-5.2493,-5.3361,-5.3373,-5.3373,-5.3416,-5.3519,-5.3501,-5.2688,-5.1044,-5.0324,-4.951,-4.8605,-4.8605,-4.8605,-4.8605,-4.8605,-4.8605,-4.8605,-4.8605,-4.8678,-4.8804,-4.8804,-4.8839,-4.8816,-4.8036,-4.7494,-4.6819,-4.466,-4.3359,-4.2656,-4.2596,-4.2297,-4.1966,-4.2032,-4.1774,-4.1498,-4.1648,-4.1666,-4.1679,-4.1626,-4.1661,-4.1657,-4.1604,-4.1604,-4.1604,-4.1604,-4.1604,-4.1604,-4.1604,-4.1386,-4.1209,-4.1209,-4.036,-3.9215,-3.7823,-3.7564,-3.696,-3.5439,-3.587,-3.6025,-3.5318,-3.587,-3.6301,-3.6301,-3.6301,-3.6301,-3.6301,-3.6301,-3.6301,-3.6301,-3.6301,-3.5956,-3.5197,-3.4507,-3.3749,-3.2955,-3.2265,-3.1921,-3.1921,-3.1921,-3.1921,-4.3095,-4.5449,-4.7592,-4.768,-4.7995,-4.8135,-4.7534,-4.6106,-4.4803,-4.4259,-4.2719,-4.1409,-4.1204,-4.1153,-4.1706,-4.3426,-4.4253,-4.545,-4.7664,-4.8477,-4.8993,-4.9473,-4.9936,-5.0324,-5.0528,-5.0546,0.0,0.0,-5.1686,-5.2441,-5.3621,-5.4654,-5.4933,-5.4345,-5.4345,-5.4129,-5.3656,-5.3697,-5.2604,-5.036,-5.0805,-5.0249,-4.882,-4.882,-4.882,-4.882,-4.882,-4.882,-4.882,-4.882,-4.8838,-4.8874,-4.8874,-4.8891,-4.889,-4.8667,-4.8151,-4.7454,-4.6888,-4.5352,-4.3642,-4.3622,-4.3146,-4.2562,-4.2581,-4.2523,-4.2462,-4.2482,-4.2726,-4.2793,-4.2189,-4.2273,-4.2342,-4.1745,-4.1604,-4.1604,-4.1604,-4.1604,-4.1604,-4.1604,-4.1386,-4.1186,-4.1146,-4.0349,-3.956,-3.9198,-3.8203,-3.715,-3.6146,-3.618,-3.6232,-3.6042,-3.6197,-3.6301,-3.6301,-3.6301,-3.6301,-3.6301,-3.6301,-3.6301,-3.6301,-3.6301,-3.5956,-3.5197,-3.5007,-3.4542,-3.3783,-3.3613,-3.3527,-3.3527,-3.3527,-3.3527,-4.5438,-4.7403,-4.8879,-4.8385,-4.8399,-4.8151,-4.6855,-4.5199,-4.3598,-4.2398,-4.106,-3.9881,-3.9151,-3.9281,-4.0037,-4.1673,-4.2826,-4.4459,-4.7217,-4.8604,-4.964,-5.038,-5.1269,-5.1677,-5.1324,-5.1937,-5.2511,0.0,-5.2875,-5.337,-5.4626,-5.5145,-5.5203,-5.48,-5.4467,-5.4081,-5.3754,-5.3774,-5.2754,-5.0692,-5.1175,-5.0525,-4.8909,-4.8909,-4.8909,-4.8909,0.0,-4.8909,-4.8909,-4.8909,-4.8909,-4.8909,-4.8909,-4.8909,-4.8909,-4.8909,-4.8612,-4.824,-4.824,-4.7072,-4.5572,-4.5205,-4.4437,-4.3634,-4.3634,-4.325,-4.281,-4.281,-4.2963,-4.3035,-4.2588,-4.2619,-4.2682,-4.224,-4.2133,-4.2071,-4.1899,-4.1856,-4.1788,-4.156,-4.1386,-4.1249,-4.1152,-4.0672,-4.0205,-3.9836,-3.9036,-3.818,-3.7404,-3.6715,-3.6439,-3.6784,-3.6508,-3.6301,-3.6301,-3.6301,-3.6301,-3.6301,-3.6301,-3.6301,-3.6301,-3.6301,-3.6111,-3.568,-3.5352,-3.499,-3.4596,-3.4268,-3.4113,-3.4113,-3.4113,-3.4113,-4.8234,-4.911,-4.9114,-4.8675,-4.8434,-4.7644,-4.5218,-4.3781,-4.2316,-4.0002,-3.9364,-3.8788,-3.7437,-3.7784,-3.8651,-3.977,-4.1138,-4.3123,-4.621,-4.8116,-4.9691,-5.1046,-5.2122,-5.2494,-5.1788,-5.3088,-5.3961,-5.3961,-5.3898,-5.4225,-5.5038,-5.5075,-5.5003,-5.4937,-5.4141,-5.3735,-5.3813,-5.3813,-5.3051,-5.1565,-5.1454,-5.058,-4.9057,-4.8946,-4.8909,-4.8909,0.0,0.0,-4.8909,-4.8909,-4.8909,-4.8909,-4.8909,-4.8909,-4.8909,-4.8909,-4.8909,-4.8909,-4.8909,-4.8444,-4.7738,-4.6921,-4.5867,-4.4943,-4.4943,-4.4089,-4.3141,-4.3141,-4.3085,-4.3012,-4.2903,-4.292,-4.2936,-4.2828,-4.281,-4.2715,-4.2342,-4.2279,-4.2136,-4.1679,-4.1542,-4.1453,-4.1328,-4.1198,-4.0874,-4.0175,-3.9876,-3.9531,-3.8979,-3.756,-3.687,-3.7581,-3.6922,-3.6456,-3.6456,-3.6353,-3.6301,-3.6301,-3.6301,-3.6301,-3.6301,-3.6301,-3.6301,-3.6301,-3.5663,-3.5335,-3.5335,-3.4697,-3.4407,-3.4407,-3.4407,-3.4407,-4.8723,-4.9701,-5.0179,-4.9163,-4.8037,-4.6799,-4.5341,-4.2759,-4.0507,-3.9883,-3.8607,-3.7725,-3.815,-3.8799,-4.0163,-4.2903,-4.398,-4.5395,-4.8008,-4.9768,-5.0898,-5.1176,-5.2623,-5.3553,-5.3404,-5.424,0.0,0.0,0.0,-5.6167,-5.6965,-5.7002,-5.6392,-5.5018,-5.4201,-5.3793,-5.3813,-5.3813,-5.333,-5.2382,-5.1714,-5.0878,-4.9875,-4.9206,-4.8909,-4.8909,-4.8909,0.0,-4.8909,-4.8909,-4.8909,-4.8909,-4.8909,-4.8909,-4.8909,-4.8909,-4.8909,-4.8909,-4.8909,-4.8816,-4.8556,-4.7757,-4.6906,-4.6188,-4.6188,-4.5564,-4.4866,-4.4866,-4.4592,-4.4126,-4.3466,-4.3542,-4.3604,-4.2973,-4.281,-4.2791,-4.2715,-4.2696,-4.2676,-4.258,-4.22,-4.1885,-4.1864,-4.1468,-4.1123,-4.0926,-4.0308,-4.002,-4.0446,-3.9146,-3.8249,-3.8387,-3.7754,-3.7305,-3.7305,-3.668,-3.6301,-3.6301,-3.6301,-3.6301,-3.6301,-3.6301,-3.6301,-3.6301,-3.6163,-3.6111,-3.6111,-3.5973,-3.5921,-3.5921,-3.5921,-3.5921,-4.9553,-5.0276,-5.0356,-4.8891,-4.7713,-4.6262,-4.3828,-4.1361,-3.929,-3.8198,-3.7303,-3.6847,-3.7224,-3.8211,-3.9613,-4.1535,-4.2366,-4.3918,-4.7231,-4.8669,-5.0007,-5.1714,-5.3032,-5.3961,-5.4388,-5.5187,-5.5689,-5.5689,0.0,-5.71,-5.749,-5.7509,-5.6543,-5.4444,-5.4407,-5.4221,-5.3813,-5.3813,-5.3404,-5.2605,-5.2215,-5.1361,-5.0098,-4.9745,-4.9336,-4.8909,-4.8909,0.0,-4.8909,-4.8909,-4.8909,-4.8909,-4.8909,-4.8909,-4.8909,-4.8909,-4.8909,-4.8909,-4.8909,-4.8909,-4.8834,-4.8444,-4.7776,-4.7051,-4.6624,-4.5937,-4.5212,-4.4748,-4.4471,-4.4194,-4.3804,-4.3855,-4.3901,-4.3515,-4.3265,-4.3123,-4.3123,-4.2959,-4.281,-4.281,-4.2581,-4.2362,-4.2136,-4.1821,-4.1534,-4.129,-4.0834,-4.0637,-4.0971,-4.0296,-3.9652,-3.9215,-3.8185,-3.7512,-3.7512,-3.6749,-3.6301,-3.6301,-3.6301,-3.6301,-3.6301,-3.6301,-3.6301,-3.6301,-3.6301,-3.6301,-3.6301,-3.6301,-3.6301,-3.6301,-3.6301,-3.6301,-4.9952,-5.0558,-5.0289,-4.8548,-4.7355,-4.5742,-4.24,-4.0161,-3.8348,-3.6672,-3.6169,-3.6122,-3.6415,-3.7461,-3.8765,-4.0259,-4.0859,-4.2506,-4.6433,-4.7707,-4.9262,-5.2029,-5.3218,-5.4128,-5.4927,-5.58,0.0,-5.6042,0.0,0.0,-5.697,-5.7138,-5.619,-5.3868,-5.4407,-5.4444,-5.3813,-5.3813,-5.3478,-5.2847,-5.2512,-5.1751,-5.0618,-5.0135,-4.9633,-4.915,-4.8964,0.0,0.0,-4.8909,-4.8909,-4.8909,-4.8909,-4.8909,-4.8909,-4.8909,-4.8909,-4.8909,-4.8909,-4.8909,-4.8909,-4.8909,-4.8481,-4.7813,-4.6995,-4.6308,-4.5639,-4.4785,-4.4413,-4.4283,-4.4283,-4.4135,-4.4005,-4.4005,-4.3761,-4.3525,-4.3525,-4.3283,-4.3069,-4.3069,-4.2996,-4.2829,-4.2501,-4.2221,-4.1927,-4.1591,-4.129,-4.1117,-4.1093,-4.0982,-4.067,-4.0008,-3.8612,-3.7754,-3.7754,-3.6853,-3.6301,-3.6301,-3.6301,-3.6301,-3.6301,-3.6301,-3.6301,-3.6301,-3.6301,-3.6301,-3.6301,-3.6301,-3.6301,-3.6301,-3.6301,-3.6301,-4.9067,-5.0087,-5.0289,-4.8548,-4.6894,-4.501,-4.2311,-3.9727,-3.7638,-3.6601,-3.5757,-3.5645,-3.711,-3.7449,-3.8739,-4.2528,-4.2996,-4.404,-4.7404,-4.9081,-5.0339,-5.1398,-5.2865,-5.4128,-5.4927,-5.58,-5.5967,0.0,0.0,0.0,-5.5243,-5.5986,-5.5614,-5.3868,-5.3868,-5.3868,-5.3813,-5.3813,-5.3775,-5.3683,-5.2215,-5.1806,-5.2289,-5.0042,-4.9373,-4.9949,-4.9224,0.0,0.0,-4.8909,-4.8909,-4.8909,-4.8909,-4.8909,-4.8909,-4.8909,-4.8909,-4.8909,-4.8909,-4.8909,-4.8909,-4.8909,-4.8853,-4.8649,-4.7831,-4.7534,-4.7311,-4.6494,-4.5732,-4.5175,-4.5175,-4.4581,-4.4005,-4.4005,-4.3955,-4.3939,-4.3939,-4.3908,-4.3892,-4.3892,-4.3575,-4.3318,-4.3301,-4.2658,-4.2136,-4.1969,-4.1512,-4.1157,-4.1117,-4.0982,-4.0877,-4.0808,-3.9428,-3.8513,-3.8513,-3.7146,-3.6301,-3.6301,-3.6301,-3.6301,-3.6301,-3.6301,-3.6301,-3.6301,-3.6301,-3.6301,-3.6301,-3.6301,-3.6301,-3.6301,-3.6301,-3.6301,-4.7894,-4.8875,-4.8856,-4.7682,-4.6087,-4.413,-4.1515,-3.9297,-3.74,-3.5961,-3.5393,-3.5652,-3.7262,-3.7528,-3.8382,-4.1027,-4.1309,-4.214,-4.4901,-4.621,-4.7859,-5.0477,-5.2283,-5.3776,0.0,0.0,-5.5949,0.0,0.0,0.0,-5.4314,-5.6023,-5.6042,-5.3868,-5.4779,-5.4834,-5.3813,-5.3813,-5.3813,-5.3794,-5.2661,-5.2048,-5.1825,-5.0358,-4.9577,-4.9355,-4.9039,0.0,0.0,-4.8909,-4.8909,-4.8909,-4.8909,-4.8909,-4.8909,-4.8909,-4.8909,-4.8909,-4.8909,-4.8909,-4.8909,-4.8909,-4.8909,-4.8667,-4.7367,-4.7311,-4.733,-4.5509,-4.5491,-4.5788,-4.4785,-4.4265,-4.4005,-4.4005,-4.4005,-4.4005,-4.4005,-4.4005,-4.4005,-4.4005,-4.3876,-4.3843,-4.4137,-4.347,-4.2973,-4.319,-4.2338,-4.1666,-4.1591,-4.1244,-4.1,-4.0912,-3.9905,-3.9077,-3.8629,-3.7633,-3.6818,-3.6335,-3.6301,-3.6301,-3.6301,-3.6301,-3.6301,-3.6301,-3.6301,-3.6301,-3.6301,-3.6784,-3.7008,-3.7008,-3.7008,-3.7249,-4.5855,-4.7182,-4.7605,-4.7038,-4.5598,-4.3621,-4.0997,-3.9076,-3.734,-3.5567,-3.5198,-3.5696,-3.7328,-3.7633,-3.8271,-4.0175,-4.0587,-4.143,-4.3603,-4.4757,-4.6478,-4.9404,0.0,-5.2554,0.0,-5.5523,0.0,0.0,0.0,0.0,0.0,-5.5689,-5.5856,-5.3868,-5.4946,-5.5001,-5.3813,-5.3813,-5.3813,-5.3794,-5.2977,-5.2308,-5.1714,-5.0655,-4.9837,-4.9243,0.0,0.0,0.0,-4.8909,-4.8909,-4.8909,-4.8909,-4.8909,-4.8909,-4.8909,-4.8909,-4.8909,-4.8909,-4.8909,-4.8909,-4.8909,-4.8909,-4.8612,-4.6995,-4.7237,-4.7646,-4.5658,-4.5937,-4.6475,-4.4804,-4.4562,-4.4748,-4.4748,-4.4562,-4.4451,-4.4692,-4.4544,-4.4376,-4.4376,-4.4581,-4.4761,-4.4861,-4.4282,-4.3868,-4.4162,-4.3046,-4.216,-4.2098,-4.1661,-4.1312,-4.1203,-4.0556,-3.9692,-3.8703,-3.7927,-3.7167,-3.6353,-3.6301,-3.6301,-3.6301,-3.6301,-3.6301,-3.6301,-3.6301,-3.6301,-3.6301,-3.6853,-3.715,-3.715,-3.715,-3.7542,-4.2689,-4.4989,-4.6904,-4.6904,-4.5586,-4.3626,-4.1006,-3.9101,-3.7389,-3.557,-3.5201,-3.5709,-3.7393,-3.7696,-3.8516,-4.0978,-4.1998,-4.305,-4.4664,-4.6078,-4.7291,-4.8123,-4.8884,-5.0254,-5.2599,-5.4931,0.0,0.0,0.0,0.0,0.0,-5.4593,-5.4648,-5.3831,-5.3831,-5.3831,-5.3813,-5.3813,-5.3813,-5.3794,-5.2977,-5.2605,-5.2531,-5.0859,-5.0098,0.0,0.0,0.0,0.0,-4.8909,-4.8909,-4.8909,-4.8909,-4.8909,-4.8909,-4.8909,-4.8909,-4.8909,-4.8909,-4.8909,-4.8909,-4.8909,-4.8909,-4.8612,-4.6995,-4.7627,-4.8723,-4.7887,-4.7664,-4.7311,-4.5695,-4.5881,-4.6475,-4.6475,-4.5862,-4.5491,-4.629,-4.5844,-4.5287,-4.5287,-4.5918,-4.6215,-4.5435,-4.4969,-4.469,-4.469,-4.3486,-4.2602,-4.2602,-4.218,-4.1881,-4.1881,-4.1408,-4.0406,-3.8738,-3.7927,-3.7167,-3.6353,-3.6301,-3.6301,-3.6301,-3.6301,-3.6301,-3.6301,-3.6301,-3.6301,-3.6301,-3.6301,-3.6318,-3.6318,-3.6318,-3.6732,-3.9786,-4.112,-4.1855,-4.2452,-4.1697,-4.0446,-3.9023,-3.7778,-3.661,-3.5506,-3.5226,-3.5545,-3.6674,-3.734,-3.8362,-4.032,-4.1818,-4.3054,-4.4078,-4.5561,-4.7154,-4.8886,-5.1043,-5.2883,0.0,0.0,0.0,0.0,0.0,0.0,0.0,-5.4054,-5.4073,-5.3813,-5.4333,-5.437,-5.3813,-5.3813,-5.3813,-5.3775,-5.2438,-5.1788,-5.1714,-5.0042,0.0,0.0,0.0,0.0,0.0,-4.8909,-4.8909,-4.8909,-4.8909,-4.8909,-4.8909,-4.8909,-4.8909,-4.8909,-4.8909,-4.8909,-4.8909,-4.8909,-4.8909,-4.8704,-4.7646,-4.8054,-4.8723,-4.7924,-4.7293,-4.6754,-4.6252,-4.6308,-4.6494,-4.6494,-4.6308,-4.6197,-4.6438,-4.629,-4.6122,-4.6122,-4.6327,-4.6587,-4.6884,-4.6374,-4.5936,-4.5936,-4.4854,-4.3798,-4.3105,-4.264,-4.2364,-4.2304,-4.216,-4.1372,-3.9621,-3.9174,-3.8456,-3.7202,-3.7133,-3.687,-3.6318,-3.6301,-3.6301,-3.6301,-3.6301,-3.6301,-3.6301,-3.6853,-3.7133,-3.7129,-3.7629,-3.7754,-3.7032,-3.8374,-3.9105,-4.0294,-3.9911,-3.9012,-3.8131,-3.7233,-3.6335,-3.5488,-3.5277,-3.5501,-3.6343,-3.7148,-3.8151,-3.9584,-4.1495,-4.2956,-4.3413,-4.5154,0.0,-4.9078,0.0,0.0,0.0,0.0,0.0,0.0,0.0,0.0,0.0,-5.3813,-5.3813,-5.3813,-5.4296,-5.4314,-5.3813,-5.3813,-5.3664,-5.3348,-5.2327,-5.1528,-5.0878,-4.9837,0.0,0.0,0.0,0.0,0.0,-4.8909,-4.8909,-4.8909,-4.8909,-4.8909,-4.8909,-4.8909,-4.8909,-4.8909,-4.8909,-4.8909,-4.8909,-4.8909,-4.85,-4.8017,-4.8129,-4.8296,-4.8333,-4.785,-4.7553,-4.7348,-4.7033,-4.7181,-4.7404,-4.7404,-4.7163,-4.694,-4.694,-4.694,-4.6865,-4.655,-4.6995,-4.746,-4.7664,-4.7274,-4.694,-4.694,-4.5791,-4.4715,-4.4076,-4.3341,-4.2904,-4.2848,-4.2658,-4.2107,-4.1025,-4.0359,-3.9482,-3.8256,-3.7997,-3.7702,-3.718,-3.7163,-3.7163,-3.7163,-3.7163,-3.7025,-3.6749,-3.6939,-3.7064,-3.7042,-3.7508,-3.7668,0.0,-3.6415,-3.7975,-3.9718,-3.9528,-3.8753,-3.7988,-3.719,0.0,-3.5496,-3.5304,-3.5541,-3.6353,-3.7154,-3.8027,-3.9011,-4.1227,-4.2833,-4.2958,-4.5166,0.0,0.0,-5.1035,0.0,0.0,0.0,0.0,0.0,0.0,0.0,0.0,-5.3851,-5.3832,-5.3832,-5.3813,-5.3813,-5.3813,-5.3738,-5.3348,-5.2605,-5.2475,-5.1621,-5.0116,-5.0042,0.0,0.0,0.0,0.0,0.0,-4.8909,-4.8909,-4.8909,-4.8909,-4.8909,-4.8909,-4.8909,-4.8909,-4.8909,-4.8909,-4.8909,-4.8909,-4.8909,-4.7776,-4.6735,-4.8389,-4.8259,-4.7553,-4.7664,-4.824,-4.8649,-4.7887,-4.8296,-4.8909,-4.8909,-4.8333,-4.7794,-4.7794,-4.7794,-4.7553,-4.6828,-4.7887,-4.8667,-4.7906,-4.7794,-4.7776,-4.7701,-4.642,-4.5454,-4.5379,-4.4304,-4.3532,-4.3532,-4.3032,-4.2698,-4.264,-4.1385,-4.026,-3.9434,-3.8951,-3.8669,-3.8594,-3.8594,-3.8594,-3.8594,-3.8594,-3.8249,-3.7581,-3.6818,-3.6439,-3.6387,-3.6387,-3.6749,-3.2391,0.0,-3.366,-3.5354,-3.563,-3.5585,0.0,-3.5935,-3.571,-3.5436,-3.5342,-3.5553,-3.6353,-3.7198,-3.8463,-4.0568,-4.1972,-4.3272,-4.4594,-4.7368,0.0,-5.1271,-5.3057,0.0,0.0,0.0,0.0,0.0,0.0,0.0,0.0,-5.4313,-5.4177,-5.4177,-5.3926,-5.3813,-5.3813,-5.32,-5.2791,-5.2587,-5.1305,-5.0506,-5.0153,-4.9485,0.0,0.0,0.0,0.0,-4.8909,-4.8909,-4.8909,-4.8909,-4.8909,-4.8909,-4.8909,-4.8909,-4.8909,-4.8909,-4.8909,-4.8909,-4.8909,-4.8909,-4.7404,-4.5992,-4.824,-4.7478,-4.6122,-4.7348,-4.785,-4.7943,-4.7757,-4.8296,-4.8909,-4.8909,-4.876,-4.863,-4.863,-4.863,-4.8556,-4.837,-4.8649,-4.8834,-4.8649,-4.863,-4.8407,-4.7794,-4.7386,-4.6903,-4.629,-4.5426,-4.4858,-4.4858,-4.4149,-4.3543,-4.3178,-4.2163,-4.1177,-4.0278,-3.9826,-3.9289,-3.8634,-3.8594,-3.8594,-3.8594,-3.8594,-3.8491,-3.8336,-3.8146,-3.7767,-3.7236,-3.7236,-3.6995,-3.1243,-3.1863,-3.2719,-3.4017,-3.4623,-3.5011,-3.5451,-3.5515,-3.5489,-3.5449,-3.54,-3.5599,-3.6447,-3.7285,-3.8516,-4.0605,-4.2011,-4.3589,-4.5706,0.0,-4.9676,-5.1809,-5.3101,0.0,0.0,0.0,0.0,0.0,0.0,0.0,0.0,-5.4639,-5.4528,-5.4528,-5.4347,-5.3938,-5.3255,-5.2828,-5.2215,-5.1454,-5.0543,-4.993,-4.9596,-4.9132,-4.8909,0.0,0.0,0.0,-4.8909,-4.8909,-4.8909,-4.8909,-4.8909,-4.8909,-4.8909,-4.8909,-4.8909,-4.8909,-4.8909,-4.8909,-4.8909,-4.8909,-4.7776,-4.6717,-4.8389,-4.746,-4.6197,-4.7794,-4.8259,-4.8259,-4.8259,-4.8574,-4.8909,-4.8909,-4.8909,-4.8797,-4.8426,-4.8649,-4.8797,-4.8426,-4.8649,-4.8909,-4.8909,-4.8909,-4.876,-4.8314,-4.7943,-4.7404,-4.6605,-4.5788,-4.5138,-4.4748,-4.4283,-4.3892,-4.3629,-4.2996,-4.2165,-4.1202,-4.0722,-4.0267,-3.9772,-3.9755,-3.9715,-3.9669,-3.9284,-3.9094,-3.9094,-3.8444,-3.7892,-3.7495,-3.7133,-3.6715,-3.0885,-3.1984,-3.3301,-3.4021,-3.4814,-3.5442,-3.5575,-3.5559,-3.5541,-3.5669,-3.5648,-3.5926,-3.6899,-3.7751,-3.8816,-4.0412,-4.2267,-4.4432,-4.7116,-4.7895,-4.919,-5.1945,0.0,0.0,0.0,0.0,0.0,0.0,0.0,0.0,0.0,-5.4895,-5.4809,-5.4676,-5.4632,-5.3868,-5.2361,-5.2455,-5.1694,-5.0098,-4.9986,-4.9559,-4.8926,-4.8926,-4.8943,0.0,0.0,0.0,-4.8943,-4.8943,-4.8943,-4.8943,-4.8943,-4.8943,-4.8943,-4.8926,-4.8926,-4.8926,-4.8909,-4.8816,-4.8742,-4.8872,-4.8277,-4.7683,-4.863,-4.7868,-4.6995,-4.8481,-4.8816,-4.876,-4.8872,-4.8909,-4.8909,-4.8909,-4.8909,-4.8723,-4.8036,-4.8426,-4.8704,-4.8017,-4.8426,-4.8909,-4.8909,-4.8909,-4.8909,-4.8909,-4.8314,-4.7646,-4.694,-4.6048,-4.5194,-4.4469,-4.4153,-4.3989,-4.3908,-4.3594,-4.2996,-4.2095,-4.1578,-4.1255,-4.114,-4.1117,-4.1053,-4.0942,-4.0285,-3.9917,-3.9894,-3.8656,-3.7983,-3.7823,-3.7008,-3.6594,-3.1622,-3.2474,-3.3201,-3.3276,-3.3956,-3.4754,-3.5442,-3.5596,-3.5776,-3.646,-3.6594,-3.7048,-3.8604,-3.9565,-4.0613,-4.2163,0.0,-4.728,0.0,0.0,-5.1909,0.0,0.0,0.0,0.0,0.0,0.0,0.0,0.0,0.0,0.0,-5.5351,-5.488,-5.4155,-5.3855,-5.291,-5.1257,-5.1751,-5.1378,-5.0098,-4.941,-4.9073,-4.9084,-4.9084,-4.91,0.0,0.0,-4.9146,-4.9146,-4.9146,-4.9146,-4.9146,-4.9146,-4.9146,-4.9164,-4.9083,-4.9084,-4.9049,-4.8926,-4.8444,-4.7999,-4.8686,-4.7887,-4.6958,-4.8444,-4.8259,-4.7701,-4.8649,-4.8407,-4.8036,-4.8723,-4.8909,-4.8909,-4.8909,-4.8909,-4.8872,-4.8742,-4.8816,-4.8872,-4.8742,-4.8816,-4.8909,-4.8909,-4.8909,-4.8909,-4.8909,-4.8797,-4.8667,-4.8556,-4.7237,-4.6252,-4.6122,-4.4841,-4.3857,-4.3508,-4.344,-4.3195,-4.2678,-4.218,-4.167,-4.1209,-4.1186,-4.1163,-4.114,-4.1018,-4.0938,-4.088,-4.0655,-4.0141,-3.9336,-3.8594,-3.7927,-3.125,-3.228,-3.3234,-3.3179,-3.4138,-3.5195,-3.5574,-3.5626,-3.5968,-3.7282,-3.7154,-3.7314,-3.8987,-3.9985,-4.1377,-4.3892,0.0,-4.8622,-5.0257,-5.0872,0.0,0.0,0.0,0.0,0.0,0.0,0.0,0.0,0.0,0.0,0.0,0.0,-5.4032,-5.3629,-5.346,-5.2731,-5.1337,-5.1592,-5.1154,-4.9995,-4.9619,-4.9472,-4.9531,-4.9423,-4.9399,-4.9411,0.0,-4.9214,-4.9214,-4.9214,-4.9214,-4.9214,-4.9214,-4.9214,-4.9197,-4.9183,-4.9166,-4.915,-4.9079,-4.8805,-4.8513,-4.8885,-4.846,-4.7924,-4.8686,-4.8649,-4.8426,-4.8797,-4.863,-4.8426,-4.8797,-4.8909,-4.8909,-4.8909,-4.8909,-4.8909,-4.8909,-4.8909,-4.8909,-4.8909,-4.8909,-4.8909,-4.8909,-4.8909,-4.8909,-4.8909,-4.8909,-4.8593,-4.772,-4.7348,-4.6624,-4.5287,-4.4878,-4.4443,-4.3781,-4.371,-4.3457,-4.2847,-4.2503,-4.2121,-4.1648,-4.16,-4.1463,-4.1192,-4.1209,-4.1186,-4.1152,-4.0735,-4.033,-3.9903,-3.9091,-3.8533,-3.1053,-3.2175,-3.329,-3.3241,-3.4477,-3.5792,-3.6207,-3.6248,-3.6752,-3.8684,-3.8524,-3.8414,-3.9692,-4.0795,0.0,-4.5419,-4.7799,-4.9441,-4.9884,0.0,0.0,0.0,0.0,0.0,0.0,0.0,0.0,0.0,0.0,0.0,0.0,0.0,-5.3214,-5.3021,-5.3021,-5.2493,-5.141,-5.1217,-5.0699,-4.9898,-4.9898,-4.9917,-4.9942,-4.9798,-4.974,-4.9721,-4.951,-4.9396,-4.9334,-4.9334,-4.9305,-4.9262,-4.9262,-4.9262,-4.9211,-4.9211,-4.9211,-4.9214,-4.9214,-4.9183,-4.9116,-4.9116,-4.9047,-4.8978,-4.8943,-4.8962,-4.8926,-4.8909,-4.8909,-4.8909,-4.8909,-4.8909,-4.8909,-4.8909,-4.8909,-4.8909,-4.8909,-4.8909,-4.8909,-4.8909,-4.8909,-4.8909,-4.8909,-4.8909,-4.8909,-4.8909,-4.8909,-4.8444,-4.7218,-4.7441,-4.6977,-4.5064,-4.5305,-4.5231,-4.4376,-4.4116,-4.3744,-4.3123,-4.281,-4.2523,-4.22,-4.2136,-4.1885,-4.1423,-4.1423,-4.1373,-4.1255,-4.068,-4.0401,-4.0339,-3.9502,-3.9093,-3.1796,-3.2635,-3.329,-3.329,-3.4517,-3.6104,-3.7682,-3.8019,-3.8715,-4.121,-4.1667,-4.1659,-4.1768,-4.3088,-4.471,-4.6502,-4.8312,-5.0036,0.0,0.0,0.0,0.0,0.0,0.0,0.0,0.0,0.0,0.0,0.0,0.0,0.0,0.0,0.0,-5.2211,-5.2192,-5.1767,-5.0871,-5.0053,-4.9739,-4.9898,-4.9898,-4.9974,-5.0092,-5.0068,-5.0111,-5.0159,-5.0147,-5.0,-4.9762,-4.9762,-4.965,-4.9474,-4.9474,-4.9409,-4.9273,-4.9273,-4.926,-4.9214,-4.9214,-4.9197,-4.9197,-4.9197,-4.9197,-4.9181,-4.91,-4.9084,-4.9049,-4.8945,-4.8909,-4.8909,-4.8909,-4.8909,-4.8909,-4.8909,-4.8909,-4.8909,-4.8909,-4.8909,-4.8909,-4.8909,-4.8909,-4.8909,-4.8909,-4.8909,-4.8909,-4.8909,-4.8909,-4.8872,-4.8742,-4.8129,-4.7627,-4.746,-4.6828,-4.6085,-4.5268,-4.4469,-4.3989,-4.3908,-4.3195,-4.2773,-4.2735,-4.2753,-4.2541,-4.2136,-4.2115,-4.1881,-4.1403,-4.1333,-4.123,-4.1105,-4.0356,-4.0008,-3.1192,-3.2276,-3.3292,-3.329,-3.4512,-3.6159,-3.7869,-3.8645,-3.9572,-4.1583,-4.2866,-4.3599,-4.3559,-4.4461,-4.5579,-4.6775,-4.8838,0.0,0.0,0.0,0.0,0.0,0.0,0.0,0.0,0.0,0.0,0.0,0.0,0.0,0.0,0.0,0.0,-5.0637,-5.0599,-5.0201,-4.9312,-4.8984,-4.8872,-4.8961,-4.8914,-4.95,-5.0567,-4.9921,-4.9908,-5.0436,-5.0275,-5.0147,-5.0062,-5.0062,-5.0,-4.9878,-4.9346,-4.9092,-4.9047,-4.9047,-4.9034,-4.907,-4.9438,-4.9558,-4.9469,-4.9321,-4.9352,-4.9411,-4.923,-4.9225,-4.9233,-4.9062,-4.8962,-4.8909,-4.8909,-4.8909,-4.8909,-4.8909,-4.8909,-4.8909,-4.8909,-4.8909,-4.8909,-4.8909,-4.8909,-4.8909,-4.8909,-4.8909,-4.8909,-4.8909,-4.8909,-4.8723,-4.8221,-4.8314,-4.8054,-4.7051,-4.668,-4.616,-4.5361,-4.4989,-4.4581,-4.4023,-4.371,-4.344,-4.3177,-4.2941,-4.2619,-4.2198,-4.1963,-4.174,-4.1515,-4.1515,-4.1515,-4.1453,-4.1066,-4.0922,-3.0413,-3.1641,-3.2924,-3.2923,-3.4567,-3.6689,-3.8678,-3.9746,-4.0938,-4.3157,-4.4136,-4.4664,-4.488,-4.5367,0.0,0.0,-4.9159,0.0,0.0,0.0,0.0,0.0,0.0,0.0,0.0,0.0,0.0,0.0,0.0,0.0,0.0,0.0,0.0,0.0,-4.9301,-4.901,-4.8411,-4.8121,-4.8121,-4.8392,-4.7808,-4.8427,-5.0086,-4.9354,-4.9486,-5.0306,-5.0124,-5.0155,-5.0339,-5.0339,-5.0275,-5.0099,-4.924,-4.9075,-4.9266,-4.8999,-4.8904,-4.8957,-4.9359,-4.9498,-4.9405,-4.9167,-4.9351,-4.9612,-4.9321,-4.9283,-4.934,-4.9181,-4.9064,-4.8995,-4.8979,-4.8926,-4.8909,-4.8909,-4.8909,-4.8909,-4.8909,-4.8909,-4.8909,-4.8909,-4.8909,-4.8909,-4.8909,-4.8909,-4.8909,-4.8909,-4.8909,-4.8704,-4.8147,-4.8556,-4.8481,-4.7386,-4.7033,-4.655,-4.5751,-4.5454,-4.4934,-4.4061,-4.4005,-4.3876,-4.361,-4.3336,-4.2996,-4.2599,-4.2177,-4.1984,-4.1984,-4.1719,-4.167,-4.1788,-4.1582,-4.1471,-2.962,-3.0848,-3.2117,-3.2122,-3.4684,-3.7847,-4.0356,-4.1529,-4.3053,-4.6426,-4.578,-4.4877,-4.5679,-4.5817,0.0,-4.6974,0.0,0.0,0.0,0.0,0.0,0.0,0.0,0.0,0.0,0.0,0.0,0.0,0.0,0.0,0.0,0.0,0.0,0.0,-4.8392,-4.8372,-4.8372,-4.7521,-4.7521,-4.8353,-4.6639,-4.6709,-4.8392,-4.8392,-4.8856,-4.9687,-4.9687,-5.0036,-5.0577,-5.0596,-5.0446,-5.0111,-4.924,-4.9431,-5.0092,-4.9202,-4.8896,-4.8896,-4.8884,-4.8904,-4.8869,-4.8669,-4.9159,-4.9749,-4.9411,-4.9289,-4.9292,-4.9211,-4.9214,-4.9181,-4.9118,-4.8996,-4.8909,-4.8909,-4.8909,-4.8909,-4.8909,-4.8909,-4.8909,-4.8909,-4.8909,-4.8909,-4.8909,-4.8909,-4.8909,-4.8909,-4.8909,-4.8909,-4.8909,-4.8909,-4.8909,-4.8909,-4.8184,-4.7386,-4.6568,-4.5769,-4.4934,-4.4061,-4.4005,-4.4005,-4.4005,-4.4005,-4.3809,-4.3406,-4.2996,-4.281,-4.281,-4.2005,-4.1809,-4.2216,-4.1788,-4.1604,-3.1196,-3.1712,-3.2547,-3.4382,-3.6025,-3.8025,-4.1164,-4.2036,-4.3296,-4.726,-4.7158,-4.6631,-4.7468,-4.763,0.0,-4.7971,0.0,0.0,0.0,0.0,0.0,0.0,0.0,0.0,0.0,0.0,0.0,0.0,0.0,0.0,0.0,0.0,0.0,0.0,-4.7482,-4.7192,-4.6581,-4.631,-4.6329,-4.6554,-4.6058,-4.6709,-4.8372,-4.7773,-4.7966,-4.8798,-4.8798,-4.8883,-4.9106,-4.9705,-5.025,-5.0545,-4.9099,-4.908,-4.9658,-4.8174,-4.802,-4.8523,-4.8337,-4.8672,-4.914,-4.89,-4.9401,-5.0038,-4.9735,-4.9612,-4.9544,-4.9321,-4.9228,-4.9197,-4.9181,-4.9116,-4.9015,-4.8926,-4.8909,-4.8909,-4.8909,-4.8909,-4.8909,-4.8909,-4.8909,-4.8909,-4.8909,-4.8909,-4.8909,-4.8909,-4.8909,-4.8909,-4.8909,-4.8909,-4.8909,-4.8909,-4.8686,-4.7999,-4.6624,-4.6271,-4.5528,-4.4098,-4.4005,-4.4005,-4.4005,-4.3728,-4.3508,-4.3406,-4.2996,-4.281,-4.281,-4.256,-4.2501,-4.2619,-4.2198,-4.2008,-3.0558,-3.1332,-3.2559,-3.4486,-3.6627,-3.9076,-4.2151,-4.3811,-4.5522,-4.8393,-4.8248,-4.7869,-4.8759,-4.8624,0.0,0.0,0.0,0.0,0.0,0.0,0.0,0.0,0.0,0.0,0.0,0.0,0.0,0.0,0.0,0.0,0.0,0.0,0.0,0.0,-4.6573,-4.6329,-4.5807,-4.5807,-4.5807,-4.5807,-4.5807,-4.6348,-4.7347,-4.6825,-4.7057,-4.7908,-4.8256,-4.8392,-4.843,-4.8972,-4.9475,-4.9765,-4.8411,-4.8411,-4.901,-4.7618,-4.7424,-4.7855,-4.7706,-4.8,-4.8437,-4.8527,-4.9124,-4.9857,-4.9936,-4.9936,-4.9844,-4.9569,-4.9558,-4.9539,-4.9305,-4.9292,-4.9292,-4.9047,-4.8926,-4.8909,-4.8909,-4.8909,-4.8909,-4.8909,-4.8909,-4.8909,-4.8909,-4.8909,-4.8909,-4.8909,-4.8909,-4.8909,-4.8909,-4.8909,-4.8909,-4.8909,-4.8909,-4.8259,-4.6643,-4.6494,-4.5769,-4.4116,-4.4005,-4.4005,-4.4005,-4.3777,-4.3644,-4.3644,-4.3248,-4.3123,-4.3265,-4.2959,-4.2867,-4.3032,-4.2619,-4.2442,-2.8827,-3.0272,-3.2265,-3.3457,-3.7031,-4.0878,-4.3261,-4.6195,-4.8588,-4.9231,-4.8851,-4.8662,-4.9533,-4.8991,-4.843,0.0,0.0,0.0,0.0,0.0,0.0,0.0,0.0,0.0,0.0,0.0,0.0,0.0,0.0,0.0,0.0,0.0,0.0,-4.5807,-4.5807,-4.5807,-4.5807,-4.5807,-4.5807,0.0,-4.5807,-4.5807,-4.5807,-4.5807,-4.6232,-4.7018,-4.7811,-4.8217,-4.8275,-4.8275,-4.8333,-4.8314,-4.7444,-4.7637,-4.8275,-4.7328,-4.7018,-4.7096,-4.6999,-4.7018,-4.719,-4.7745,-4.849,-4.9279,-4.9838,-5.0046,-5.0033,-4.9796,-4.9949,-5.0056,-4.9529,-4.9558,-4.9627,-4.9246,-4.9047,-4.8926,-4.8926,-4.8926,-4.8909,-4.8909,-4.8909,-4.8909,-4.8909,-4.8909,-4.8909,-4.8909,-4.8909,-4.8909,-4.8909,-4.8909,-4.8872,-4.8797,-4.8872,-4.8221,-4.6531,-4.6457,-4.5769,-4.4116,-4.4005,-4.4005,-4.4005,-4.4005,-4.4005,-4.4005,-4.3644,-4.3627,-4.4005,-4.3284,-4.3105,-4.344,-4.3051,-4.2848,-3.0973,-3.1228,-3.201,-3.5566,-3.9707,-4.3183,-4.4362,-4.6249,-4.7551,-4.6982,-4.7681,-4.8662,-4.9533,-4.8991,0.0,0.0,0.0,0.0,0.0,0.0,0.0,0.0,0.0,0.0,0.0,0.0,0.0,0.0,0.0,0.0,0.0,0.0,0.0,-4.5807,-4.5807,-4.5807,-4.5807,-4.5807,-4.5807,0.0,-4.5807,-4.5807,-4.5807,-4.5807,-4.5904,-4.6097,-4.629,-4.6748,-4.7386,-4.7386,-4.7773,-4.8314,-4.7444,-4.7637,-4.8217,-4.6651,-4.6523,-4.6999,-4.6329,-4.6542,-4.7115,-4.7245,-4.773,-4.8308,-4.8433,-4.8799,-4.9171,-4.9113,-4.9632,-5.0171,-5.005,-5.0006,-4.9949,-4.9641,-4.9349,-4.9131,-4.9066,-4.9068,-4.9032,-4.8926,-4.8909,-4.8909,-4.8909,-4.8909,-4.8909,-4.8909,-4.8909,-4.8909,-4.8909,-4.8909,-4.8667,-4.8036,-4.8519,-4.7999,-4.5751,-4.6141,-4.5769,-4.4116,-4.4005,-4.4005,-4.4005,-4.4005,-4.4005,-4.4005,-4.3908,-4.3908,-4.4005,-4.3825,-4.3793,-4.386,-4.3457,-4.3265,-3.078,-3.1483,-3.3125,-3.746,-4.1133,-4.3925,-4.476,-4.5958,-4.6739,-4.6245,-4.7374,-4.8587,-4.9032,0.0,0.0,0.0,0.0,0.0,0.0,0.0,0.0,0.0,0.0,0.0,0.0,0.0,0.0,0.0,0.0,0.0,0.0,-4.5807,-4.5807,-4.5807,-4.5807,-4.5807,-4.5807,-4.5807,-4.5807,-4.5807,-4.5807,-4.5807,-4.5807,-4.5807,-4.5807,-4.5807,-4.5807,-4.6058,-4.6484,-4.6484,-4.6748,-4.7115,-4.6651,-4.6748,-4.7038,-4.6136,-4.6097,-4.6406,-4.5962,-4.6097,-4.6561,-4.696,-4.7307,-4.7651,-4.8056,-4.841,-4.8712,-4.9015,-4.9507,-4.9998,-5.0168,-5.0275,-5.0275,-5.0012,-4.967,-4.9352,-4.9181,-4.915,-4.9133,-4.9046,-4.9046,-4.9046,-4.9046,-4.903,-4.8979,-4.8909,-4.8909,-4.8909,-4.8909,-4.8556,-4.8166,-4.7738,-4.7738,-4.7088,-4.5435,-4.5677,-4.5361,-4.4079,-4.4005,-4.4005,-4.4005,-4.4005,-4.4005,-4.4005,-4.4005,-4.4005,-4.4005,-4.4005,-4.4005,-4.3986,-4.3777,-4.3677,-2.998,-3.168,-3.4551,-3.8476,-4.1387,-4.3496,-4.4355,-4.5307,-4.5997,-4.5997,-4.7118,-4.8135,0.0,0.0,0.0,0.0,0.0,0.0,0.0,0.0,0.0,0.0,0.0,0.0,0.0,0.0,0.0,0.0,0.0,0.0,-4.5807,-4.5807,-4.5807,-4.5807,-4.5807,-4.5807,-4.5807,-4.5807,-4.5807,-4.5807,-4.5807,-4.5807,-4.5807,-4.5807,-4.5807,-4.5807,-4.5807,-4.5807,-4.5807,-4.5807,-4.5807,-4.5807,-4.5807,-4.5807,-4.5807,-4.5807,-4.5807,-4.5807,-4.5807,-4.5807,-4.5923,-4.6631,-4.6883,-4.6999,-4.7734,-4.8159,-4.8497,-4.9004,-4.9517,-4.9945,-5.0082,-5.0372,-5.0548,-5.0147,-4.9911,-4.9679,-4.9368,-4.9292,-4.9276,-4.9211,-4.9214,-4.9214,-4.9214,-4.9166,-4.9027,-4.8775,-4.885,-4.887,-4.8722,-4.811,-4.7646,-4.7516,-4.6903,-4.6104,-4.5157,-4.5212,-4.4934,-4.4061,-4.4005,-4.4005,-4.4005,-4.4005,-4.4005,-4.4005,-4.4005,-4.4005,-4.4005,-4.4005,-4.4005,-4.4005,-4.4005,-4.4005,-3.0546,-3.2597,-3.5039,-3.7129,-3.9609,-4.1758,-4.2558,-4.4004,-4.5156,0.0,-4.5837,-4.6625,0.0,0.0,0.0,0.0,0.0,0.0,0.0,0.0,0.0,0.0,0.0,0.0,0.0,0.0,0.0,0.0,0.0,0.0,-4.5807,-4.5807,-4.5807,-4.5807,-4.5807,-4.5807,-4.5807,-4.5807,-4.5807,-4.5807,-4.5807,-4.5807,-4.5807,-4.5807,-4.5807,-4.5807,-4.5807,-4.5807,-4.5807,-4.5807,-4.5807,-4.5807,-4.5807,-4.5807,-4.5807,-4.5807,-4.5807,-4.5807,-4.5807,-4.5807,-4.5826,-4.5942,-4.5981,-4.6,-4.6116,-4.7192,-4.8423,-4.8497,-4.9587,-5.0581,-4.9934,-5.0309,-5.0612,-4.9654,-4.995,-5.0309,-4.9749,-4.9627,-4.9544,-4.926,-4.9214,-4.9214,-4.9214,-4.9197,-4.8938,-4.8231,-4.8652,-4.8805,-4.8025,-4.7808,-4.7423,-4.6735,-4.655,-4.5862,-4.4302,-4.4859,-4.4934,-4.4061,-4.4005,-4.4005,-4.4005,-4.4005,-4.4005,-4.4005,-4.4005,-4.4005,-4.4005,-4.4005,-4.4005,-4.4005,-4.4005,-4.4005,-3.1346,-3.2754,-3.4394,-3.6133,-3.8164,-4.0098,-4.1426,-4.2676,-4.3672,-4.418,-4.4525,0.0,0.0,0.0,0.0,0.0,0.0,0.0,0.0,0.0,0.0,0.0,0.0,0.0,0.0,0.0,0.0,0.0,0.0,-4.5123,-4.5123,-4.5123,-4.5123,-4.5123,-4.5548,-4.5807,-4.5807,-4.5807,-4.5568,-4.5123,-4.5123,-4.5123,-4.5123,-4.5123,-4.5374,-4.5807,-4.5807,-4.5807,-4.5807,-4.5807,-4.5807,-4.5807,-4.5807,-4.5807,-4.5807,-4.5807,-4.5807,-4.5807,-4.5807,-4.5807,-4.5807,-4.5807,-4.5807,-4.5807,-4.5807,-4.6348,-4.7038,-4.7521,-4.8198,-4.8798,-4.8933,-4.9223,-4.949,-4.9514,-4.9826,-4.9978,-4.9578,-4.9744,-4.9936,-4.979,-4.9641,-4.9378,-4.8882,-4.9068,-4.8814,-4.746,-4.797,-4.8161,-4.7303,-4.6749,-4.6323,-4.5988,-4.5494,-4.492,-4.4175,-4.4389,-4.4413,-4.4023,-4.4005,-4.4005,-4.4005,-4.4005,-4.4005,-4.4005,-4.4005,-4.4005,-4.4005,-4.4005,-4.4005,-4.4005,-4.4005,-4.4005,-3.1638,-3.2421,-3.3437,-3.4961,-3.6484,-3.8066,-3.9805,-4.084,-4.168,0.0,0.0,0.0,0.0,0.0,0.0,0.0,0.0,0.0,0.0,0.0,0.0,0.0,0.0,0.0,0.0,0.0,0.0,0.0,0.0,-4.4265,-4.4265,-4.4265,-4.4265,-4.4265,-4.4852,-4.5162,-4.5162,-4.5162,-4.4852,-4.4265,-4.4265,-4.4381,-4.4594,-4.4362,-4.4833,-4.5807,-4.5807,-4.5807,-4.5807,-4.5807,-4.5807,-4.5807,-4.5807,-4.5807,-4.5807,-4.5807,-4.5807,-4.5807,-4.5807,-4.5807,-4.5807,-4.5807,-4.5807,-4.5807,-4.5807,-4.5962,-4.6271,-4.6922,-4.725,-4.7521,-4.7966,-4.8237,-4.8566,-4.9223,-4.9533,-4.9621,-4.9355,-4.9597,-4.9813,-4.9603,-4.9562,-4.9358,-4.8651,-4.8673,-4.8333,-4.6977,-4.7302,-4.7398,-4.6539,-4.5888,-4.5499,-4.5499,-4.4744,-4.4214,-4.4199,-4.4119,-4.4039,-4.4005,-4.4005,-4.4005,-4.4005,-4.4005,-4.4005,-4.4005,-4.4005,-4.4005,-4.4005,-4.4005,-4.4005,-4.4005,-4.4005,-4.4005,-3.0952,-3.1559,-3.2399,-3.3319,-3.4217,-3.5351,-3.7109,0.0,-3.9043,-3.9922,0.0,0.0,0.0,0.0,0.0,0.0,0.0,0.0,0.0,0.0,0.0,0.0,0.0,0.0,0.0,0.0,0.0,0.0,0.0,-4.3363,-4.3363,-4.3363,-4.3363,-4.3363,-4.3421,-4.344,-4.344,-4.344,-4.3421,-4.3363,-4.3363,-4.3808,-4.4574,-4.375,-4.4253,-4.5807,-4.5807,-4.5807,-4.5807,-4.5807,-4.5807,-4.5807,-4.5807,-4.5807,-4.5807,-4.5807,-4.5807,-4.5807,-4.5807,-4.5807,-4.5807,-4.5807,-4.5807,-4.5807,-4.5807,-4.6387,-4.7038,-4.7096,-4.7695,-4.814,-4.7366,-4.7773,-4.8411,-4.8469,-4.9107,-4.9621,-4.9355,-4.9118,-4.8732,-4.7976,-4.8434,-4.8867,-4.8636,-4.7926,-4.7308,-4.7041,-4.6904,-4.6559,-4.5769,-4.5563,-4.5499,-4.5499,-4.4771,-4.4255,-4.4199,-4.4184,-4.4135,-4.4005,-4.4005,-4.4005,-4.4005,-4.4005,-4.4005,-4.4005,-4.4005,-4.4005,-4.4005,-4.4005,-4.4005,-4.4005,-4.4005,-4.4005,-3.091,-3.1498,-3.2319,-3.318,-3.363,-3.4315,-3.6074,-3.6269,-3.6504,-3.7949,0.0,0.0,0.0,0.0,0.0,0.0,0.0,0.0,0.0,0.0,0.0,0.0,0.0,0.0,0.0,0.0,0.0,0.0,0.0,0.0,-4.248,-4.2473,-4.2473,-4.2473,-4.3015,-4.3305,-4.3305,-4.3305,-4.3015,-4.2473,-4.2473,-4.2628,-4.2937,-4.3189,-4.3924,-4.5065,-4.5568,-4.5807,-4.5807,-4.5807,-4.5807,-4.5807,-4.5807,-4.5807,-4.5807,-4.5807,-4.5807,-4.5807,-4.5807,-4.5807,-4.5807,-4.5807,-4.5807,-4.5807,-4.5807,-4.602,-4.6271,-4.6271,-4.6484,-4.6651,-4.6348,-4.6503,-4.6864,-4.7424,-4.7792,-4.8009,-4.7909,-4.8249,-4.8486,-4.8216,-4.8143,-4.8109,-4.8029,-4.7509,-4.6883,-4.6256,-4.6119,-4.5804,-4.4998,-4.4875,-4.4861,-4.4861,-4.457,-4.434,-4.4329,-4.4285,-4.4244,-4.4135,-4.4135,-4.4085,-4.4005,-4.4005,-4.4005,-4.4005,-4.4005,-4.4005,-4.4005,-4.4005,-4.4005,-4.4005,-4.4005,-4.4005,-3.0865,-3.1474,-3.2237,-3.2824,-3.3178,-3.3707,-3.4862,-3.4687,-3.459,-3.5742,0.0,0.0,0.0,0.0,0.0,0.0,0.0,0.0,0.0,0.0,0.0,0.0,0.0,0.0,0.0,0.0,0.0,0.0,0.0,0.0,-4.0754,-4.0732,-4.0713,-4.0713,-4.1293,-4.1738,-4.2028,-4.2028,-4.1874,-4.1603,-4.1603,-4.1738,-4.2009,-4.2318,-4.3247,-4.4613,-4.4852,-4.5284,-4.5807,-4.5807,-4.5807,-4.5807,-4.5807,-4.5807,-4.5807,-4.5807,-4.5807,-4.5807,-4.5807,-4.5807,-4.5807,-4.5807,-4.5807,-4.5807,-4.5807,-4.5807,-4.5807,-4.5807,-4.5807,-4.5807,-4.5807,-4.602,-4.6387,-4.696,-4.7096,-4.7096,-4.7096,-4.754,-4.7869,-4.7579,-4.7743,-4.7914,-4.7832,-4.7483,-4.7017,-4.6369,-4.5956,-4.5416,-4.4594,-4.4501,-4.4501,-4.4501,-4.4473,-4.4411,-4.4397,-4.4373,-4.43,-4.4244,-4.4229,-4.418,-4.407,-4.407,-4.4055,-4.4005,-4.4005,-4.4005,-4.4005,-4.4005,-4.4005,-4.4005,-4.4005,-4.4005,0.0,0.0,0.0,-3.2173,-3.282,-3.3447,-3.3435,-3.3397,-3.3378,0.0,0.0,0.0,0.0,0.0,0.0,0.0,0.0,0.0,0.0,0.0,0.0,0.0,0.0,0.0,0.0,0.0,0.0,0.0,0.0,-3.8305,-3.83,-3.8246,-3.8199,-3.8193,-3.8193,-3.8624,-3.9481,-3.9501,-3.9946,-4.0797,-4.0797,-4.1222,-4.1932,-4.1184,-4.2202,-4.4516,-4.3692,-4.4272,-4.5807,-4.5807,-4.5807,-4.5807,-4.5807,-4.5807,-4.5807,-4.5807,-4.5807,-4.5807,-4.5807,-4.5807,-4.5807,-4.5807,-4.5807,-4.5807,-4.5807,-4.5807,-4.5807,-4.5807,-4.5807,-4.5807,-4.5807,-4.6426,-4.7057,-4.7057,-4.7076,-4.7096,-4.7096,-4.7096,-4.6844,-4.6,-4.7212,-4.8311,-4.8076,-4.7853,-4.7636,-4.7473,-4.6485,-4.5467,-4.4684,-4.4571,-4.4538,-4.4538,-4.4501,-4.4468,-4.4411,-4.4397,-4.4368,-4.43,-4.43,-4.427,-4.4199,-4.4199,-4.4135,-4.402,-4.4005,-4.4005,-4.4005,-4.4005,-4.4005,-4.4005,-4.4005,-4.4005,-3.2671,0.0,0.0,0.0,0.0,0.0,-3.4347,-3.3354,-3.2633,0.0,0.0,0.0,0.0,0.0,0.0,0.0,0.0,0.0,0.0,0.0,0.0,0.0,0.0,0.0,0.0,0.0,0.0,0.0,-3.8108,-3.8412,-3.8368,-3.8318,-3.8243,-3.8199,-3.8193,-3.8624,-3.9481,-3.9501,-3.9946,-4.0797,-4.0797,-4.0913,-4.1145,-4.1506,-4.2396,-4.3692,-4.4072,-4.4833,-4.5807,-4.5807,-4.5807,-4.5807,-4.5807,-4.5807,-4.5807,-4.5807,-4.5807,-4.5807,-4.5807,-4.5807,-4.5807,-4.5807,-4.5807,-4.5807,-4.5807,-4.5807,-4.5807,-4.5807,-4.5807,-4.5807,-4.5807,-4.5981,-4.6155,-4.6155,-4.6631,-4.7096,-4.7096,-4.7096,-4.7018,-4.6786,-4.7526,-4.8351,-4.8836,-4.8247,-4.7895,-4.8476,-4.7637,-4.6851,-4.6624,-4.5875,-4.5378,-4.5378,-4.4838,-4.4501,-4.4468,-4.4468,-4.4426,-4.4387,-4.4368,-4.4344,-4.4289,-4.427,-4.4255,-4.4226,-4.4165,-4.4135,-4.4135,-4.4055,-4.4005,-4.4005,-4.4005,-4.4005,-3.3364,-3.3992,-3.4659,-3.4693,0.0,0.0,-3.4322,-3.3369,-3.259,0.0,0.0,0.0,0.0,0.0,0.0,0.0,0.0,0.0,0.0,0.0,0.0,0.0,0.0,0.0,0.0,0.0,0.0,-3.6191,-3.6947,-3.7393,-3.7322,-3.7274,-3.7225,-3.7166,-3.7161,-3.7566,-3.8417,-3.8417,-3.9036,-4.0255,-4.0255,-4.0448,-4.0835,-4.1622,-4.2473,-4.3324,-4.3846,-4.4717,-4.5768,-4.5432,-4.549,-4.5807,-4.5807,-4.5807,-4.5807,-4.5807,-4.5807,-4.5807,-4.5807,-4.5807,-4.5807,-4.5807,-4.5807,-4.5807,-4.5807,-4.5807,-4.5807,-4.5807,-4.5807,-4.5807,-4.5807,-4.5807,-4.5807,-4.5807,-4.6194,-4.6561,-4.6561,-4.6844,-4.7096,-4.7096,-4.7407,-4.7824,-4.8298,-4.8068,-4.8006,-4.8534,-4.7995,-4.7393,-4.707,-4.636,-4.5741,-4.5351,-4.4828,-4.4501,-4.4501,-4.4501,-4.4487,-4.444,-4.444,-4.4397,-4.4325,-4.4344,-4.4329,-4.43,-4.4255,-4.4229,-4.4199,-4.407,-4.4005,-4.4005,-4.4005,-4.4005,-3.3556,-3.4143,-3.4759,-3.48,-3.5353,0.0,-3.4022,-3.3596,-3.3111,-3.1633,0.0,0.0,0.0,0.0,0.0,0.0,0.0,0.0,0.0,0.0,0.0,0.0,0.0,0.0,0.0,-3.4105,-3.4557,-3.4557,-3.5312,-3.578,-3.5807,-3.5802,-3.5771,-3.5714,-3.571,-3.6095,-3.69,-3.69,-3.7785,-3.9501,-3.9501,-3.9965,-4.0816,-4.1545,-4.2338,-4.3169,-4.3169,-4.4059,-4.5478,-4.4755,-4.4987,-4.5807,-4.5807,-4.5807,-4.5807,-4.5807,-4.5807,-4.5807,-4.5807,-4.5807,-4.5807,-4.5807,-4.5807,-4.5807,-4.5807,-4.5807,-4.5807,-4.5807,-4.5807,-4.5807,-4.5807,-4.5807,-4.5807,-4.5807,-4.5865,-4.5942,-4.5942,-4.6561,-4.7096,-4.7096,-4.7173,-4.727,-4.7366,-4.7756,-4.8105,-4.8247,-4.797,-4.7461,-4.6764,-4.6344,-4.5835,-4.5064,-4.4712,-4.4537,-4.4537,-4.451,-4.4501,-4.4501,-4.4501,-4.4468,-4.4411,-4.4411,-4.4368,-4.4314,-4.4314,-4.4289,-4.4199,-4.4085,-4.402,-4.4005,-4.4005,-4.4005,-3.5146,-3.5438,-3.5577,-3.5587,-3.5707,0.0,-3.5466,-3.4861,-3.4296,0.0,-3.284,0.0,0.0,0.0,0.0,0.0,0.0,0.0,0.0,0.0,0.0,0.0,0.0,0.0,0.0,-3.3554,-3.3653,-3.3653,-3.4447,-3.5214,-3.584,-3.5871,-3.5847,-3.5774,-3.5774,-3.6167,-3.6977,-3.6972,-3.7826,-3.9501,-3.9501,-3.9965,-4.0816,-4.0971,-4.1487,-4.2241,-4.2241,-4.2841,-4.3788,-4.3614,-4.4446,-4.5807,-4.5807,-4.5807,-4.5807,-4.5807,-4.5807,-4.5807,-4.5807,-4.5807,-4.5807,-4.5807,-4.5807,-4.5807,-4.5807,-4.5807,-4.5807,-4.5807,-4.5807,-4.5807,-4.5807,-4.5807,-4.5807,-4.5807,-4.6348,-4.6844,-4.6844,-4.698,-4.7096,-4.7096,-4.7676,-4.8372,-4.9068,-4.8709,-4.8551,-4.9273,-4.8554,-4.7876,-4.7722,-4.6908,-4.6279,-4.6107,-4.529,-4.4733,-4.4733,-4.4581,-4.4501,-4.4501,-4.4501,-4.4501,-4.4487,-4.4487,-4.4468,-4.4458,-4.4416,-4.4358,-4.427,-4.4214,-4.4119,-4.4005,-4.4005,-4.4005,0.0,0.0,0.0,-3.5784,0.0,0.0,0.0,-3.4853,-3.445,-3.4077,-3.3319,-3.2831,0.0,0.0,0.0,0.0,0.0,0.0,0.0,0.0,0.0,0.0,0.0,0.0,0.0,-3.25,-3.293,-3.3362,-3.3798,-3.4411,-3.5254,-3.5292,-3.5461,-3.5846,-3.5845,-3.6038,-3.6408,-3.6408,-3.7049,-3.8306,-3.8714,-3.935,-4.0237,-4.1075,-4.1659,-4.2047,-4.2047,-4.2525,-4.3266,-4.2841,-4.3653,-4.52,-4.52,-4.52,-4.5258,-4.5652,-4.5807,-4.5807,-4.5807,-4.5807,-4.5807,-4.5807,-4.5807,-4.5807,-4.5807,-4.5807,-4.5807,-4.5807,-4.5807,-4.5807,-4.5807,-4.5807,-4.5807,-4.5807,-4.6136,-4.6445,-4.6445,-4.6445,-4.6445,-4.6445,-4.6806,-4.7231,-4.7676,-4.7386,-4.7405,-4.8275,-4.7909,-4.7543,-4.7543,-4.6992,-4.6426,-4.6004,-4.5369,-4.5007,-4.5007,-4.4789,-4.4642,-4.4642,-4.4565,-4.4501,-4.4501,-4.4501,-4.4501,-4.4501,-4.4473,-4.443,-4.4358,-4.4314,-4.4226,-4.4104,-4.4104,-4.407,0.0,0.0,0.0,0.0,0.0,-3.5782,0.0,0.0,0.0,-3.3916,0.0,0.0,0.0,0.0,0.0,0.0,0.0,0.0,0.0,0.0,0.0,0.0,0.0,0.0,0.0,-3.1699,-3.2385,-3.3092,-3.3308,-3.37,-3.4407,-3.4604,-3.4999,-3.5643,-3.5838,-3.589,-3.5822,-3.5822,-3.6243,-3.7108,-3.7923,-3.8776,-3.9664,-4.1174,-4.1863,-4.1881,-4.1881,-4.2241,-4.2775,-4.2059,-4.2602,-4.3911,-4.4214,-4.4562,-4.4891,-4.5394,-4.5671,-4.5807,-4.5807,-4.5807,-4.5807,-4.5807,-4.5807,-4.5807,-4.5807,-4.5807,-4.5807,-4.5807,-4.5807,-4.5807,-4.5807,-4.5807,-4.5807,-4.5807,-4.5807,-4.5807,-4.5807,-4.5807,-4.5807,-4.5807,-4.5807,-4.5845,-4.602,-4.5904,-4.6097,-4.696,-4.696,-4.6844,-4.6844,-4.6719,-4.6339,-4.5627,-4.5371,-4.5263,-4.5263,-4.5011,-4.4849,-4.48,-4.4642,-4.4551,-4.4501,-4.4501,-4.4501,-4.4501,-4.4501,-4.4468,-4.4411,-4.4411,-4.4358,-4.4214,-4.4214,-4.415,0.0,0.0,0.0,0.0,-3.6248,0.0,0.0,0.0,-3.5551,-3.5519,0.0,-3.4591,0.0,0.0,0.0,0.0,0.0,0.0,0.0,0.0,0.0,0.0,0.0,0.0,0.0,0.0,-3.215,-3.2247,-3.2954,-3.3445,-3.3543,-3.427,-3.4741,-3.4821,-3.5583,-3.5957,-3.5891,-3.5891,-3.6309,-3.7108,-3.7986,-3.8841,-3.9716,-4.061,-4.1039,-4.1037,-4.1037,-4.1101,-4.1162,-4.0993,-4.1043,-4.1388,-4.2866,-4.4369,-4.5587,-4.4968,-4.5181,-4.5807,-4.5807,-4.5807,-4.5807,-4.5807,-4.5807,-4.5807,-4.5807,-4.5807,-4.5807,-4.5807,-4.5807,-4.5807,-4.5807,-4.5807,-4.5807,-4.5807,-4.5807,-4.5807,-4.5807,-4.5807,-4.5807,-4.5807,-4.5807,-4.6058,-4.6825,-4.631,-4.6097,-4.696,-4.6445,-4.5962,-4.5962,-4.5928,-4.5875,-4.5778,-4.5594,-4.5463,-4.5463,-4.5274,-4.5052,-4.4831,-4.4782,-4.4694,-4.4515,-4.4501,-4.4501,-4.4501,-4.4501,-4.4501,-4.4501,-4.4501,-4.4416,-4.4285,-4.4285,-4.4259,0.0,0.0,0.0,0.0,0.0,0.0,-3.5725,0.0,-3.5718,0.0,0.0,0.0,0.0,0.0,0.0,0.0,-3.4445,0.0,0.0,0.0,0.0,0.0,0.0,0.0,0.0,0.0,0.0,0.0,-3.0981,-3.1626,-3.2581,-3.2994,-3.3659,-3.4675,-3.5045,-3.5479,-3.5953,-3.5953,-3.6386,-3.7226,-3.8061,-3.8915,-3.9793,-4.0599,-4.0957,-4.0951,-4.0951,-4.0935,-4.0905,-4.088,-4.1169,-4.1622,-4.1824,-4.2916,-4.4369,-4.4543,-4.5104,-4.5807,-4.5807,-4.5807,-4.5807,-4.5807,-4.5807,-4.5807,-4.5807,-4.5807,-4.5807,-4.5807,-4.5807,-4.5807,-4.5807,-4.5807,-4.5807,-4.5807,-4.5807,-4.5807,-4.5807,-4.5807,-4.5807,-4.5807,-4.5807,-4.5923,-4.629,-4.6039,-4.5923,-4.629,-4.6039,-4.5807,-4.5807,-4.5807,-4.5807,-4.5807,-4.573,-4.5665,-4.5665,-4.5481,-4.5333,-4.5206,-4.4954,-4.4714,-4.4515,-4.4501,-4.4501,-4.4501,-4.4501,-4.4501,-4.4501,-4.4501,-4.4473,-4.4416,-4.4387,-4.4329,-3.698,0.0,0.0,0.0,0.0,0.0,0.0,0.0,0.0,0.0,0.0,0.0,0.0,0.0,-3.5591,-3.5124,0.0,-3.3289,0.0,-3.1164,0.0,0.0,0.0,0.0,0.0,0.0,0.0,-2.9901,-2.9923,-3.0354,-3.1369,-3.1857,-3.2792,-3.4295,-3.4588,-3.5115,-3.5992,-3.5992,-3.6441,-3.7301,-3.8139,-3.8964,-3.9823,-4.0643,-4.1028,-4.1024,-4.1024,-4.0999,-4.0948,-4.0925,-4.1306,-4.1839,-4.141,-4.2116,-4.3433,-4.4039,-4.4938,-4.5861,-4.5821,-4.5807,-4.5807,-4.5807,-4.5807,-4.5807,-4.5807,-4.5807,-4.5807,-4.5807,-4.5807,-4.5807,-4.5807,-4.5807,-4.5807,-4.5807,-4.5807,-4.5807,-4.5807,-4.5807,-4.5807,-4.5807,-4.5807,-4.5807,-4.5807,-4.5807,-4.5807,-4.5807,-4.5807,-4.5807,-4.5807,-4.5807,-4.5807,-4.5807,-4.5807,-4.5807,-4.5807,-4.5677,-4.5543,-4.5418,-4.4977,-4.4655,-4.4515,-4.4501,-4.4501,-4.4501,-4.4501,-4.4501,-4.4501,-4.4501,-4.4501,-4.4501,-4.444,-4.4383,0.0,0.0,0.0,-3.793,0.0,0.0,0.0,0.0,-3.7784,0.0,0.0,0.0,0.0,-3.5604,-3.5073,-3.3447,-3.3853,0.0,0.0,0.0,0.0,0.0,0.0,0.0,0.0,0.0,0.0,-3.0828,-3.0757,-3.045,-2.9729,-3.1213,-3.2519,-3.3416,-3.4256,-3.5115,-3.5992,-3.5992,-3.6441,-3.7301,-3.8183,-3.9022,-3.9821,-4.0701,-4.1093,-4.1093,-4.1093,-4.1106,-4.1094,-4.1014,-4.1004,-4.1111,-4.1866,-4.2715,-4.3499,-4.3458,-4.4511,-4.598,-4.5854,-4.5807,-4.5807,-4.5807,-4.5807,-4.5807,-4.5807,-4.5807,-4.5807,-4.5807,-4.5807,-4.5807,-4.5807,-4.5807,-4.5807,-4.5807,-4.5807,-4.5807,-4.5807,-4.5807,-4.5807,-4.5807,-4.5807,-4.5807,-4.5807,-4.5807,-4.5807,-4.5807,-4.5807,-4.5807,-4.5807,-4.5807,-4.5807,-4.5807,-4.5807,-4.5807,-4.5807,-4.578,-4.5626,-4.5223,-4.4758,-4.4515,-4.4501,-4.4501,-4.4501,-4.4501,-4.4501,-4.4501,-4.4501,-4.4501,-4.4501,-4.4501,-4.4501,-4.4473,0.0,0.0,-3.7217,-3.721,0.0,0.0,0.0,0.0,0.0,0.0,0.0,0.0,0.0,-3.5598,-3.5218,-3.4069,-3.3685,-3.3044,0.0,-3.1713,-3.1852,-3.16,0.0,0.0,0.0,0.0,0.0,-2.9872,-2.8905,-2.8675,0.0,-3.0139,-3.1348,-3.3338,-3.3689,-3.4548,-3.5992,-3.5992,-3.6441,-3.7301,-3.7594,-3.8453,-3.9819,-4.0112,-4.0542,-4.1109,-4.1109,-4.1095,-4.1141,-4.171,-4.1597,-4.121,-4.2636,-4.3379,-4.369,-4.4143,-4.5053,-4.6056,-4.601,-4.5978,-4.5919,-4.5919,-4.5908,-4.5874,-4.5874,-4.5874,-4.5874,-4.5874,-4.5874,-4.5874,-4.5874,-4.5874,-4.5874,-4.5874,-4.588,-4.586,-4.586,-4.5821,-4.5807,-4.5807,-4.5807,-4.5807,-4.5807,-4.5847,-4.5854,-4.5807,-4.5807,-4.5807,-4.5807,-4.5807,-4.5807,-4.5807,-4.5807,-4.5807,-4.5807,-4.5807,-4.5692,-4.5409,-4.5118,-4.4887,-4.4701,-4.4573,-4.4501,-4.4501,-4.4501,-4.4501,-4.4501,-4.4501,-4.4501,-4.4501,-4.4501,-4.4487,-3.6932,-3.6752,0.0,-3.7115,-3.7159,0.0,-3.8193,0.0,0.0,0.0,0.0,0.0,0.0,-3.5367,-3.5194,-3.4036,-3.3637,-3.3191,0.0,-3.2309,-3.2014,-3.1183,-3.0944,-3.1037,0.0,0.0,-2.8891,-2.9053,-2.8629,-2.8574,0.0,0.0,-3.1055,-3.3338,-3.3396,-3.4236,-3.5973,-3.5992,-3.6441,-3.7301,-3.7614,-3.8473,-3.9819,-4.0112,-4.0561,-4.1109,-4.1109,-4.1109,-4.1148,-4.1713,-4.1615,-4.1265,-4.3022,-4.3708,-4.3797,-4.4542,-4.5369,-4.6108,-4.6108,-4.6063,-4.6045,-4.6045,-4.5983,-4.5936,-4.5936,-4.5927,-4.5834,-4.5556,-4.5679,-4.5834,-4.5556,-4.5698,-4.5911,-4.5911,-4.5893,-4.5899,-4.5899,-4.588,-4.5841,-4.5847,-4.5847,-4.5821,-4.5807,-4.5847,-4.5854,-4.5847,-4.5847,-4.5847,-4.5847,-4.5814,-4.5807,-4.5807,-4.5807,-4.5807,-4.5807,-4.5737,-4.5634,-4.5498,-4.5304,-4.5074,-4.48,-4.4681,-4.4705,-4.4928,-4.4651,-4.4632,-4.4914,-4.4632,-4.4501,-4.4501,-4.4501,-4.4501]},{"header":{"parameterUnit":"m.s-1","parameterCategory":1,"la1":30.6,"la2":29.2853,"lo1":-89.7004,"lo2":-87.6739,"dy":0.0162,"dx":0.0183,"nx":112,"ny":82,"refTime":"2023-04-12T12:00:00:Z","depth":0,"parameterNumber":3,"parameterNumberName":"V-component_of_WINDS"},"data":[0.0,0.0,0.0,0.0,0.0,0.0,0.0,0.0,0.0,0.0,0.0,0.0,0.0,0.0,0.0,0.0,0.0,0.0,0.0,0.0,0.0,0.0,0.0,0.0,0.0,0.0,0.0,0.0,0.0,0.0,0.0,0.0,0.0,0.0,0.0,0.0,0.0,0.0,0.0,0.0,0.0,0.0,0.0,0.0,0.0,0.0,0.0,0.0,0.0,0.0,0.0,0.0,0.0,0.0,0.0,0.0,0.0,0.0,0.0,0.0,0.0,0.0,0.0,0.0,0.0,0.0,0.0,0.0,0.0,0.0,0.0,0.0,0.0,0.0,0.0,0.0,0.0,0.0,0.0,0.0,0.0,0.0,0.0,0.0,0.0,0.0,0.0,0.0,0.0,0.0,-1.1081,-1.2404,-1.3059,-1.369,-1.4451,-1.3378,-1.2603,-1.2307,0.0,0.0,0.0,0.0,0.0,0.0,0.0,0.0,0.0,0.0,0.0,0.0,0.0,0.0,0.0,0.0,0.0,0.0,0.0,0.0,0.0,0.0,0.0,0.0,0.0,0.0,0.0,0.0,0.0,0.0,0.0,0.0,0.0,0.0,0.0,0.0,0.0,0.0,0.0,0.0,0.0,0.0,0.0,0.0,0.0,0.0,0.0,0.0,0.0,0.0,0.0,0.0,0.0,0.0,0.0,0.0,0.0,0.0,0.0,0.0,0.0,0.0,0.0,0.0,0.0,0.0,0.0,0.0,0.0,0.0,0.0,0.0,0.0,0.0,0.0,0.0,0.0,0.0,0.0,0.0,0.0,0.0,0.0,0.0,0.0,0.0,0.0,0.0,0.0,0.0,0.0,0.0,0.0,0.0,0.0,0.0,0.0,0.0,0.0,0.0,0.0,0.0,0.0,0.0,-1.1688,-1.3478,-1.3754,-1.3983,-1.4469,-1.3378,-1.2603,-1.2307,0.0,0.0,0.0,0.0,0.0,0.0,0.0,0.0,0.0,0.0,0.0,0.0,0.0,0.0,0.0,0.0,0.0,0.0,0.0,0.0,0.0,0.0,0.0,0.0,0.0,0.0,0.0,0.0,0.0,0.0,0.0,0.0,0.0,0.0,0.0,0.0,0.0,0.0,0.0,0.0,0.0,0.0,0.0,0.0,0.0,0.0,0.0,0.0,0.0,0.0,0.0,0.0,0.0,0.0,0.0,0.0,0.0,0.0,0.0,0.0,0.0,0.0,0.0,0.0,0.0,0.0,0.0,0.0,0.0,0.0,0.0,0.0,0.0,0.0,0.0,0.0,0.0,0.0,0.0,0.0,0.0,0.0,0.0,0.0,0.0,0.0,0.0,0.0,0.0,0.0,0.0,0.0,0.0,0.0,0.0,0.0,0.0,0.0,0.0,0.0,0.0,0.0,0.0,-1.1538,-1.2457,-1.346,-1.3561,-1.3727,-1.413,-1.3075,-1.2341,-1.2298,-1.2103,0.0,0.0,0.0,0.0,0.0,0.0,0.0,0.0,0.0,0.0,0.0,0.0,0.0,0.0,0.0,0.0,0.0,0.0,0.0,0.0,0.0,0.0,0.0,0.0,0.0,0.0,0.0,0.0,0.0,0.0,0.0,0.0,0.0,0.0,0.0,0.0,0.0,0.0,0.0,0.0,0.0,0.0,0.0,0.0,0.0,0.0,0.0,0.0,0.0,0.0,0.0,0.0,0.0,0.0,0.0,0.0,0.0,0.0,0.0,0.0,0.0,0.0,0.0,0.0,0.0,0.0,0.0,0.0,0.0,0.0,0.0,0.0,0.0,0.0,0.0,0.0,0.0,0.0,0.0,0.0,0.0,0.0,0.0,0.0,0.0,0.0,0.0,0.0,0.0,0.0,0.0,0.0,0.0,0.0,0.0,0.0,0.0,0.0,0.0,0.0,0.0,0.0,-1.2279,-1.2824,-1.314,-1.3231,-1.3378,-1.3608,-1.2772,-1.2213,-1.2147,-1.1872,0.0,0.0,0.0,0.0,0.0,0.0,0.0,0.0,0.0,0.0,0.0,0.0,0.0,0.0,0.0,0.0,0.0,0.0,0.0,0.0,0.0,0.0,0.0,0.0,0.0,0.0,0.0,0.0,0.0,0.0,0.0,0.0,0.0,0.0,0.0,0.0,0.0,0.0,0.0,0.0,0.0,0.0,0.0,0.0,0.0,0.0,0.0,0.0,0.0,0.0,0.0,0.0,0.0,0.0,0.0,0.0,0.0,0.0,0.0,0.0,0.0,0.0,0.0,0.0,0.0,0.0,0.0,0.0,0.0,0.0,0.0,0.0,0.0,0.0,0.0,0.0,0.0,0.0,0.0,0.0,0.0,0.0,0.0,0.0,0.0,0.0,0.0,0.0,0.0,0.0,0.0,0.0,0.0,0.0,0.0,0.0,0.0,0.0,0.0,0.0,0.0,0.0,-1.1981,-1.2305,-1.2698,-1.3084,-1.3149,-1.2808,-1.2698,-1.2403,-1.179,-1.1712,0.0,0.0,0.0,0.0,0.0,0.0,0.0,0.0,0.0,0.0,0.0,0.0,0.0,0.0,0.0,0.0,0.0,0.0,0.0,0.0,0.0,0.0,0.0,0.0,0.0,0.0,0.0,0.0,0.0,0.0,0.0,0.0,0.0,0.0,0.0,0.0,0.0,0.0,0.0,0.0,0.0,0.0,0.0,0.0,0.0,0.0,0.0,0.0,0.0,0.0,0.0,0.0,0.0,0.0,0.0,0.0,0.0,0.0,0.0,0.0,0.0,0.0,0.0,0.0,0.0,0.0,0.0,0.0,0.0,0.0,0.0,0.0,0.0,0.0,0.0,0.0,0.0,0.0,0.0,0.0,0.0,0.0,0.0,0.0,0.0,0.0,0.0,0.0,0.0,0.0,0.0,0.0,0.0,0.0,0.0,0.0,0.0,0.0,0.0,0.0,0.0,0.0,-1.2135,-1.2447,0.0,-1.2836,-1.2863,-1.2707,-1.2468,-1.2157,-1.1737,0.0,0.0,0.0,0.0,0.0,0.0,0.0,0.0,0.0,0.0,0.0,0.0,0.0,0.0,0.0,0.0,0.0,0.0,0.0,0.0,0.0,0.0,0.0,0.0,0.0,0.0,0.0,0.0,0.0,0.0,0.0,0.0,0.0,0.0,0.0,0.0,0.0,0.0,0.0,0.0,0.0,0.0,0.0,0.0,0.0,0.0,0.0,0.0,0.0,0.0,0.0,0.0,0.0,0.0,0.0,0.0,0.0,0.0,0.0,0.0,0.0,0.0,0.0,0.0,0.0,0.0,0.0,0.0,0.0,0.0,0.0,0.0,0.0,0.0,0.0,0.0,0.0,0.0,0.0,0.0,0.0,0.0,0.0,0.0,0.0,0.0,0.0,0.0,0.0,0.0,0.0,0.0,0.0,0.0,0.0,0.0,0.0,0.0,0.0,0.0,0.0,0.0,-1.2083,-1.2261,-1.2403,0.0,-1.2505,-1.2505,-1.2505,-1.2257,-1.2031,-1.1881,0.0,0.0,0.0,0.0,0.0,0.0,0.0,0.0,0.0,0.0,0.0,0.0,0.0,0.0,0.0,0.0,0.0,0.0,0.0,0.0,0.0,0.0,0.0,0.0,0.0,0.0,0.0,0.0,0.0,0.0,0.0,0.0,0.0,0.0,0.0,0.0,0.0,0.0,0.0,0.0,0.0,0.0,0.0,0.0,0.0,0.0,0.0,0.0,0.0,0.0,0.0,0.0,0.0,0.0,0.0,0.0,0.0,0.0,0.0,0.0,0.0,0.0,0.0,0.0,0.0,0.0,0.0,0.0,0.0,0.0,0.0,0.0,0.0,0.0,0.0,0.0,0.0,0.0,0.0,0.0,0.0,0.0,0.0,0.0,0.0,0.0,0.0,0.0,0.0,0.0,0.0,0.0,0.0,0.0,0.0,0.0,0.0,0.0,0.0,0.0,0.0,0.0,-1.2507,-1.2273,-1.2101,-1.2101,-1.2101,-1.2101,-1.2101,-1.2101,-1.2124,0.0,0.0,0.0,0.0,0.0,0.0,0.0,0.0,0.0,0.0,0.0,0.0,0.0,0.0,0.0,0.0,0.0,0.0,0.0,0.0,0.0,0.0,0.0,0.0,0.0,0.0,0.0,0.0,0.0,0.0,0.0,0.0,0.0,0.0,0.0,0.0,0.0,0.0,0.0,0.0,0.0,0.0,0.0,0.0,0.0,0.0,0.0,0.0,0.0,0.0,0.0,0.0,0.0,0.0,0.0,0.0,0.0,0.0,0.0,0.0,0.0,0.0,0.0,0.0,0.0,0.0,0.0,0.0,0.0,0.0,0.0,0.0,0.0,0.0,0.0,0.0,0.0,0.0,0.0,0.0,0.0,0.0,0.0,0.0,0.0,0.0,0.0,0.0,0.0,0.0,0.0,0.0,0.0,0.0,0.0,0.0,0.0,0.0,0.0,0.0,0.0,0.0,0.0,-1.2637,-1.2324,-1.2101,-1.2101,-1.2101,-1.2101,-1.2101,-1.2101,-1.2191,-1.241,0.0,0.0,0.0,0.0,0.0,0.0,0.0,0.0,0.0,0.0,0.0,0.0,0.0,0.0,0.0,0.0,0.0,0.0,0.0,0.0,0.0,0.0,0.0,0.0,0.0,0.0,0.0,0.0,0.0,0.0,0.0,0.0,0.0,0.0,0.0,0.0,0.0,0.0,0.0,0.0,0.0,0.0,0.0,0.0,0.0,0.0,0.0,0.0,0.0,0.0,0.0,0.0,0.0,0.0,0.0,0.0,0.0,0.0,0.0,0.0,0.0,0.0,0.0,0.0,0.0,0.0,0.0,0.0,0.0,0.0,0.0,0.0,0.0,0.0,0.0,0.0,0.0,0.0,0.0,0.0,0.0,0.0,0.0,0.0,0.0,0.0,0.0,0.0,0.0,0.0,0.0,0.0,0.0,0.0,0.0,0.0,0.0,0.0,0.0,0.0,0.0,0.0,-1.2946,-1.245,-1.2101,-1.2101,-1.2101,-1.2101,-1.2101,-1.2101,-1.2191,-1.2437,0.0,0.0,0.0,0.0,0.0,0.0,0.0,0.0,0.0,0.0,0.0,0.0,0.0,0.0,0.0,0.0,0.0,0.0,0.0,0.0,0.0,0.0,0.0,0.0,0.0,0.0,0.0,0.0,0.0,0.0,0.0,0.0,0.0,0.0,0.0,0.0,0.0,0.0,0.0,0.0,0.0,0.0,0.0,0.0,0.0,0.0,0.0,0.0,0.0,0.0,0.0,0.0,0.0,0.0,0.0,0.0,0.0,0.0,0.0,0.0,0.0,0.0,0.0,0.0,0.0,0.0,0.0,0.0,0.0,0.0,0.0,0.0,0.0,0.0,0.0,0.0,0.0,0.0,0.0,0.0,0.0,0.0,0.0,0.0,0.0,0.0,0.0,0.0,0.0,0.0,0.0,0.0,0.0,0.0,0.0,0.0,0.0,0.0,0.0,0.0,0.0,0.0,-1.3296,-1.2606,-1.2101,-1.2101,-1.2101,-1.2101,-1.2101,-1.2101,-1.22,-1.2419,0.0,0.0,0.0,0.0,0.0,0.0,0.0,0.0,0.0,0.0,0.0,0.0,0.0,0.0,0.0,0.0,0.0,0.0,0.0,0.0,0.0,0.0,0.0,0.0,0.0,0.0,0.0,0.0,0.0,0.0,0.0,0.0,0.0,0.0,0.0,0.0,0.0,0.0,0.0,0.0,0.0,0.0,0.0,0.0,0.0,0.0,0.0,0.0,0.0,0.0,0.0,0.0,0.0,0.0,0.0,0.0,0.0,0.0,0.0,0.0,-1.3807,0.0,0.0,0.0,0.0,0.0,0.0,0.0,0.0,0.0,0.0,0.0,0.0,0.0,0.0,0.0,0.0,0.0,0.0,0.0,0.0,0.0,0.0,0.0,0.0,0.0,0.0,0.0,0.0,0.0,0.0,0.0,0.0,0.0,0.0,0.0,0.0,0.0,0.0,0.0,0.0,0.0,-1.3296,-1.2606,-1.2101,-1.2101,-1.2101,-1.2101,-1.2101,-1.2101,-1.225,-1.2619,-1.2637,0.0,0.0,0.0,0.0,0.0,0.0,0.0,0.0,0.0,0.0,0.0,0.0,0.0,0.0,0.0,0.0,0.0,0.0,0.0,0.0,0.0,0.0,0.0,0.0,0.0,0.0,0.0,0.0,0.0,0.0,0.0,0.0,0.0,0.0,0.0,0.0,0.0,0.0,0.0,0.0,0.0,0.0,0.0,0.0,0.0,0.0,0.0,0.0,0.0,0.0,0.0,0.0,0.0,0.0,0.0,0.0,0.0,0.0,0.0,0.0,-1.4279,0.0,0.0,0.0,0.0,0.0,0.0,0.0,0.0,0.0,0.0,0.0,0.0,0.0,0.0,0.0,0.0,0.0,0.0,0.0,0.0,0.0,0.0,0.0,0.0,0.0,0.0,0.0,0.0,0.0,0.0,0.0,0.0,0.0,0.0,0.0,0.0,0.0,0.0,0.0,0.0,-1.3855,-1.302,-1.2386,-1.2386,-1.2211,-1.2101,-1.2101,-1.2101,-1.2183,-1.2395,-1.2588,0.0,0.0,0.0,0.0,0.0,0.0,0.0,0.0,0.0,0.0,0.0,0.0,0.0,0.0,0.0,0.0,0.0,0.0,0.0,0.0,0.0,0.0,0.0,0.0,0.0,0.0,0.0,0.0,0.0,0.0,0.0,0.0,0.0,0.0,0.0,0.0,0.0,0.0,0.0,0.0,0.0,0.0,0.0,0.0,0.0,0.0,0.0,0.0,0.0,0.0,0.0,0.0,0.0,-1.6358,-1.6759,-1.7145,-1.7145,-1.7145,-1.7072,-1.5634,-1.5062,-1.5098,0.0,0.0,0.0,0.0,0.0,0.0,0.0,0.0,0.0,0.0,0.0,0.0,0.0,0.0,0.0,0.0,0.0,0.0,0.0,0.0,0.0,0.0,0.0,0.0,0.0,-1.4626,-1.4687,0.0,0.0,0.0,0.0,0.0,0.0,0.0,0.0,0.0,0.0,0.0,0.0,-1.4368,-1.3451,-1.2799,-1.2799,-1.2505,-1.2285,-1.2211,-1.2202,-1.2174,-1.2101,-1.2404,-1.2529,0.0,0.0,0.0,0.0,0.0,0.0,0.0,0.0,0.0,0.0,0.0,0.0,0.0,0.0,0.0,0.0,0.0,0.0,0.0,0.0,0.0,0.0,0.0,0.0,0.0,0.0,0.0,0.0,0.0,0.0,0.0,0.0,-1.1118,-1.1876,0.0,0.0,0.0,0.0,0.0,0.0,0.0,0.0,0.0,0.0,0.0,0.0,0.0,-1.5652,-1.6074,-1.6468,-1.6862,-1.7257,-1.7418,-1.773,-1.811,-1.811,-1.811,-1.8082,-1.742,0.0,-1.5569,-1.5197,0.0,0.0,0.0,0.0,0.0,0.0,0.0,0.0,0.0,0.0,0.0,0.0,0.0,0.0,0.0,0.0,0.0,0.0,0.0,0.0,0.0,0.0,-1.5113,-1.5437,-1.5533,-1.5533,0.0,-1.4961,-1.4417,-1.4417,-1.4417,0.0,0.0,0.0,0.0,0.0,0.0,0.0,-1.403,-1.3553,-1.3213,-1.3213,-1.3158,-1.301,-1.2643,-1.2606,-1.2468,-1.2119,-1.2147,-1.2312,-1.2623,-1.3092,0.0,0.0,0.0,0.0,0.0,0.0,0.0,0.0,0.0,0.0,0.0,0.0,0.0,0.0,0.0,0.0,0.0,0.0,0.0,0.0,0.0,0.0,0.0,0.0,0.0,0.0,0.0,0.0,0.0,-1.1134,-1.1846,-1.218,-1.2595,-1.2693,0.0,0.0,0.0,0.0,0.0,0.0,0.0,0.0,0.0,-1.6247,-1.6556,-1.6908,-1.7294,-1.7724,-1.8119,-1.8513,-1.879,-1.915,-1.9537,-1.9537,-1.9537,-1.951,-1.9036,-1.8302,-1.7303,-1.623,-1.5643,-1.5414,0.0,0.0,0.0,0.0,-1.5927,-1.612,-1.6175,-1.6193,0.0,0.0,0.0,0.0,0.0,0.0,0.0,0.0,0.0,0.0,0.0,0.0,0.0,-1.6352,-1.6367,-1.6312,-1.6092,-1.5771,-1.5386,0.0,-1.4845,-1.4827,-1.4781,0.0,0.0,0.0,0.0,-1.4524,-1.4561,-1.4039,-1.3626,-1.3626,-1.3424,-1.3222,-1.3056,-1.3047,-1.3,-1.2878,-1.2894,-1.3047,-1.3436,-1.3816,-1.4063,0.0,0.0,0.0,0.0,0.0,0.0,0.0,0.0,0.0,0.0,0.0,0.0,0.0,0.0,0.0,0.0,0.0,0.0,0.0,0.0,0.0,0.0,0.0,0.0,0.0,0.0,0.0,0.0,-1.2154,-1.2766,-1.2621,-1.3489,-1.3741,0.0,0.0,0.0,0.0,0.0,0.0,-1.5858,-1.6208,-1.679,-1.7624,-1.7944,-1.8265,-1.8548,-1.9081,-1.9476,-1.9769,-2.0149,-2.0561,-2.0979,-2.0979,-2.0979,-2.0909,-2.0448,-1.9888,-1.9191,-1.7486,-1.6532,-1.612,-1.5826,-1.578,-1.5945,-1.6526,-1.6963,-1.7266,-1.7559,-1.766,-1.7513,-1.6606,0.0,-1.6184,-1.5487,0.0,0.0,0.0,0.0,-1.6854,-1.6962,-1.7134,-1.7243,-1.723,-1.722,-1.7138,-1.6844,-1.6697,-1.6349,0.0,-1.5249,-1.5157,-1.4864,0.0,0.0,0.0,0.0,-1.4735,-1.4928,-1.4423,-1.4047,-1.4047,-1.3782,-1.3561,-1.3451,-1.3442,-1.3461,-1.3441,-1.3459,-1.3568,-1.3855,-1.4257,-1.442,-1.4327,0.0,0.0,0.0,0.0,0.0,0.0,0.0,0.0,0.0,0.0,0.0,0.0,0.0,0.0,0.0,0.0,0.0,0.0,0.0,0.0,0.0,0.0,0.0,0.0,0.0,0.0,0.0,0.0,0.0,-1.3475,-1.4947,0.0,0.0,0.0,0.0,-1.6217,-1.6296,-1.6723,-1.7695,-1.7415,-1.7651,-1.8594,-1.9363,-1.9774,-1.9802,-2.0604,-2.0998,-2.1016,-2.1403,-2.1806,-2.219,-2.219,-2.219,-2.219,-2.1392,-2.1025,-2.0833,-1.8852,-1.7779,-1.7403,-1.7385,-1.7614,-1.7935,-1.7981,-1.8008,-1.8027,-1.8045,-1.8054,-1.8045,-1.799,-1.7962,-1.788,-1.7477,-1.7642,0.0,0.0,-1.7725,-1.7559,-1.7926,-1.7743,-1.7587,-1.7935,-1.8027,-1.8017,-1.7999,-1.7715,-1.7082,0.0,-1.5661,-1.5652,-1.5634,0.0,-1.5505,-1.5157,-1.5084,-1.4946,-1.4588,-1.4476,-1.4478,-1.4478,-1.446,-1.4286,-1.3882,-1.3883,-1.3718,-1.3314,-1.3323,-1.3377,-1.3513,-1.3895,-1.4204,-1.4393,-1.4917,0.0,0.0,0.0,0.0,0.0,0.0,0.0,0.0,0.0,0.0,0.0,0.0,0.0,0.0,0.0,0.0,0.0,0.0,0.0,0.0,0.0,0.0,0.0,0.0,0.0,0.0,0.0,0.0,-1.4004,-1.5602,0.0,-1.6254,-1.6786,-1.7198,-1.7342,-1.7696,-1.827,-1.9119,-1.9314,-1.9861,-2.0955,-2.1275,-2.1431,-2.1431,-2.175,-2.1887,-2.1887,-2.1998,-2.2291,-2.2684,-2.2684,-2.2684,-2.2666,-2.2373,-2.1952,-2.1412,-2.0698,-1.9555,-1.8275,-1.8275,-1.8219,-1.8145,-1.8696,-1.9054,-1.9289,-1.9536,-1.9628,-1.9577,-1.9054,-1.854,-1.8109,-1.8247,-1.8385,-1.8559,-1.8806,-1.8971,-1.9036,-1.8916,-1.8971,-1.9036,-1.8907,-1.888,-1.8815,-1.8559,-1.8385,-1.7999,-1.7037,-1.6441,-1.601,-1.5735,-1.5689,-1.5643,-1.5505,-1.5478,-1.5423,-1.5285,-1.5047,-1.4891,-1.4891,-1.4662,-1.4451,-1.4304,-1.4286,-1.4251,-1.4201,-1.4201,-1.4287,-1.4468,-1.4706,-1.4811,-1.4791,-1.5148,-1.539,0.0,0.0,0.0,0.0,0.0,0.0,0.0,0.0,0.0,0.0,0.0,0.0,0.0,0.0,0.0,0.0,0.0,0.0,0.0,0.0,0.0,0.0,0.0,0.0,0.0,0.0,-1.4253,-1.4381,-1.642,-1.7723,-1.7414,-1.8367,-1.9034,-1.917,-1.9505,-2.0049,-2.0863,-2.1019,-2.1557,-2.2465,-2.262,-2.2629,-2.2492,-2.262,-2.262,-2.2492,-2.2629,-2.284,-2.3105,-2.3105,-2.3105,-2.3096,-2.2968,-2.2519,-2.1888,-2.1888,-2.0979,-1.9503,-1.9375,-1.9125,-1.8978,-1.9668,-2.009,-2.0342,-2.0787,-2.0842,-2.0622,-2.009,-1.9467,-1.8942,-1.9246,-1.932,-1.9402,-1.9797,-2.0017,-2.0058,-1.9943,-2.0017,-2.0021,-1.9778,-1.9714,-1.9604,-1.917,-1.9008,-1.8715,-1.8036,-1.7266,-1.6541,-1.5991,-1.59,-1.59,-1.59,-1.578,-1.5744,-1.5881,-1.5551,-1.5294,-1.5294,-1.4946,-1.4708,-1.4708,-1.4609,-1.4586,-1.4636,-1.4656,-1.4745,-1.4872,-1.5192,-1.5298,-1.5268,-1.5516,-1.5644,-1.567,0.0,0.0,0.0,0.0,0.0,0.0,0.0,0.0,0.0,0.0,0.0,0.0,0.0,0.0,0.0,0.0,0.0,0.0,0.0,0.0,0.0,0.0,0.0,-1.2402,-1.4035,-1.505,-1.4722,-1.7536,-1.9112,-1.817,-1.9961,-2.1293,-2.1651,-2.1733,-2.208,-2.2885,-2.2538,-2.251,-2.2931,-2.3316,-2.3325,-2.2931,-2.3306,-2.3297,-2.2931,-2.3316,-2.3499,-2.3508,-2.3508,-2.3508,-2.3489,-2.3114,-2.2693,-2.23,-2.23,-2.1815,-2.1089,-2.0704,-2.0549,-2.0585,-2.0979,-2.1126,-2.1181,-2.1549,-2.1421,-2.1126,-2.1126,-2.0869,-2.0558,-2.0558,-2.0558,-2.064,-2.1016,-2.0851,-2.064,-2.1007,-2.0824,-2.0539,-2.0479,-2.0521,-2.0369,-1.9976,-1.9613,-1.9201,-1.8788,-1.8073,-1.7284,-1.6486,-1.6358,-1.6315,-1.6306,-1.5991,0.0,-1.6285,-1.5964,-1.5716,-1.5725,-1.5377,-1.5139,-1.5139,-1.4905,-1.4673,-1.4552,-1.4634,-1.4704,-1.4714,-1.5277,-1.5668,-1.5781,-1.6013,-1.5879,-1.542,0.0,0.0,0.0,0.0,0.0,0.0,0.0,0.0,0.0,0.0,0.0,0.0,0.0,0.0,0.0,0.0,0.0,0.0,0.0,0.0,0.0,-1.2385,-1.2954,-1.3101,-1.4221,-1.5448,-1.6459,-1.8435,-1.9595,-1.927,-2.1177,-2.2113,-2.1456,-2.2137,-2.2794,-2.3306,-2.3224,-2.34,-2.3813,-2.3932,-2.3785,-2.3334,-2.3444,-2.3444,-2.3334,-2.3444,-2.3703,-2.3987,-2.3987,-2.3987,-2.3978,-2.3868,-2.3428,-2.2739,-2.2739,-2.2254,-2.1504,-2.1403,-2.1174,-2.0998,-2.141,-2.1522,-2.1531,-2.165,-2.1623,-2.1522,-2.1522,-2.1449,-2.1357,-2.1357,-2.1357,-2.1376,-2.1485,-2.144,-2.1312,-2.1163,-2.1025,-2.0869,-2.0585,-2.0521,-2.0369,-1.9976,-1.9802,-1.9509,-1.8852,-1.8531,-1.8119,-1.7312,-1.7174,-1.7073,-1.6789,-1.6642,0.0,-1.6734,-1.6395,-1.6257,-1.6541,-1.6221,-1.5982,-1.5982,-1.5629,-1.5422,-1.5359,-1.5124,-1.5118,-1.5403,-1.5557,-1.5535,-1.5359,-1.6046,-1.6328,0.0,0.0,0.0,0.0,0.0,0.0,0.0,0.0,0.0,0.0,0.0,0.0,0.0,0.0,0.0,0.0,0.0,0.0,0.0,0.0,0.0,0.0,-1.316,-1.3836,-1.4532,-1.5167,-1.5953,-1.7113,-1.8597,-1.951,-1.9468,-2.1065,-2.1965,-2.1818,-2.1965,-2.2558,-2.3736,-2.3345,-2.3404,-2.4192,-2.4202,-2.4082,-2.3804,-2.3794,-2.3794,-2.3794,-2.3794,-2.3923,-2.4202,-2.4202,-2.4202,0.0,-2.4202,-2.3794,-2.3142,-2.2977,-2.2519,0.0,0.0,0.0,0.0,0.0,-2.1696,-2.1696,-2.1696,-2.1696,-2.1696,-2.1696,-2.1696,-2.1696,-2.1696,-2.1696,-2.1696,-2.1696,-2.1696,-2.1632,-2.1385,-2.1374,-2.131,-2.1046,-2.0982,-2.0872,-2.047,-2.0378,-2.014,-1.9344,0.0,0.0,-1.8146,-1.7871,-1.7678,-1.7449,-1.7266,-1.7156,-1.7156,-1.6807,-1.6652,-1.6881,-1.6551,-1.6288,-1.6288,-1.5969,0.0,0.0,0.0,-1.5619,-1.6058,-1.6047,0.0,0.0,0.0,-1.6712,-1.657,0.0,0.0,0.0,-1.7068,-1.7493,0.0,0.0,0.0,0.0,0.0,0.0,0.0,0.0,0.0,0.0,0.0,0.0,0.0,0.0,0.0,0.0,-1.4075,-1.4796,-1.6181,-1.6413,-1.6703,-1.7192,-1.8396,-1.9176,-1.902,-2.0158,-2.1242,-2.2064,-2.1385,-2.1843,-2.3904,0.0,0.0,0.0,0.0,-2.4202,-2.4202,-2.4202,-2.4202,-2.4202,-2.4202,-2.4202,-2.4202,-2.4202,-2.4202,-2.4202,-2.4202,-2.3923,-2.3462,-2.3068,-2.2638,-2.2181,-2.1833,-2.1696,-2.1696,-2.1696,-2.1696,-2.1696,-2.1696,0.0,0.0,-2.1696,-2.1696,-2.1696,-2.1696,-2.1696,-2.1696,-2.1696,-2.1696,-2.1696,-2.1696,-2.1696,-2.1696,-2.1696,-2.1696,-2.1577,-2.12,-2.1071,-2.0824,-2.0031,-1.9847,-1.9591,-1.8907,-1.8411,-1.8136,-1.8091,-1.777,-1.7495,-1.7495,-1.7156,-1.6927,-1.6972,0.0,0.0,-1.645,-1.6163,-1.5956,-1.5826,-1.5956,-1.6202,-1.6551,-1.6641,-1.6755,-1.6958,-1.7029,-1.694,-1.6679,-1.6679,-1.6711,-1.6743,-1.7323,-1.7743,0.0,0.0,0.0,0.0,0.0,0.0,0.0,0.0,0.0,0.0,0.0,0.0,0.0,0.0,0.0,-1.4186,-1.519,-1.6032,-1.6547,-1.7248,-1.7655,-1.7515,-1.8523,-1.8871,-1.7996,-1.9702,-2.0621,-1.9901,-2.0716,-2.1696,-2.2745,-2.2869,-2.3302,-2.4161,-2.4202,-2.4202,-2.4202,-2.4202,-2.4202,-2.4202,0.0,0.0,-2.4202,-2.4202,-2.4202,-2.4202,-2.4202,-2.3923,-2.3462,-2.3068,-2.2474,-2.1797,-2.1723,-2.1696,-2.1696,-2.1696,-2.1696,-2.1696,-2.1696,-2.1696,-2.1696,-2.1696,-2.1696,-2.1696,-2.1696,-2.1696,0.0,-2.1696,-2.1696,-2.1696,-2.1696,-2.1696,-2.1696,-2.1696,-2.1696,-2.1577,-2.12,-2.086,-2.0451,-1.9976,-1.9659,-1.9375,-1.9219,-1.8861,-1.8457,-1.8136,-1.777,-1.7495,-1.7495,-1.7156,-1.7027,-1.7348,-1.7312,-1.7266,-1.7266,-1.6934,-1.6704,-1.667,-1.6704,-1.6652,-1.6527,-1.6868,-1.6771,-1.6141,-1.6492,-1.6665,-1.6614,-1.6614,-1.6746,-1.7031,-1.7431,-1.7947,0.0,0.0,0.0,0.0,0.0,0.0,0.0,0.0,0.0,0.0,0.0,-1.2305,-1.2819,0.0,-1.4382,-1.541,-1.5863,-1.6413,-1.7455,-1.7722,-1.7816,-1.7816,-1.8419,-1.856,-1.7883,-1.8953,-1.9606,-1.9484,-1.957,-2.0332,-2.1827,-2.1398,-2.1523,-2.2526,-2.2568,-2.2568,-2.2568,-2.2568,-2.2568,-2.2568,-2.2568,-2.2568,-2.2568,-2.3079,-2.3338,-2.3388,-2.3954,-2.4082,-2.3804,-2.3151,-2.2428,-2.1696,-2.1696,-2.1696,-2.1696,-2.1696,-2.1696,-2.1696,-2.1696,-2.1696,-2.1696,-2.1696,-2.1696,-2.1696,-2.1696,-2.1696,-2.1696,-2.1696,-2.1696,-2.1696,-2.1696,-2.1696,-2.1696,-2.1696,-2.1696,-2.1632,-2.1421,-2.122,-2.09,-2.0296,-2.0053,-1.9778,-1.9366,-1.9136,-1.8871,-1.8476,-1.8073,-1.7734,-1.7523,-1.7156,-1.6982,-1.7183,-1.7202,-1.7202,-1.7202,-1.7018,-1.6908,-1.6908,-1.6908,-1.6842,-1.6708,-1.6927,-1.698,-1.6844,-1.6868,-1.7039,-1.7358,-1.715,-1.7172,-1.7398,-1.7819,-1.8009,0.0,0.0,0.0,0.0,0.0,0.0,0.0,-1.1268,-1.1536,-1.2018,-1.2716,-1.3419,-1.3932,-1.4514,-1.5358,-1.6572,-1.655,-1.6807,-1.813,-1.7996,-1.7829,-1.7969,-1.831,-1.837,-1.8022,-1.8263,-1.8673,-1.932,-1.8515,-1.8884,-2.0868,-1.9934,-1.9792,-2.0929,-2.0917,-2.0917,-2.098,-2.0917,-2.0885,-2.0885,-2.0885,-2.0885,-2.0936,-2.181,-2.2173,-2.2274,-2.3388,-2.385,-2.3722,-2.3158,-2.2474,-2.1797,-2.1723,-2.1696,-2.1696,-2.1696,-2.1696,-2.1696,-2.1696,-2.1696,-2.1696,-2.1696,-2.1696,-2.1696,-2.1696,-2.1696,-2.1696,-2.1696,-2.1651,-2.1651,-2.1651,-2.1597,-2.1597,-2.1651,-2.1651,-2.1651,-2.1696,-2.1632,-2.1376,-2.0759,-2.0525,-2.031,-1.965,-1.9476,-1.9292,-1.8889,-1.8457,-1.8054,-1.7669,-1.7266,-1.6991,-1.6917,-1.6908,-1.6908,-1.6908,-1.6908,-1.6908,-1.6908,-1.6908,-1.6908,-1.6908,-1.6908,-1.7134,-1.7608,-1.7309,-1.7369,-1.7882,-1.7527,-1.7495,-1.7691,-1.8056,-1.8027,-0.6552,-0.7569,-0.8924,-1.0574,-1.1021,-1.1317,0.0,-1.2506,-1.265,-1.3102,-1.3676,-1.4284,-1.5074,-1.5891,-1.6616,-1.707,-1.7736,-1.807,-1.7729,-1.809,-1.8303,-1.8015,-1.831,-1.837,-1.8022,-1.8022,-1.8083,-1.8205,-1.8043,-1.8569,-1.9817,-1.9735,-2.0129,-2.1233,-2.1044,-2.1028,-2.1233,-2.1036,-2.0885,-2.0885,-2.0885,-2.0885,-2.0885,-2.1038,-2.1089,-2.114,-2.2215,-2.2479,-2.2224,-2.2697,-2.2638,-2.2181,-2.1833,-2.1696,-2.1696,-2.1696,-2.1696,-2.1696,-2.1696,-2.1696,-2.1696,-2.1696,-2.1696,-2.1696,-2.1696,-2.1696,-2.1696,-2.1696,-2.1571,-2.1437,-2.1437,-2.1239,-2.1141,-2.1392,-2.1437,-2.1482,-2.1651,-2.1403,-2.1145,-2.1062,-2.0759,-2.0451,-2.0393,-2.0049,-1.9683,-1.9301,-1.8898,-1.8504,-1.8063,-1.7688,-1.7293,-1.6945,-1.6908,-1.6908,-1.6908,-1.6908,-1.6908,-1.6908,-1.6908,-1.6908,-1.6908,-1.6908,-1.6927,-1.7007,-1.6961,-1.6961,-1.7042,-1.6996,-1.7151,-1.7539,-1.7586,-1.8052,-0.7205,-0.8408,-0.9675,-1.0803,-1.1703,-1.2439,-1.3043,-1.3296,-1.3525,-1.4054,-1.4716,-1.522,-1.5438,-1.6145,-1.686,-1.736,-1.7589,-1.7862,-1.8303,-1.829,-1.8135,-1.8009,-1.831,-1.837,-1.8022,-1.8302,-1.8484,-1.8317,-1.8303,-1.859,-1.9188,-1.8917,-1.8938,-1.9359,-1.9463,-1.9369,-1.917,-1.9182,-1.9117,-1.8975,-1.8975,-1.8975,-1.8975,-1.9642,-2.0261,-2.0936,-2.1344,-2.1335,-2.1032,-2.1976,-2.2074,-2.1734,-2.1952,-2.2034,-2.2007,-2.1778,-2.1696,-2.1696,-2.1696,-2.1696,-2.1696,-2.1696,-2.1696,-2.1696,-2.1696,-2.1696,-2.1696,-2.1696,-2.1571,-2.1392,-2.1392,-2.1195,-2.1042,-2.1141,-2.115,-2.1186,-2.1275,-2.1283,-2.119,-2.0989,-2.0893,-2.0787,-2.0558,-2.0149,-1.9829,-1.9655,-1.9118,-1.8568,-1.8136,-1.7761,-1.7431,-1.7266,-1.7248,-1.7348,-1.7596,-1.7614,-1.7614,-1.7614,-1.7614,-1.7504,-1.7257,-1.7248,-1.7248,-1.7248,-1.7027,-1.7018,-1.7248,-1.7018,-1.7047,-1.7323,-1.7672,-1.7991,-0.804,-0.9141,-1.0194,-1.1268,-1.2451,-1.3387,-1.358,-1.3942,-1.4346,-1.4745,-1.5344,-1.5765,-1.5609,-1.63,-1.6948,-1.7325,-1.7455,-1.7789,-1.8459,-1.8189,-1.7862,-1.7862,-1.7963,-1.7976,-1.7923,-1.8322,-1.8597,-1.8384,-1.837,-1.8497,-1.8791,-1.8397,-1.8149,-1.8229,-1.8417,-1.8317,-1.7956,-1.8096,-1.8016,-1.7709,-1.7709,-1.7662,-1.7635,-1.8408,-1.9235,-2.0012,-2.0313,-2.0268,-2.0078,-2.1032,-2.1236,-2.0912,-2.1311,-2.1389,-2.129,-2.0915,-2.114,-2.1607,-2.1696,-2.1651,-2.1607,-2.1696,-2.1696,-2.1696,-2.1651,-2.1607,-2.1607,-2.1508,-2.1383,-2.1212,-2.1212,-2.1015,-2.0817,-2.0907,-2.0916,-2.0907,-2.0997,-2.1141,-2.1203,-2.0907,-2.1029,-2.1112,-2.0777,-2.0387,-2.0049,-2.0049,-1.9393,-1.8733,-1.8339,-1.7926,-1.7623,-1.7504,-1.7596,-1.7789,-1.8063,-1.8091,-1.8091,-1.8091,-1.8091,-1.799,-1.7688,-1.7669,-1.7614,-1.7495,-1.7211,-1.7156,-1.733,-1.7046,-1.7003,-1.721,-1.7659,-1.777,-0.8936,-0.9563,-1.0264,-1.2164,-1.3272,-1.3882,-1.3894,-1.4503,-1.5077,-1.5089,-1.5312,-1.5603,-1.5817,-1.6615,-1.7102,-1.6859,-1.7757,-1.8247,-1.7716,-1.7629,-1.7595,-1.7595,-1.7101,-1.6981,0.0,-1.7883,-1.8015,-1.8009,-1.8009,-1.8135,-1.8484,-1.8484,-1.8604,-1.8885,-1.8631,-1.8617,-1.8878,-1.8611,-1.833,-1.7975,-1.7975,-1.7876,-1.7582,-1.7635,-1.7687,-1.7733,-1.8819,-1.922,-1.9295,-2.0027,-2.0129,-1.9833,-1.945,-1.9164,-1.8867,-1.8588,-1.9726,-2.1446,-2.1607,-2.1571,-2.1437,-2.1651,-2.1696,-2.1651,-2.1482,-2.1392,-2.1347,-2.1087,-2.0871,-2.0699,-2.0699,-2.0518,-2.0382,-2.0654,-2.0699,-2.0736,-2.0952,-2.0997,-2.0988,-2.0979,-2.1221,-2.1374,-2.1365,-2.0871,-2.0461,-2.0461,-1.9806,-1.9146,-1.8742,-1.831,-1.7944,-1.7541,-1.7862,-1.8072,-1.8091,-1.8091,-1.8091,-1.8091,-1.8091,-1.8081,-1.8063,-1.8063,-1.7917,-1.7504,-1.7486,-1.7293,-1.6927,-1.6908,-1.7003,-1.7201,-1.721,-1.7323,-0.9106,-1.0161,-1.1144,-1.2815,-1.3978,-1.4745,-1.4926,-1.5034,-1.5155,-1.533,-1.5161,-1.498,-1.5087,-1.5325,-1.572,-1.6179,-1.673,-1.7213,-1.7531,-1.7609,-1.7456,-1.7062,-1.7042,0.0,0.0,0.0,0.0,-1.831,-1.8343,-1.8557,-1.9045,-1.8885,-1.8824,-1.8918,-1.9025,-1.8811,-1.8289,-1.8253,-1.8043,-1.7669,-1.7483,-1.7231,-1.6995,-1.6995,-1.6995,-1.6995,-1.7358,-1.7562,-1.7608,-1.8631,-1.8949,-1.8913,-1.9232,-1.9296,-1.9151,-1.8784,-1.8891,-1.9293,-1.9987,-2.0637,-2.1141,-2.1221,-2.123,-2.123,-2.1141,-2.1141,-2.1141,-2.1042,-2.0871,-2.0699,-2.0699,-2.0518,-2.0337,-2.0428,-2.0428,-2.0473,-2.051,-2.069,-2.0781,-2.0781,-2.1114,-2.1392,-2.1392,-2.1107,-2.0732,-2.0168,-1.9439,-1.8861,-1.8733,-1.8329,-1.8164,-1.8293,-1.843,-1.8623,-1.888,-1.8907,-1.8907,-1.8907,-1.8907,-1.8788,-1.8522,-1.8513,-1.8192,-1.7513,-1.7495,-1.7303,-1.6908,-1.6908,-1.6943,-1.7003,-1.7132,-1.7245,-0.971,-1.078,-1.1708,-1.3579,-1.4666,-1.524,-1.5228,-1.5161,-1.5101,-1.5077,-1.4805,-1.4539,-1.4443,-1.4472,-1.4719,-1.519,-1.5655,-1.621,-1.6931,-1.7029,-1.697,-1.6892,-1.6866,-1.6827,0.0,0.0,0.0,-1.8136,-1.837,-1.8657,-1.9038,-1.9072,-1.9021,-1.89,-1.9085,-1.8884,-1.8164,-1.8164,-1.7954,-1.7533,-1.7247,-1.6962,-1.6677,-1.6677,-1.6677,-1.6677,-1.6677,-1.6677,-1.6783,-1.7509,-1.772,-1.7699,-1.8105,-1.8226,-1.8133,-1.7729,-1.7655,-1.782,-1.8801,-1.9437,-1.9832,-1.9877,-2.0167,-2.0439,-2.0393,-2.0628,-2.0862,-2.0781,-2.0645,-2.0564,-2.0564,-2.0428,-2.0292,-2.0292,-2.0292,-2.0292,-2.0292,-2.0428,-2.0564,-2.0564,-2.0925,-2.1248,-2.1248,-2.1172,-2.0842,-2.0003,-1.9445,-1.8996,-1.8751,-1.8614,-1.8586,-1.8705,-1.8843,-1.9026,-1.9283,-1.9301,-1.9301,-1.9301,-1.9301,-1.9191,-1.8935,-1.8916,-1.8605,-1.7944,-1.7789,-1.7523,-1.711,-1.6972,-1.6908,-1.6908,-1.7038,-1.7107,-1.0728,-1.1362,-1.1935,-1.4424,-1.5158,-1.5211,-1.4766,-1.4813,-1.4819,-1.4352,-1.4214,-1.4112,-1.3865,-1.4009,-1.4121,-1.3965,-1.4669,-1.5432,-1.5978,-1.6017,-1.6273,-1.7081,-1.6696,-1.643,-1.6696,-1.6721,0.0,-1.7596,0.0,-1.8468,-1.8502,-1.9041,-1.9224,-1.89,-1.89,-1.8719,-1.8363,-1.8357,-1.8078,-1.7514,-1.7205,-1.6927,-1.6677,-1.6677,-1.6677,-1.6677,-1.6677,-1.6677,-1.6677,-1.6677,-1.6524,-1.6271,-1.6271,-1.6105,-1.5861,-1.5608,-1.6122,-1.7041,-1.7931,-1.8015,-1.7723,-1.7917,-1.8611,-1.9347,-1.9155,-1.9758,-2.0464,-2.0201,-2.0209,-2.0272,-2.0246,-2.0263,-2.0317,-2.0292,-2.0292,-2.0292,-2.0292,-2.0292,-2.0292,-2.0292,-2.069,-2.0997,-2.0997,-2.1066,-2.0851,-2.0058,-1.9921,-1.96,-1.8843,-1.9072,-1.9155,-1.8779,-1.9072,-1.9301,-1.9301,-1.9301,-1.9301,-1.9301,-1.9301,-1.9301,-1.9301,-1.9301,-1.9118,-1.8715,-1.8348,-1.7944,-1.7523,-1.7156,-1.6972,-1.6972,-1.6972,-1.6972,-1.0745,-1.1069,-1.1261,-1.3559,-1.3593,-1.3236,-1.3855,-1.3657,-1.3378,-1.369,-1.3316,-1.2858,-1.2794,-1.2827,-1.315,-1.4058,-1.4914,-1.5761,-1.6412,-1.6869,-1.7169,-1.7156,-1.7012,-1.6899,-1.6968,-1.6974,0.0,0.0,-1.7986,-1.8313,-1.8725,-1.9086,-1.9116,-1.8845,-1.8845,-1.8572,-1.8083,-1.7837,-1.7346,-1.6606,-1.6753,-1.657,-1.6099,-1.6099,-1.6099,-1.6099,-1.6099,-1.6099,-1.6099,-1.6099,-1.6045,-1.5998,-1.5998,-1.5945,-1.5885,-1.5813,-1.582,-1.5936,-1.6145,-1.69,-1.7688,-1.7735,-1.7816,-1.7848,-1.7801,-1.794,-1.8133,-1.8087,-1.88,-1.9558,-1.9282,-1.9937,-2.0651,-2.036,-2.0292,-2.0292,-2.0292,-2.0292,-2.0292,-2.0292,-2.069,-2.1042,-2.1248,-2.1172,-2.1034,-2.0842,-2.0259,-1.9701,-1.9219,-1.9237,-1.9265,-1.9164,-1.9246,-1.9301,-1.9301,-1.9301,-1.9301,-1.9301,-1.9301,-1.9301,-1.9301,-1.9301,-1.9118,-1.8715,-1.8614,-1.8366,-1.7963,-1.7825,-1.7779,-1.7779,-1.7779,-1.7779,-1.0438,-1.0781,-1.0892,-1.2682,-1.2629,-1.2341,-1.2884,-1.2641,-1.2347,-1.2559,-1.226,-1.1908,-1.169,-1.1869,-1.2336,-1.319,-1.407,-1.5038,-1.6028,-1.6558,-1.6911,-1.7102,-1.7092,-1.704,-1.6924,-1.7126,-1.7379,0.0,-1.8013,-1.8377,-1.8809,-1.8921,-1.8873,-1.8602,-1.8489,-1.8227,-1.779,-1.7602,-1.7141,-1.6471,-1.6628,-1.6416,-1.5891,-1.5891,-1.5891,-1.5891,0.0,-1.5891,-1.5891,-1.5891,-1.5891,-1.5891,-1.5891,-1.5891,-1.5891,-1.5891,-1.5795,-1.5674,-1.5674,-1.6151,-1.6699,-1.6621,-1.667,-1.6804,-1.6804,-1.7037,-1.7296,-1.7296,-1.7851,-1.8434,-1.8187,-1.8753,-1.9283,-1.9028,-1.898,-1.9117,-1.9538,-1.9629,-1.982,-2.0382,-2.069,-2.0961,-2.1195,-2.1229,-2.1153,-2.1014,-2.0647,-2.0301,-1.9888,-1.9522,-1.9375,-1.9558,-1.9412,-1.9301,-1.9301,-1.9301,-1.9301,-1.9301,-1.9301,-1.9301,-1.9301,-1.9301,-1.9201,-1.8971,-1.8797,-1.8605,-1.8347,-1.8173,-1.8091,-1.8091,-1.8091,-1.8091,-1.0088,-1.0383,-1.0551,-1.1686,-1.1852,-1.1713,-1.1747,-1.1527,-1.1338,-1.1282,-1.1241,-1.1122,-1.0735,-1.1147,-1.1725,-1.2206,-1.3069,-1.4168,-1.5406,-1.5866,-1.6326,-1.7018,-1.7124,-1.7056,-1.6827,-1.7249,-1.7533,-1.7533,-1.8099,-1.8473,-1.875,-1.8763,-1.8671,-1.8315,-1.805,-1.7784,-1.7485,-1.7485,-1.7237,-1.6754,-1.6718,-1.6435,-1.594,-1.5903,-1.5891,-1.5891,0.0,0.0,-1.5891,-1.5891,-1.5891,-1.5891,-1.5891,-1.5891,-1.5891,-1.5891,-1.5891,-1.5891,-1.5891,-1.5741,-1.5511,-1.5246,-1.557,-1.6026,-1.6026,-1.6484,-1.6939,-1.6939,-1.708,-1.716,-1.7117,-1.7232,-1.7347,-1.7304,-1.7296,-1.7529,-1.8411,-1.8603,-1.8926,-2.0048,-2.0374,-2.0555,-2.0718,-2.1105,-2.1221,-2.0914,-2.098,-2.0964,-2.0671,-1.9971,-1.9604,-1.993,-1.9632,-1.9384,-1.9384,-1.9329,-1.9301,-1.9301,-1.9301,-1.9301,-1.9301,-1.9301,-1.9301,-1.9301,-1.8962,-1.8788,-1.8788,-1.8449,-1.8246,-1.8246,-1.8246,-1.8246,-1.0134,-0.983,-0.9413,-1.0506,-0.9882,-0.9203,-1.0156,-0.997,-0.9818,-1.0454,-1.039,-1.0285,-1.0356,-1.0942,-1.1849,-1.3117,-1.4184,-1.5134,-1.6005,-1.6592,-1.6969,-1.7061,-1.7289,-1.74,-1.7352,-1.7624,0.0,0.0,0.0,-1.8453,-1.8715,-1.8728,-1.8459,-1.8009,-1.7742,-1.7543,-1.7485,-1.7485,-1.7328,-1.702,-1.6803,-1.6531,-1.6205,-1.5988,-1.5891,-1.5891,-1.5891,0.0,-1.5891,-1.5891,-1.5891,-1.5891,-1.5891,-1.5891,-1.5891,-1.5891,-1.5891,-1.5891,-1.5891,-1.5861,-1.5777,-1.5517,-1.5354,-1.5287,-1.5287,-1.5245,-1.5175,-1.5175,-1.5846,-1.6498,-1.6143,-1.6933,-1.7728,-1.7362,-1.7296,-1.7343,-1.7529,-1.7576,-1.7623,-1.7855,-1.8734,-1.9476,-1.9521,-2.0393,-2.1123,-2.1248,-2.1039,-2.1,-2.1449,-2.0814,-2.0338,-2.0411,-2.0021,-1.9783,-1.9783,-1.9503,-1.9301,-1.9301,-1.9301,-1.9301,-1.9301,-1.9301,-1.9301,-1.9301,-1.9228,-1.9201,-1.9201,-1.9127,-1.91,-1.91,-1.91,-1.91,-0.9464,-0.9318,-0.8992,-0.9393,-0.8897,-0.847,-0.9017,-0.8792,-0.8665,-0.9391,-0.943,-0.9401,-0.9583,-1.0283,-1.1079,-1.1959,-1.3003,-1.4058,-1.5176,-1.5872,-1.649,-1.7053,-1.7359,-1.7533,-1.7672,-1.7931,-1.8094,-1.8094,0.0,-1.8553,-1.868,-1.8686,-1.8372,-1.769,-1.7678,-1.7618,-1.7485,-1.7485,-1.7352,-1.7092,-1.6966,-1.6688,-1.6278,-1.6163,-1.603,-1.5891,-1.5891,0.0,-1.5891,-1.5891,-1.5891,-1.5891,-1.5891,-1.5891,-1.5891,-1.5891,-1.5891,-1.5891,-1.5891,-1.5891,-1.5867,-1.5741,-1.5523,-1.5288,-1.5149,-1.4926,-1.469,-1.4539,-1.488,-1.5271,-1.5083,-1.553,-1.5979,-1.5784,-1.6123,-1.6499,-1.6499,-1.6922,-1.7296,-1.7296,-1.7801,-1.8365,-1.8926,-1.9613,-2.0257,-2.0925,-2.1087,-2.1211,-2.1499,-2.1313,-2.1028,-2.0851,-2.025,-1.9893,-1.9893,-1.954,-1.9301,-1.9301,-1.9301,-1.9301,-1.9301,-1.9301,-1.9301,-1.9301,-1.9301,-1.9301,-1.9301,-1.9301,-1.9301,-1.9301,-1.9301,-1.9301,-0.8808,-0.8858,-0.8811,-0.856,-0.835,-0.8272,-0.829,-0.8034,-0.7933,-0.8466,-0.8558,-0.8672,-0.8953,-0.9601,-1.0251,-1.0787,-1.1765,-1.2945,-1.4196,-1.5099,-1.6006,-1.6905,-1.7292,-1.7587,-1.7847,-1.8131,0.0,-1.8209,0.0,0.0,-1.8511,-1.8565,-1.8257,-1.7503,-1.7678,-1.769,-1.7485,-1.7485,-1.7376,-1.7171,-1.7062,-1.6815,-1.6447,-1.629,-1.6127,-1.597,-1.591,0.0,0.0,-1.5891,-1.5891,-1.5891,-1.5891,-1.5891,-1.5891,-1.5891,-1.5891,-1.5891,-1.5891,-1.5891,-1.5891,-1.5891,-1.5753,-1.5535,-1.527,-1.5046,-1.4829,-1.4552,-1.4431,-1.4389,-1.4389,-1.434,-1.4298,-1.4298,-1.4908,-1.5466,-1.5466,-1.6075,-1.664,-1.664,-1.6828,-1.725,-1.8041,-1.8688,-1.9384,-2.0229,-2.0925,-2.1347,-2.1392,-2.1562,-2.1568,-2.1273,-2.053,-2.0021,-2.0021,-1.9595,-1.9301,-1.9301,-1.9301,-1.9301,-1.9301,-1.9301,-1.9301,-1.9301,-1.9301,-1.9301,-1.9301,-1.9301,-1.9301,-1.9301,-1.9301,-1.9301,-0.8652,-0.8832,-0.8811,-0.856,-0.8269,-0.8038,-0.8033,-0.7812,-0.77,-0.8072,-0.8173,-0.8311,-0.8909,-0.925,-0.9884,-1.1147,-1.2177,-1.3202,-1.4154,-1.5416,-1.6356,-1.67,-1.7177,-1.7587,-1.7847,-1.8131,-1.8185,0.0,0.0,0.0,-1.795,-1.8191,-1.807,-1.7503,-1.7503,-1.7503,-1.7485,-1.7485,-1.7473,-1.7443,-1.6966,-1.6833,-1.699,-1.626,-1.6042,-1.6229,-1.5994,0.0,0.0,-1.5891,-1.5891,-1.5891,-1.5891,-1.5891,-1.5891,-1.5891,-1.5891,-1.5891,-1.5891,-1.5891,-1.5891,-1.5891,-1.5873,-1.5807,-1.5541,-1.5445,-1.5372,-1.5107,-1.4859,-1.4678,-1.4678,-1.4485,-1.4298,-1.4298,-1.4388,-1.4436,-1.4436,-1.4532,-1.458,-1.458,-1.5324,-1.5981,-1.6082,-1.7615,-1.8926,-1.9293,-2.0303,-2.1141,-2.1347,-2.1562,-2.1678,-2.1641,-2.0909,-2.0424,-2.0424,-1.9751,-1.9301,-1.9301,-1.9301,-1.9301,-1.9301,-1.9301,-1.9301,-1.9301,-1.9301,-1.9301,-1.9301,-1.9301,-1.9301,-1.9301,-1.9301,-1.9301,-0.8445,-0.8618,-0.8615,-0.8408,-0.823,-0.8079,-0.7929,-0.7772,-0.7694,-0.789,-0.7927,-0.8108,-0.8688,-0.8923,-0.9215,-0.9992,-1.0635,-1.139,-1.24,-1.3087,-1.4063,-1.5794,-1.6172,-1.6698,0.0,0.0,-1.8179,0.0,0.0,0.0,-1.7648,-1.8203,-1.8209,-1.7503,-1.7799,-1.7817,-1.7485,-1.7485,-1.7485,-1.7479,-1.7111,-1.6911,-1.6839,-1.6362,-1.6109,-1.6036,-1.5934,0.0,0.0,-1.5891,-1.5891,-1.5891,-1.5891,-1.5891,-1.5891,-1.5891,-1.5891,-1.5891,-1.5891,-1.5891,-1.5891,-1.5891,-1.5891,-1.5813,-1.539,-1.5372,-1.5378,-1.4787,-1.4781,-1.4877,-1.4552,-1.4383,-1.4298,-1.4298,-1.4298,-1.4298,-1.4298,-1.4298,-1.4298,-1.4298,-1.4627,-1.515,-1.5901,-1.6578,-1.7308,-1.8167,-1.9239,-1.9985,-2.0229,-2.1015,-2.1571,-2.1696,-2.1218,-2.0778,-2.0539,-1.9957,-1.9577,-1.932,-1.9301,-1.9301,-1.9301,-1.9301,-1.9301,-1.9301,-1.9301,-1.9301,-1.9301,-1.9558,-1.9677,-1.9677,-1.9677,-1.9806,-0.8085,-0.8319,-0.8394,-0.8347,-0.8194,-0.8036,-0.783,-0.7684,-0.7597,-0.7682,-0.7723,-0.7914,-0.8489,-0.8559,-0.866,-0.9183,-0.9651,-1.0234,-1.1124,-1.1731,-1.278,-1.4693,0.0,-1.5817,0.0,-1.7973,0.0,0.0,0.0,0.0,0.0,-1.8094,-1.8149,-1.7503,-1.7853,-1.7871,-1.7485,-1.7485,-1.7485,-1.7479,-1.7213,-1.6996,-1.6803,-1.6459,-1.6193,-1.6,0.0,0.0,0.0,-1.5891,-1.5891,-1.5891,-1.5891,-1.5891,-1.5891,-1.5891,-1.5891,-1.5891,-1.5891,-1.5891,-1.5891,-1.5891,-1.5891,-1.5795,-1.527,-1.5348,-1.5481,-1.4835,-1.4926,-1.5101,-1.4558,-1.4479,-1.4539,-1.4539,-1.4479,-1.4443,-1.4521,-1.4473,-1.4419,-1.4419,-1.4485,-1.4814,-1.5611,-1.5844,-1.6238,-1.7118,-1.8106,-1.8826,-1.8964,-2.0039,-2.088,-2.1051,-2.1112,-2.0994,-2.0525,-2.0113,-1.971,-1.9329,-1.9301,-1.9301,-1.9301,-1.9301,-1.9301,-1.9301,-1.9301,-1.9301,-1.9301,-1.9595,-1.9701,-1.9701,-1.9701,-1.9962,-0.7479,-0.7933,-0.8323,-0.8323,-0.8038,-0.7791,-0.7785,-0.7556,-0.7352,-0.748,-0.7522,-0.7672,-0.829,-0.8185,-0.8275,-0.9085,-0.9793,-1.0435,-1.0826,-1.2239,-1.3282,-1.3572,-1.4248,-1.5125,-1.6207,-1.7517,0.0,0.0,0.0,0.0,0.0,-1.7738,-1.7756,-1.7491,-1.7491,-1.7491,-1.7485,-1.7485,-1.7485,-1.7479,-1.7213,-1.7092,-1.7068,-1.6525,-1.6278,0.0,0.0,0.0,0.0,-1.5891,-1.5891,-1.5891,-1.5891,-1.5891,-1.5891,-1.5891,-1.5891,-1.5891,-1.5891,-1.5891,-1.5891,-1.5891,-1.5891,-1.5795,-1.527,-1.5475,-1.5831,-1.5559,-1.5487,-1.5372,-1.4847,-1.4908,-1.5101,-1.5101,-1.4902,-1.4781,-1.504,-1.4896,-1.4714,-1.4714,-1.492,-1.5016,-1.4763,-1.5539,-1.6211,-1.6211,-1.7075,-1.7701,-1.7701,-1.878,-1.953,-1.953,-2.0645,-2.1146,-2.0543,-2.0113,-1.971,-1.9329,-1.9301,-1.9301,-1.9301,-1.9301,-1.9301,-1.9301,-1.9301,-1.9301,-1.9301,-1.9301,-1.9311,-1.9311,-1.9311,-1.9531,-0.6613,-0.6927,-0.7145,-0.7247,-0.7259,-0.7268,-0.7232,-0.73,-0.7365,-0.7305,-0.7407,-0.7596,-0.7921,-0.798,-0.8154,-0.8708,-0.9175,-0.9643,-1.0075,-1.0938,-1.214,-1.3672,-1.5484,-1.6801,0.0,0.0,0.0,0.0,0.0,0.0,0.0,-1.7563,-1.7569,-1.7485,-1.7654,-1.7666,-1.7485,-1.7485,-1.7485,-1.7473,-1.7038,-1.6827,-1.6803,-1.626,0.0,0.0,0.0,0.0,0.0,-1.5891,-1.5891,-1.5891,-1.5891,-1.5891,-1.5891,-1.5891,-1.5891,-1.5891,-1.5891,-1.5891,-1.5891,-1.5891,-1.5891,-1.5825,-1.5481,-1.5614,-1.5831,-1.5572,-1.5366,-1.5191,-1.5028,-1.5046,-1.5107,-1.5107,-1.5046,-1.501,-1.5089,-1.504,-1.4986,-1.4986,-1.5052,-1.5137,-1.5234,-1.5348,-1.5426,-1.5426,-1.6159,-1.6648,-1.6655,-1.7608,-1.8311,-1.8449,-1.8826,-1.9512,-2.0625,-2.072,-2.0448,-1.9729,-1.9692,-1.9604,-1.9311,-1.9301,-1.9301,-1.9301,-1.9301,-1.9301,-1.9301,-1.9595,-1.9692,-1.9742,-2.0008,-2.0021,-0.5907,-0.6293,-0.6544,-0.6653,-0.6813,-0.6967,-0.6895,-0.7027,-0.7145,-0.7099,-0.7257,-0.7425,-0.7601,-0.7854,-0.8109,-0.8414,-0.882,-0.918,-0.9376,-1.001,0.0,-1.2578,0.0,0.0,0.0,0.0,0.0,0.0,0.0,0.0,0.0,-1.7485,-1.7485,-1.7485,-1.7642,-1.7648,-1.7485,-1.7485,-1.7436,-1.7334,-1.7002,-1.6742,-1.6531,-1.6193,0.0,0.0,0.0,0.0,0.0,-1.5891,-1.5891,-1.5891,-1.5891,-1.5891,-1.5891,-1.5891,-1.5891,-1.5891,-1.5891,-1.5891,-1.5891,-1.5891,-1.5759,-1.5602,-1.5638,-1.5692,-1.5704,-1.5547,-1.5451,-1.5384,-1.5282,-1.533,-1.5403,-1.5403,-1.5324,-1.5252,-1.5252,-1.5252,-1.5228,-1.5125,-1.527,-1.5421,-1.5487,-1.536,-1.5252,-1.5252,-1.5488,-1.5615,-1.5608,-1.6421,-1.7008,-1.7149,-1.7615,-1.8363,-1.9513,-2.0122,-2.0171,-1.965,-1.9938,-1.9994,-1.9769,-1.976,-1.976,-1.976,-1.976,-1.9687,-1.954,-1.9641,-1.9655,-1.9696,-1.9943,-1.9976,0.0,-0.5931,-0.6312,-0.6424,-0.6615,-0.6746,-0.6698,-0.6725,0.0,-0.6859,-0.7022,-0.7231,-0.7355,-0.7728,-0.8039,-0.8292,-0.8763,-0.9007,-0.8789,-0.9395,0.0,0.0,-1.2724,0.0,0.0,0.0,0.0,0.0,0.0,0.0,0.0,-1.7303,-1.7361,-1.7361,-1.742,-1.7485,-1.7485,-1.7461,-1.7334,-1.7092,-1.705,-1.6773,-1.6284,-1.626,0.0,0.0,0.0,0.0,0.0,-1.5891,-1.5891,-1.5891,-1.5891,-1.5891,-1.5891,-1.5891,-1.5891,-1.5891,-1.5891,-1.5891,-1.5891,-1.5891,-1.5523,-1.5185,-1.5722,-1.568,-1.5451,-1.5487,-1.5674,-1.5807,-1.5559,-1.5692,-1.5891,-1.5891,-1.5704,-1.5529,-1.5529,-1.5529,-1.5451,-1.5215,-1.5559,-1.5813,-1.5565,-1.5529,-1.5523,-1.5499,-1.5083,-1.4769,-1.4745,-1.5309,-1.5737,-1.5737,-1.6734,-1.7468,-1.7608,-1.8643,-1.9257,-1.9127,-2.0007,-2.0506,-2.0521,-2.0521,-2.0521,-2.0521,-2.0521,-2.0338,-1.993,-1.9577,-1.9375,-1.9347,-1.9347,-1.954,-0.4157,0.0,-0.5218,-0.5639,-0.5643,-0.5676,0.0,-0.6417,-0.6457,-0.6648,-0.683,-0.7072,-0.7355,-0.761,-0.7957,-0.8577,-0.8922,-0.9099,-0.9073,-1.0122,0.0,-1.2665,-1.3413,0.0,0.0,0.0,0.0,0.0,0.0,0.0,0.0,-1.551,-1.6048,-1.6048,-1.7003,-1.7485,-1.7485,-1.7286,-1.7153,-1.7086,-1.667,-1.641,-1.6296,-1.6079,0.0,0.0,0.0,0.0,-1.5891,-1.5891,-1.5891,-1.5891,-1.5891,-1.5891,-1.5891,-1.5891,-1.5891,-1.5891,-1.5891,-1.5891,-1.5891,-1.5891,-1.5403,-1.4944,-1.5674,-1.5427,-1.4986,-1.5384,-1.5547,-1.5578,-1.5517,-1.5692,-1.5891,-1.5891,-1.5843,-1.5801,-1.5801,-1.5801,-1.5777,-1.5716,-1.5807,-1.5867,-1.5807,-1.5801,-1.5728,-1.5529,-1.5396,-1.524,-1.504,-1.4979,-1.4955,-1.4955,-1.504,-1.5473,-1.6466,-1.8333,-1.942,-1.9266,-2.0183,-2.0671,-2.0488,-2.0521,-2.0521,-2.0521,-2.0521,-2.0466,-2.0383,-2.0283,-2.0081,-1.9747,-1.9747,-1.9619,-0.3387,-0.4124,-0.478,-0.5084,-0.5252,-0.5428,-0.5774,-0.5983,-0.6138,-0.6251,-0.6521,-0.6839,-0.7085,-0.7374,-0.7793,-0.84,-0.8643,-0.8819,-0.9091,0.0,-1.1354,-1.1664,-1.232,0.0,0.0,0.0,0.0,0.0,0.0,0.0,0.0,-1.4321,-1.4738,-1.4738,-1.5391,-1.6234,-1.7304,-1.7165,-1.6966,-1.6718,-1.6423,-1.6223,-1.6115,-1.5964,-1.5891,0.0,0.0,0.0,-1.5891,-1.5891,-1.5891,-1.5891,-1.5891,-1.5891,-1.5891,-1.5891,-1.5891,-1.5891,-1.5891,-1.5891,-1.5891,-1.5891,-1.5523,-1.5179,-1.5722,-1.5421,-1.501,-1.5529,-1.568,-1.568,-1.568,-1.5783,-1.5891,-1.5891,-1.5891,-1.5855,-1.5734,-1.5807,-1.5855,-1.5734,-1.5807,-1.5891,-1.5891,-1.5891,-1.5843,-1.5698,-1.5578,-1.5403,-1.5143,-1.4877,-1.4666,-1.4539,-1.4389,-1.458,-1.5289,-1.6828,-1.8279,-1.9322,-2.0359,-2.0906,-2.0925,-2.0916,-2.095,-2.1037,-2.0888,-2.0787,-2.0787,-2.0387,-2.0095,-1.9884,-1.9692,-1.9522,-0.2838,-0.3786,-0.4569,-0.4781,-0.5164,-0.5455,-0.5356,-0.5592,-0.5828,-0.5889,-0.6246,-0.6577,-0.6797,-0.7125,-0.7589,-0.8176,-0.836,-0.8586,-0.9105,-1.018,-1.0568,-0.9745,0.0,0.0,0.0,0.0,0.0,0.0,0.0,0.0,0.0,-1.3306,-1.3412,-1.3379,-1.3558,-1.456,-1.6446,-1.6665,-1.661,-1.6278,-1.6241,-1.6103,-1.5838,-1.5838,-1.5785,0.0,0.0,0.0,-1.5785,-1.5785,-1.5785,-1.5785,-1.5785,-1.5785,-1.5785,-1.5838,-1.5838,-1.5838,-1.5891,-1.5861,-1.5837,-1.5879,-1.5686,-1.5493,-1.5801,-1.5553,-1.527,-1.5753,-1.5861,-1.5843,-1.5879,-1.5891,-1.5891,-1.5891,-1.5891,-1.5831,-1.5608,-1.5734,-1.5825,-1.5602,-1.5734,-1.5891,-1.5891,-1.5891,-1.5891,-1.5891,-1.5698,-1.5481,-1.5252,-1.4962,-1.4684,-1.4449,-1.4346,-1.4346,-1.4532,-1.533,-1.6774,-1.9018,-2.0167,-2.0907,-2.1302,-2.1347,-2.1428,-2.1597,-2.1251,-2.1112,-2.1156,-2.0446,-2.009,-2.0058,-1.9677,-1.9457,-0.2211,-0.3055,-0.3966,-0.4751,-0.4961,-0.5039,-0.5455,-0.5479,-0.5467,-0.5775,-0.6042,-0.6408,-0.6807,-0.7199,-0.7757,-0.8482,0.0,-0.9083,0.0,0.0,-0.9621,0.0,0.0,0.0,0.0,0.0,0.0,0.0,0.0,0.0,0.0,-1.145,-1.1978,-1.182,-1.2867,-1.3437,-1.3435,-1.4595,-1.5524,-1.6278,-1.6054,-1.5827,-1.5535,-1.5535,-1.5422,0.0,0.0,-1.5143,-1.5143,-1.5143,-1.5143,-1.5143,-1.5143,-1.5143,-1.5148,-1.5476,-1.5535,-1.5583,-1.5838,-1.5741,-1.5596,-1.5819,-1.5559,-1.5258,-1.5741,-1.568,-1.5499,-1.5807,-1.5728,-1.5608,-1.5831,-1.5891,-1.5891,-1.5891,-1.5891,-1.5879,-1.5837,-1.5861,-1.5879,-1.5837,-1.5861,-1.5891,-1.5891,-1.5891,-1.5891,-1.5891,-1.5855,-1.5813,-1.5777,-1.5348,-1.5028,-1.4986,-1.457,-1.4621,-1.5514,-1.5704,-1.6311,-1.7569,-1.878,-1.9931,-2.0997,-2.1042,-2.1087,-2.1132,-2.1069,-2.1141,-2.1337,-2.122,-2.1063,-2.0915,-2.0521,-2.0113,-0.1911,-0.2576,-0.331,-0.4147,-0.4646,-0.4986,-0.5237,-0.5285,-0.5375,-0.5697,-0.5885,-0.6119,-0.6655,-0.696,-0.7389,-0.8184,0.0,-0.9341,-0.9315,-0.9429,0.0,0.0,0.0,0.0,0.0,0.0,0.0,0.0,0.0,0.0,0.0,0.0,-0.9953,-0.9879,-1.0452,-1.0908,-1.1264,-1.1911,-1.2813,-1.3983,-1.3877,-1.3604,-1.3388,-1.3997,-1.4223,-1.411,0.0,-1.4987,-1.4987,-1.4987,-1.4987,-1.4987,-1.4987,-1.4987,-1.5041,-1.5154,-1.5208,-1.5261,-1.5357,-1.5447,-1.5529,-1.5648,-1.5629,-1.5572,-1.5819,-1.5807,-1.5734,-1.5855,-1.5801,-1.5734,-1.5855,-1.5891,-1.5891,-1.5891,-1.5891,-1.5891,-1.5891,-1.5891,-1.5891,-1.5891,-1.5891,-1.5891,-1.5891,-1.5891,-1.5891,-1.5891,-1.5891,-1.5789,-1.5505,-1.5384,-1.5149,-1.4714,-1.4582,-1.4655,-1.4968,-1.4997,-1.5656,-1.7203,-1.7987,-1.8864,-1.9977,-2.0121,-2.0447,-2.0988,-2.0997,-2.1042,-2.1195,-2.098,-2.0827,-2.0717,-2.0458,-2.0219,-0.1593,-0.2144,-0.2693,-0.3237,-0.4157,-0.4951,-0.5089,-0.5215,-0.5411,-0.5695,-0.5843,-0.6041,-0.6464,-0.6735,0.0,-0.7855,-0.8643,-0.9108,-0.8964,0.0,0.0,0.0,0.0,0.0,0.0,0.0,0.0,0.0,0.0,0.0,0.0,0.0,-0.8488,-0.8457,-0.8457,-0.8784,-0.9528,-0.9493,-1.0315,-1.1864,-1.1864,-1.1697,-1.1415,-1.2358,-1.2748,-1.2743,-1.3614,-1.4164,-1.4379,-1.4379,-1.4546,-1.4826,-1.4826,-1.4826,-1.4928,-1.4928,-1.4928,-1.4987,-1.4987,-1.5154,-1.5369,-1.5369,-1.5523,-1.5678,-1.5785,-1.5791,-1.5838,-1.5891,-1.5891,-1.5891,-1.5891,-1.5891,-1.5891,-1.5891,-1.5891,-1.5891,-1.5891,-1.5891,-1.5891,-1.5891,-1.5891,-1.5891,-1.5891,-1.5891,-1.5891,-1.5891,-1.5891,-1.5741,-1.5342,-1.5415,-1.5264,-1.4642,-1.4721,-1.4696,-1.4419,-1.4334,-1.4956,-1.6499,-1.7242,-1.794,-1.8734,-1.8926,-1.9476,-2.0484,-2.0484,-2.0628,-2.0907,-2.0616,-2.0474,-2.0554,-2.0345,-2.0242,-0.1145,-0.1639,-0.2145,-0.2145,-0.3438,-0.4833,-0.5254,-0.5385,-0.5484,-0.5837,-0.6088,-0.6272,-0.6335,-0.6873,-0.7482,-0.7782,-0.8085,-0.8317,0.0,0.0,0.0,0.0,0.0,0.0,0.0,0.0,0.0,0.0,0.0,0.0,0.0,0.0,0.0,-0.8328,-0.8325,-0.8257,-0.8171,-0.8096,-0.9219,-1.152,-1.152,-1.1365,-1.1105,-1.1214,-1.1109,-1.0891,-1.0945,-1.1601,-1.258,-1.258,-1.3246,-1.4245,-1.4245,-1.4401,-1.4654,-1.4654,-1.4767,-1.4987,-1.4987,-1.5041,-1.5041,-1.5041,-1.5041,-1.5095,-1.5422,-1.5535,-1.5583,-1.5844,-1.5891,-1.5891,-1.5891,-1.5891,-1.5891,-1.5891,-1.5891,-1.5891,-1.5891,-1.5891,-1.5891,-1.5891,-1.5891,-1.5891,-1.5891,-1.5891,-1.5891,-1.5891,-1.5891,-1.5879,-1.5837,-1.5638,-1.5475,-1.5421,-1.5215,-1.4974,-1.4708,-1.4449,-1.4346,-1.4532,-1.6311,-1.7336,-1.7429,-1.7436,-1.7948,-1.8926,-1.8972,-1.953,-2.0699,-2.0664,-2.0782,-2.0944,-2.0563,-2.0385,-0.1089,-0.1762,-0.2401,-0.2145,-0.3285,-0.456,-0.4734,-0.5131,-0.5561,-0.5844,-0.612,-0.637,-0.651,-0.6943,-0.7372,-0.7565,-0.7899,0.0,0.0,0.0,0.0,0.0,0.0,0.0,0.0,0.0,0.0,0.0,0.0,0.0,0.0,0.0,0.0,-0.7511,-0.7506,-0.7391,-0.726,-0.7211,-0.7686,-0.8578,-0.8735,-0.8784,-0.8689,-0.9309,-0.9588,-0.9633,-1.0343,-1.0945,-1.1328,-1.1328,-1.1601,-1.2032,-1.1904,-1.1956,-1.2058,-1.2058,-1.2112,-1.2291,-1.3131,-1.3511,-1.3835,-1.4493,-1.4385,-1.411,-1.4934,-1.4815,-1.4583,-1.541,-1.5791,-1.5891,-1.5891,-1.5891,-1.5891,-1.5891,-1.5891,-1.5891,-1.5891,-1.5891,-1.5891,-1.5891,-1.5891,-1.5891,-1.5891,-1.5891,-1.5891,-1.5891,-1.5891,-1.5831,-1.5668,-1.5698,-1.5614,-1.5288,-1.5167,-1.4998,-1.4739,-1.4618,-1.4485,-1.4304,-1.4997,-1.5704,-1.6358,-1.6969,-1.7762,-1.8788,-1.9401,-1.9965,-2.0473,-2.0473,-2.0473,-2.0555,-2.0587,-2.057,-0.0996,-0.1554,-0.205,-0.1725,-0.2645,-0.3694,-0.4023,-0.4836,-0.5662,-0.6017,-0.6203,-0.6377,-0.6657,-0.6831,0.0,0.0,-0.7621,0.0,0.0,0.0,0.0,0.0,0.0,0.0,0.0,0.0,0.0,0.0,0.0,0.0,0.0,0.0,0.0,0.0,-0.6929,-0.6888,-0.6804,-0.6763,-0.6763,-0.6801,-0.6879,-0.6968,-0.7095,-0.7762,-0.817,-0.8362,-0.9177,-0.9749,-1.0127,-1.0127,-1.0343,-1.0706,-1.0522,-1.0543,-1.0584,-1.0527,-1.0506,-1.063,-1.1509,-1.1941,-1.2318,-1.3462,-1.3455,-1.3236,-1.4493,-1.4482,-1.4148,-1.5095,-1.547,-1.5624,-1.5737,-1.5838,-1.5891,-1.5891,-1.5891,-1.5891,-1.5891,-1.5891,-1.5891,-1.5891,-1.5891,-1.5891,-1.5891,-1.5891,-1.5891,-1.5891,-1.5891,-1.5825,-1.5644,-1.5777,-1.5753,-1.5396,-1.5282,-1.5125,-1.4865,-1.4769,-1.46,-1.4316,-1.4298,-1.4627,-1.5283,-1.5988,-1.6828,-1.7809,-1.8834,-1.9355,-1.9355,-2.0011,-2.0155,-1.982,-2.0337,-2.0564,-0.0743,-0.0841,-0.0876,-0.0666,-0.1249,-0.2191,-0.3265,-0.4548,-0.5764,-0.6473,-0.6434,-0.6407,-0.6725,-0.6592,0.0,-0.6916,0.0,0.0,0.0,0.0,0.0,0.0,0.0,0.0,0.0,0.0,0.0,0.0,0.0,0.0,0.0,0.0,0.0,0.0,-0.6801,-0.6798,-0.6798,-0.6679,-0.6679,-0.6796,-0.6503,-0.6564,-0.6801,-0.6801,-0.6866,-0.6983,-0.6983,-0.7701,-0.8861,-0.8865,-0.9578,-1.0651,-1.0522,-1.0563,-1.0647,-1.0514,-1.0449,-1.0449,-1.0502,-1.0506,-1.0666,-1.1797,-1.2257,-1.2635,-1.411,-1.46,-1.4659,-1.4928,-1.4987,-1.5095,-1.5428,-1.5684,-1.5891,-1.5891,-1.5891,-1.5891,-1.5891,-1.5891,-1.5891,-1.5891,-1.5891,-1.5891,-1.5891,-1.5891,-1.5891,-1.5891,-1.5891,-1.5891,-1.5891,-1.5891,-1.5891,-1.5891,-1.5656,-1.5396,-1.5131,-1.4871,-1.46,-1.4316,-1.4298,-1.4298,-1.4298,-1.4298,-1.4765,-1.5798,-1.6774,-1.7296,-1.7296,-1.9309,-1.9774,-1.8796,-1.982,-2.0292,-0.0953,-0.1281,-0.1421,-0.0938,-0.1455,-0.2159,-0.2337,-0.3078,-0.4169,-0.5489,-0.6156,-0.6554,-0.6777,-0.6747,0.0,-0.6849,0.0,0.0,0.0,0.0,0.0,0.0,0.0,0.0,0.0,0.0,0.0,0.0,0.0,0.0,0.0,0.0,0.0,0.0,-0.6673,-0.6632,-0.6495,-0.6457,-0.646,-0.6543,-0.6422,-0.6564,-0.6798,-0.6714,-0.6741,-0.6858,-0.6858,-0.7088,-0.7449,-0.7539,-0.7847,-0.8232,-0.7996,-0.7993,-0.8087,-0.7846,-0.782,-0.8011,-0.885,-0.9186,-0.9441,-1.0617,-1.1065,-1.1437,-1.2689,-1.3236,-1.3565,-1.4493,-1.4874,-1.5041,-1.5095,-1.5369,-1.569,-1.5838,-1.5891,-1.5891,-1.5891,-1.5891,-1.5891,-1.5891,-1.5891,-1.5891,-1.5891,-1.5891,-1.5891,-1.5891,-1.5891,-1.5891,-1.5891,-1.5891,-1.5891,-1.5891,-1.5819,-1.5596,-1.5149,-1.5034,-1.4793,-1.4328,-1.4298,-1.4298,-1.4298,-1.5003,-1.5514,-1.5798,-1.6774,-1.7296,-1.7296,-1.7902,-1.8041,-1.7762,-1.8788,-1.9255,-0.0733,-0.0991,-0.1101,-0.064,-0.0999,-0.1407,-0.1196,-0.2584,-0.4283,-0.5728,-0.6406,-0.6728,-0.6853,-0.6834,0.0,0.0,0.0,0.0,0.0,0.0,0.0,0.0,0.0,0.0,0.0,0.0,0.0,0.0,0.0,0.0,0.0,0.0,0.0,0.0,-0.6545,-0.646,-0.6387,-0.6387,-0.6387,-0.6387,-0.6387,-0.6462,-0.6654,-0.6581,-0.6613,-0.6733,-0.6782,-0.6801,-0.6806,-0.6883,-0.6953,-0.6994,-0.6804,-0.6804,-0.6888,-0.6692,-0.6665,-0.6832,-0.7556,-0.7817,-0.8051,-0.9323,-0.9827,-1.0144,-1.1357,-1.1873,-1.2254,-1.3398,-1.3511,-1.3506,-1.4546,-1.4659,-1.4659,-1.5523,-1.5838,-1.5891,-1.5891,-1.5891,-1.5891,-1.5891,-1.5891,-1.5891,-1.5891,-1.5891,-1.5891,-1.5891,-1.5891,-1.5891,-1.5891,-1.5891,-1.5891,-1.5891,-1.5891,-1.568,-1.5155,-1.5107,-1.4871,-1.4334,-1.4298,-1.4298,-1.4298,-1.486,-1.5188,-1.5188,-1.617,-1.6499,-1.6123,-1.6922,-1.7102,-1.6734,-1.7762,-1.818,-0.0283,-0.033,-0.0246,-0.0073,-0.0162,-0.0268,-0.0189,-0.2623,-0.5214,-0.6427,-0.6757,-0.6839,-0.6961,-0.6885,-0.6806,0.0,0.0,0.0,0.0,0.0,0.0,0.0,0.0,0.0,0.0,0.0,0.0,0.0,0.0,0.0,0.0,0.0,0.0,-0.6387,-0.6387,-0.6387,-0.6387,-0.6387,-0.6387,0.0,-0.6387,-0.6387,-0.6387,-0.6387,-0.6446,-0.6608,-0.6719,-0.6777,-0.6785,-0.6785,-0.6793,-0.679,-0.6668,-0.6695,-0.6785,-0.6651,-0.6608,-0.6619,-0.6605,-0.6608,-0.679,-0.8043,-0.855,-0.8911,-1.014,-1.0581,-1.092,-1.1955,-1.1474,-1.1269,-1.3619,-1.3511,-1.3181,-1.488,-1.5523,-1.5838,-1.5838,-1.5838,-1.5891,-1.5891,-1.5891,-1.5891,-1.5891,-1.5891,-1.5891,-1.5891,-1.5891,-1.5891,-1.5891,-1.5891,-1.5879,-1.5855,-1.5879,-1.5668,-1.5119,-1.5095,-1.4871,-1.4334,-1.4298,-1.4298,-1.4298,-1.4298,-1.4298,-1.4298,-1.5188,-1.5235,-1.4298,-1.6129,-1.6546,-1.5704,-1.6687,-1.7149,-0.0473,-0.0409,-0.0279,-0.0233,-0.013,-0.0283,-0.1065,-0.1918,-0.2856,-0.3956,-0.5591,-0.6839,-0.6961,-0.6885,0.0,0.0,0.0,0.0,0.0,0.0,0.0,0.0,0.0,0.0,0.0,0.0,0.0,0.0,0.0,0.0,0.0,0.0,0.0,-0.6387,-0.6387,-0.6387,-0.6387,-0.6387,-0.6387,0.0,-0.6387,-0.6387,-0.6387,-0.6387,-0.64,-0.6427,-0.6454,-0.657,-0.666,-0.666,-0.6714,-0.679,-0.6668,-0.6695,-0.6777,-0.6556,-0.6487,-0.6605,-0.646,-0.6489,-0.6622,-0.6955,-0.7773,-0.8681,-0.8977,-0.9762,-1.0564,-1.0832,-1.0833,-1.0836,-1.1383,-1.1487,-1.1819,-1.3127,-1.4326,-1.5256,-1.5529,-1.5589,-1.5636,-1.5838,-1.5891,-1.5891,-1.5891,-1.5891,-1.5891,-1.5891,-1.5891,-1.5891,-1.5891,-1.5891,-1.5813,-1.5608,-1.5765,-1.5596,-1.4865,-1.4992,-1.4871,-1.4334,-1.4298,-1.4298,-1.4298,-1.4298,-1.4298,-1.4298,-1.4532,-1.4532,-1.4298,-1.4717,-1.4813,-1.4675,-1.5656,-1.6123,-0.0269,-0.024,-0.0145,-0.0163,-0.009,-0.0144,-0.0684,-0.1304,-0.1887,-0.2424,-0.4405,-0.6073,-0.6129,0.0,0.0,0.0,0.0,0.0,0.0,0.0,0.0,0.0,0.0,0.0,0.0,0.0,0.0,0.0,0.0,0.0,0.0,-0.6387,-0.6387,-0.6387,-0.6387,-0.6387,-0.6387,-0.6387,-0.6387,-0.6387,-0.6387,-0.6387,-0.6387,-0.6387,-0.6387,-0.6387,-0.6387,-0.6422,-0.6481,-0.6481,-0.657,-0.6622,-0.6556,-0.657,-0.6611,-0.6433,-0.6427,-0.647,-0.6408,-0.6427,-0.6492,-0.66,-0.707,-0.7654,-0.7719,-0.821,-0.8863,-0.9472,-0.9287,-0.921,-1.0378,-1.0343,-1.0343,-1.1546,-1.3019,-1.4385,-1.5095,-1.5261,-1.5315,-1.5464,-1.5464,-1.5464,-1.5464,-1.5577,-1.5737,-1.5891,-1.5891,-1.5891,-1.5891,-1.5777,-1.565,-1.5511,-1.5511,-1.53,-1.4763,-1.4841,-1.4739,-1.4322,-1.4298,-1.4298,-1.4298,-1.4298,-1.4298,-1.4298,-1.4298,-1.4298,-1.4298,-1.4298,-1.4298,-1.4292,-1.486,-1.5092,0.0065,0.0035,0.0,0.0,0.0,0.0,0.0,-0.0692,-0.1305,-0.1305,-0.3192,-0.4847,0.0,0.0,0.0,0.0,0.0,0.0,0.0,0.0,0.0,0.0,0.0,0.0,0.0,0.0,0.0,0.0,0.0,0.0,-0.6387,-0.6387,-0.6387,-0.6387,-0.6387,-0.6387,-0.6387,-0.6387,-0.6387,-0.6387,-0.6387,-0.6387,-0.6387,-0.6387,-0.6387,-0.6387,-0.6387,-0.6387,-0.6387,-0.6387,-0.6387,-0.6387,-0.6387,-0.6387,-0.6387,-0.6387,-0.6387,-0.6387,-0.6387,-0.6387,-0.6403,-0.6554,-0.6589,-0.6605,-0.6709,-0.6768,-0.7032,-0.8091,-0.7732,-0.752,-0.9508,-0.9336,-0.8913,-1.0089,-1.1465,-1.2906,-1.4331,-1.4659,-1.4713,-1.4928,-1.4987,-1.4987,-1.4987,-1.5208,-1.5458,-1.5672,-1.5755,-1.582,-1.5772,-1.5632,-1.5481,-1.5439,-1.524,-1.498,-1.4672,-1.469,-1.46,-1.4316,-1.4298,-1.4298,-1.4298,-1.4298,-1.4298,-1.4298,-1.4298,-1.4298,-1.4298,-1.4298,-1.4298,-1.4298,-1.4298,-1.4298,0.0267,0.0142,0.0,0.0,0.0,0.0,0.0,-0.0096,-0.0197,0.0,-0.1951,-0.3516,0.0,0.0,0.0,0.0,0.0,0.0,0.0,0.0,0.0,0.0,0.0,0.0,0.0,0.0,0.0,0.0,0.0,0.0,-0.6387,-0.6387,-0.6387,-0.6387,-0.6387,-0.6387,-0.6387,-0.6387,-0.6387,-0.6387,-0.6387,-0.6387,-0.6387,-0.6387,-0.6387,-0.6387,-0.6387,-0.6387,-0.6387,-0.6387,-0.6387,-0.6387,-0.6387,-0.6387,-0.6387,-0.6387,-0.6387,-0.6387,-0.6387,-0.6387,-0.6389,-0.6406,-0.6411,-0.6414,-0.643,-0.6632,-0.6859,-0.7032,-0.7135,-0.7221,-0.7463,-0.7463,-0.7677,-0.8699,-0.9258,-1.0178,-1.2635,-1.3181,-1.3565,-1.4767,-1.4987,-1.4987,-1.4987,-1.5041,-1.502,-1.4861,-1.5282,-1.5447,-1.5258,-1.5361,-1.5409,-1.5185,-1.5125,-1.4902,-1.4395,-1.4576,-1.46,-1.4316,-1.4298,-1.4298,-1.4298,-1.4298,-1.4298,-1.4298,-1.4298,-1.4298,-1.4298,-1.4298,-1.4298,-1.4298,-1.4298,-1.4298,0.0308,0.0143,0.0,0.0,0.0,0.0,0.0,0.0,0.0,0.0,-0.0729,0.0,0.0,0.0,0.0,0.0,0.0,0.0,0.0,0.0,0.0,0.0,0.0,0.0,0.0,0.0,0.0,0.0,0.0,-0.6342,-0.6342,-0.6342,-0.6342,-0.6342,-0.6401,-0.6387,-0.6387,-0.6387,-0.6404,-0.6342,-0.6342,-0.6342,-0.6342,-0.6342,-0.6377,-0.6387,-0.6387,-0.6387,-0.6387,-0.6387,-0.6387,-0.6387,-0.6387,-0.6387,-0.6387,-0.6387,-0.6387,-0.6387,-0.6387,-0.6387,-0.6387,-0.6387,-0.6387,-0.6387,-0.6387,-0.6462,-0.6611,-0.6679,-0.6774,-0.6858,-0.6877,-0.6918,-0.7121,-0.7621,-0.778,-0.8307,-1.0143,-1.1142,-1.1873,-1.2472,-1.3127,-1.3578,-1.3614,-1.4244,-1.4691,-1.451,-1.478,-1.4954,-1.4688,-1.4628,-1.455,-1.4445,-1.4453,-1.4325,-1.4087,-1.4316,-1.4431,-1.4304,-1.4298,-1.4298,-1.4298,-1.4298,-1.4298,-1.4298,-1.4298,-1.4298,-1.4298,-1.4298,-1.4298,-1.4298,-1.4298,-1.4298,0.038,0.0248,0.0109,0.0076,0.008,0.0083,0.0,0.0,0.0,0.0,0.0,0.0,0.0,0.0,0.0,0.0,0.0,0.0,0.0,0.0,0.0,0.0,0.0,0.0,0.0,0.0,0.0,0.0,0.0,-0.627,-0.627,-0.627,-0.627,-0.627,-0.6304,-0.6347,-0.6347,-0.6347,-0.6304,-0.627,-0.627,-0.6287,-0.6317,-0.6284,-0.6301,-0.6387,-0.6387,-0.6387,-0.6387,-0.6387,-0.6387,-0.6387,-0.6387,-0.6387,-0.6387,-0.6387,-0.6387,-0.6387,-0.6387,-0.6387,-0.6387,-0.6387,-0.6387,-0.6387,-0.6387,-0.6408,-0.6452,-0.6594,-0.6641,-0.6679,-0.6741,-0.6779,-0.6825,-0.6918,-0.6961,-0.7305,-0.8481,-0.9753,-1.0645,-1.06,-1.1328,-1.2021,-1.2356,-1.327,-1.3973,-1.4083,-1.4293,-1.4378,-1.4117,-1.3975,-1.391,-1.391,-1.384,-1.3835,-1.3883,-1.407,-1.4256,-1.4298,-1.4298,-1.4298,-1.4298,-1.4298,-1.4298,-1.4298,-1.4298,-1.4298,-1.4298,-1.4298,-1.4298,-1.4298,-1.4298,-1.4298,0.054,0.0482,0.0459,0.0327,0.0299,0.0231,0.004,0.0,0.0,0.0,0.0,0.0,0.0,0.0,0.0,0.0,0.0,0.0,0.0,0.0,0.0,0.0,0.0,0.0,0.0,0.0,0.0,0.0,0.0,-0.6094,-0.6094,-0.6094,-0.6094,-0.6094,-0.6102,-0.6105,-0.6105,-0.6105,-0.6102,-0.6094,-0.6094,-0.6157,-0.6314,-0.6149,-0.6219,-0.6387,-0.6387,-0.6387,-0.6387,-0.6387,-0.6387,-0.6387,-0.6387,-0.6387,-0.6387,-0.6387,-0.6387,-0.6387,-0.6387,-0.6387,-0.6387,-0.6387,-0.6387,-0.6387,-0.6387,-0.6468,-0.6611,-0.6619,-0.6703,-0.6766,-0.6657,-0.6714,-0.6804,-0.6812,-0.6902,-0.7305,-0.8481,-0.9659,-1.0469,-1.0362,-1.0461,-1.0946,-1.2014,-1.2116,-1.24,-1.3378,-1.3782,-1.3847,-1.3557,-1.3767,-1.391,-1.391,-1.3688,-1.3636,-1.3883,-1.3931,-1.4022,-1.4298,-1.4298,-1.4298,-1.4298,-1.4298,-1.4298,-1.4298,-1.4298,-1.4298,-1.4298,-1.4298,-1.4298,-1.4298,-1.4298,-1.4298,0.0708,0.0619,0.0564,0.0507,0.0404,0.0299,0.0197,0.0079,0.0,0.0,0.0,0.0,0.0,0.0,0.0,0.0,0.0,0.0,0.0,0.0,0.0,0.0,0.0,0.0,0.0,0.0,0.0,0.0,0.0,0.0,-0.5923,-0.5969,-0.5969,-0.5969,-0.6045,-0.6086,-0.6086,-0.6086,-0.6045,-0.5969,-0.5969,-0.5991,-0.6034,-0.607,-0.6173,-0.6333,-0.6404,-0.6387,-0.6387,-0.6387,-0.6387,-0.6387,-0.6387,-0.6387,-0.6387,-0.6387,-0.6387,-0.6387,-0.6387,-0.6387,-0.6387,-0.6387,-0.6387,-0.6387,-0.6387,-0.6416,-0.6452,-0.6452,-0.6481,-0.6556,-0.6462,-0.6484,-0.6586,-0.6665,-0.6717,-0.6854,-0.7267,-0.775,-0.8114,-0.8069,-0.9249,-1.0391,-1.0758,-1.2011,-1.3002,-1.3209,-1.3333,-1.3297,-1.3062,-1.3133,-1.3182,-1.3182,-1.3202,-1.3292,-1.3394,-1.3539,-1.3738,-1.4022,-1.4022,-1.4112,-1.4298,-1.4298,-1.4298,-1.4298,-1.4298,-1.4298,-1.4298,-1.4298,-1.4298,-1.4298,-1.4298,-1.4298,0.0909,0.0824,0.0774,0.0716,0.0615,0.0478,0.0342,0.0189,0.0075,0.0,0.0,0.0,0.0,0.0,0.0,0.0,0.0,0.0,0.0,0.0,0.0,0.0,0.0,0.0,0.0,0.0,0.0,0.0,0.0,0.0,-0.5275,-0.5589,-0.5722,-0.5722,-0.5803,-0.5866,-0.5907,-0.5907,-0.5885,-0.5847,-0.5847,-0.5866,-0.5904,-0.5947,-0.6078,-0.632,-0.6304,-0.6314,-0.6387,-0.6387,-0.6387,-0.6387,-0.6387,-0.6387,-0.6387,-0.6387,-0.6387,-0.6387,-0.6387,-0.6387,-0.6387,-0.6387,-0.6387,-0.6387,-0.6387,-0.6387,-0.6387,-0.6387,-0.6387,-0.6387,-0.6387,-0.6416,-0.6468,-0.66,-0.6619,-0.6619,-0.6619,-0.6681,-0.6728,-0.6687,-0.7936,-0.9097,-0.9514,-1.1126,-1.2433,-1.2587,-1.2907,-1.3023,-1.284,-1.2813,-1.2813,-1.2813,-1.291,-1.305,-1.3098,-1.3249,-1.3491,-1.3738,-1.3786,-1.3877,-1.416,-1.416,-1.4208,-1.4298,-1.4298,-1.4298,-1.4298,-1.4298,-1.4298,-1.4298,-1.4298,-1.4298,0.0,0.0,0.0,0.0948,0.0895,0.0803,0.0401,0.0328,0.0255,0.0,0.0,0.0,0.0,0.0,0.0,0.0,0.0,0.0,0.0,0.0,0.0,0.0,0.0,0.0,0.0,0.0,0.0,0.0,0.0,-0.4026,-0.4068,-0.4866,-0.5368,-0.541,-0.541,-0.5428,-0.5505,-0.5508,-0.557,-0.5688,-0.5688,-0.5748,-0.5893,-0.5742,-0.5931,-0.6306,-0.614,-0.6222,-0.6387,-0.6387,-0.6387,-0.6387,-0.6387,-0.6387,-0.6387,-0.6387,-0.6387,-0.6387,-0.6387,-0.6387,-0.6387,-0.6387,-0.6387,-0.6387,-0.6387,-0.6387,-0.6387,-0.6387,-0.6387,-0.6387,-0.6387,-0.6473,-0.6613,-0.6613,-0.6616,-0.6619,-0.6619,-0.6619,-0.6584,-0.6414,-0.6635,-0.722,-0.8423,-0.941,-1.0452,-1.1507,-1.2456,-1.2984,-1.2813,-1.278,-1.2824,-1.2824,-1.2813,-1.2856,-1.305,-1.3098,-1.3195,-1.3491,-1.3491,-1.3588,-1.3883,-1.3883,-1.4022,-1.425,-1.4298,-1.4298,-1.4298,-1.4298,-1.4298,-1.4298,-1.4298,-1.4298,0.1248,0.0,0.0,0.0,0.0,0.0,0.0749,0.0619,0.0498,0.0,0.0,0.0,0.0,0.0,0.0,0.0,0.0,0.0,0.0,0.0,0.0,0.0,0.0,0.0,0.0,0.0,0.0,0.0,-0.1664,-0.2223,-0.2893,-0.3901,-0.4738,-0.5368,-0.541,-0.5428,-0.5505,-0.5508,-0.557,-0.5688,-0.5688,-0.5704,-0.5737,-0.5833,-0.5958,-0.614,-0.6243,-0.6301,-0.6387,-0.6387,-0.6387,-0.6387,-0.6387,-0.6387,-0.6387,-0.6387,-0.6387,-0.6387,-0.6387,-0.6387,-0.6387,-0.6387,-0.6387,-0.6387,-0.6387,-0.6387,-0.6387,-0.6387,-0.6387,-0.6387,-0.6387,-0.6411,-0.6435,-0.6435,-0.6554,-0.6619,-0.6619,-0.6619,-0.6608,-0.6575,-0.7315,-0.8091,-0.8611,-0.9433,-1.018,-1.0636,-1.1492,-1.2062,-1.2004,-1.2615,-1.3012,-1.3012,-1.291,-1.2813,-1.2856,-1.2856,-1.3001,-1.3201,-1.3195,-1.3346,-1.3593,-1.3588,-1.3636,-1.3732,-1.3925,-1.4022,-1.4022,-1.4208,-1.4298,-1.4298,-1.4298,-1.4298,0.1895,0.1856,0.1816,0.1515,0.0,0.0,0.0974,0.0801,0.0711,0.0,0.0,0.0,0.0,0.0,0.0,0.0,0.0,0.0,0.0,0.0,0.0,0.0,0.0,0.0,0.0,0.0,0.0,-0.0039,-0.0685,-0.1469,-0.2446,-0.3097,-0.383,-0.4687,-0.4728,-0.4946,-0.5356,-0.5356,-0.5443,-0.5613,-0.5613,-0.564,-0.5694,-0.585,-0.5969,-0.6089,-0.6162,-0.6285,-0.6381,-0.6385,-0.6393,-0.6387,-0.6387,-0.6387,-0.6387,-0.6387,-0.6387,-0.6387,-0.6387,-0.6387,-0.6387,-0.6387,-0.6387,-0.6387,-0.6387,-0.6387,-0.6387,-0.6387,-0.6387,-0.6387,-0.6387,-0.6387,-0.6387,-0.6387,-0.6441,-0.6492,-0.6492,-0.6584,-0.6619,-0.6619,-0.7191,-0.7682,-0.7812,-0.8692,-0.944,-0.9489,-1.0366,-1.0996,-1.0921,-1.1774,-1.2363,-1.2311,-1.259,-1.2813,-1.2813,-1.2813,-1.2861,-1.2953,-1.2953,-1.3098,-1.334,-1.3346,-1.3394,-1.3491,-1.3636,-1.3786,-1.3883,-1.416,-1.4298,-1.4298,-1.4298,-1.4298,0.2788,0.28,0.2697,0.209,0.2007,0.0,0.1188,0.1063,0.0975,0.069,0.0,0.0,0.0,0.0,0.0,0.0,0.0,0.0,0.0,0.0,0.0,0.0,0.0,0.0,0.0,0.1042,0.0943,0.0943,-0.0116,-0.121,-0.2268,-0.2347,-0.2776,-0.3636,-0.3675,-0.4112,-0.5063,-0.5063,-0.5226,-0.5508,-0.5508,-0.5572,-0.5691,-0.5839,-0.595,-0.6067,-0.6067,-0.6192,-0.6341,-0.629,-0.6323,-0.6387,-0.6387,-0.6387,-0.6387,-0.6387,-0.6387,-0.6387,-0.6387,-0.6387,-0.6387,-0.6387,-0.6387,-0.6387,-0.6387,-0.6387,-0.6387,-0.6387,-0.6387,-0.6387,-0.6387,-0.6387,-0.6387,-0.6387,-0.6395,-0.6406,-0.6406,-0.6492,-0.6619,-0.6619,-0.663,-0.6643,-0.6657,-0.7617,-0.8374,-0.8236,-0.9216,-0.9872,-0.9674,-1.0593,-1.1216,-1.1079,-1.198,-1.2613,-1.2613,-1.271,-1.2813,-1.2813,-1.2813,-1.2856,-1.305,-1.305,-1.3195,-1.3443,-1.3443,-1.3593,-1.3883,-1.4112,-1.425,-1.4298,-1.4298,-1.4298,0.2998,0.3023,0.2995,0.2879,0.2849,0.0,0.2092,0.2056,0.2023,0.0,0.1434,0.0,0.0,0.0,0.0,0.0,0.0,0.0,0.0,0.0,0.0,0.0,0.0,0.0,0.0,0.1172,0.1138,0.1138,0.0639,-0.0154,-0.1173,-0.1409,-0.1918,-0.2737,-0.2737,-0.3204,-0.4131,-0.4172,-0.4603,-0.5508,-0.5508,-0.5572,-0.5691,-0.5712,-0.5831,-0.5937,-0.5937,-0.6021,-0.6154,-0.613,-0.6246,-0.6387,-0.6387,-0.6387,-0.6387,-0.6387,-0.6387,-0.6387,-0.6387,-0.6387,-0.6387,-0.6387,-0.6387,-0.6387,-0.6387,-0.6387,-0.6387,-0.6387,-0.6387,-0.6387,-0.6387,-0.6387,-0.6387,-0.6387,-0.6462,-0.6584,-0.6584,-0.6603,-0.6619,-0.6619,-0.67,-0.6798,-0.6896,-0.7063,-0.7202,-0.7254,-0.818,-0.8873,-0.8845,-0.965,-1.026,-1.0222,-1.0978,-1.1517,-1.1517,-1.2311,-1.2813,-1.2813,-1.2813,-1.2813,-1.2861,-1.2861,-1.2856,-1.2958,-1.3104,-1.3298,-1.3588,-1.3835,-1.407,-1.4298,-1.4298,-1.4298,0.0,0.0,0.0,0.3524,0.0,0.0,0.0,0.2743,0.2636,0.2084,0.2001,0.1972,0.0,0.0,0.0,0.0,0.0,0.0,0.0,0.0,0.0,0.0,0.0,0.0,0.0,0.1135,0.1114,0.1056,0.0848,0.0488,-0.0115,-0.0269,-0.0735,-0.1526,-0.1565,-0.2007,-0.2905,-0.2905,-0.3201,-0.3815,-0.424,-0.4527,-0.4673,-0.5225,-0.5577,-0.5769,-0.5769,-0.5882,-0.6081,-0.6021,-0.6135,-0.6352,-0.6352,-0.6352,-0.6361,-0.6365,-0.6387,-0.6387,-0.6387,-0.6387,-0.6387,-0.6387,-0.6387,-0.6387,-0.6387,-0.6387,-0.6387,-0.6387,-0.6387,-0.6387,-0.6387,-0.6387,-0.6387,-0.6387,-0.6433,-0.6476,-0.6476,-0.6476,-0.6476,-0.6476,-0.6578,-0.6638,-0.67,-0.666,-0.6662,-0.6785,-0.7267,-0.7583,-0.7583,-0.8497,-0.9077,-0.8994,-0.985,-1.0391,-1.0391,-1.1375,-1.2014,-1.2014,-1.2516,-1.2813,-1.2813,-1.2813,-1.2813,-1.2813,-1.291,-1.3055,-1.3298,-1.3443,-1.3732,-1.4118,-1.4118,-1.416,0.0,0.0,0.0,0.0,0.0,0.3919,0.0,0.0,0.0,0.2706,0.0,0.0,0.0,0.0,0.0,0.0,0.0,0.0,0.0,0.0,0.0,0.0,0.0,0.0,0.0,0.1107,0.106,0.0939,0.0909,0.0846,0.0676,0.0604,0.0305,-0.035,-0.0352,-0.0783,-0.1642,-0.1642,-0.182,-0.2107,-0.2818,-0.3179,-0.3339,-0.4191,-0.4723,-0.4911,-0.4911,-0.5187,-0.5631,-0.5537,-0.5751,-0.6122,-0.6214,-0.6263,-0.6309,-0.638,-0.6368,-0.6387,-0.6387,-0.6387,-0.6387,-0.6387,-0.6387,-0.6387,-0.6387,-0.6387,-0.6387,-0.6387,-0.6387,-0.6387,-0.6387,-0.6387,-0.6387,-0.6387,-0.6387,-0.6387,-0.6387,-0.6387,-0.6387,-0.6387,-0.6387,-0.6392,-0.6416,-0.64,-0.6427,-0.66,-0.66,-0.6584,-0.6584,-0.7295,-0.7806,-0.7686,-0.8665,-0.9312,-0.9312,-1.0288,-1.0974,-1.117,-1.2014,-1.2565,-1.2813,-1.2813,-1.2813,-1.2813,-1.2813,-1.2856,-1.305,-1.305,-1.3298,-1.3835,-1.3835,-1.3973,0.0,0.0,0.0,0.0,0.4933,0.0,0.0,0.0,0.4051,0.342,0.0,0.3483,0.0,0.0,0.0,0.0,0.0,0.0,0.0,0.0,0.0,0.0,0.0,0.0,0.0,0.0,0.1088,0.1091,0.0971,0.0876,0.0878,0.071,0.0569,0.0456,0.0466,0.0078,-0.0744,-0.0744,-0.1189,-0.2107,-0.2157,-0.2248,-0.2342,-0.2439,-0.2465,-0.251,-0.251,-0.3009,-0.3918,-0.4037,-0.4676,-0.5541,-0.5977,-0.6236,-0.6407,-0.632,-0.635,-0.6387,-0.6387,-0.6387,-0.6387,-0.6387,-0.6387,-0.6387,-0.6387,-0.6387,-0.6387,-0.6387,-0.6387,-0.6387,-0.6387,-0.6387,-0.6387,-0.6387,-0.6387,-0.6387,-0.6387,-0.6387,-0.6387,-0.6387,-0.6387,-0.6422,-0.6581,-0.6457,-0.6427,-0.66,-0.6476,-0.6408,-0.6408,-0.6506,-0.66,-0.6587,-0.7528,-0.817,-0.817,-0.916,-1.0194,-1.1126,-1.1321,-1.1819,-1.2764,-1.2813,-1.2813,-1.2813,-1.2813,-1.2813,-1.2813,-1.2813,-1.3104,-1.3539,-1.3539,-1.369,0.0,0.0,0.0,0.0,0.0,0.0,0.4862,0.0,0.4623,0.0,0.0,0.0,0.0,0.0,0.0,0.0,0.3165,0.0,0.0,0.0,0.0,0.0,0.0,0.0,0.0,0.0,0.0,0.0,0.098,0.0966,0.1031,0.0936,0.0918,0.0946,0.0956,0.0813,0.051,0.051,0.0278,-0.0122,-0.0664,-0.0892,-0.0955,-0.1462,-0.1788,-0.1922,-0.1922,-0.2235,-0.2726,-0.2814,-0.315,-0.3596,-0.3751,-0.4795,-0.6236,-0.626,-0.6339,-0.6387,-0.6387,-0.6387,-0.6387,-0.6387,-0.6387,-0.6387,-0.6387,-0.6387,-0.6387,-0.6387,-0.6387,-0.6387,-0.6387,-0.6387,-0.6387,-0.6387,-0.6387,-0.6387,-0.6387,-0.6387,-0.6387,-0.6387,-0.6387,-0.6403,-0.6454,-0.6419,-0.6403,-0.6454,-0.6419,-0.6387,-0.6387,-0.6387,-0.6387,-0.6387,-0.6783,-0.708,-0.708,-0.8071,-0.8863,-0.93,-1.0534,-1.1668,-1.2764,-1.2813,-1.2813,-1.2813,-1.2813,-1.2813,-1.2813,-1.2813,-1.291,-1.3104,-1.3201,-1.3394,0.5733,0.0,0.0,0.0,0.0,0.0,0.0,0.0,0.0,0.0,0.0,0.0,0.0,0.0,0.4213,0.4002,0.0,0.3536,0.0,0.3001,0.0,0.0,0.0,0.0,0.0,0.0,0.0,0.1109,0.1045,0.1027,0.1061,0.1078,0.1145,0.1198,0.1208,0.1226,0.1296,0.1296,0.1312,0.1303,0.0624,0.0298,0.0348,-0.031,-0.0761,-0.094,-0.094,-0.1163,-0.1519,-0.1608,-0.1849,-0.2147,-0.2125,-0.3315,-0.5093,-0.5603,-0.5816,-0.5987,-0.6287,-0.6387,-0.6387,-0.6387,-0.6387,-0.6387,-0.6387,-0.6387,-0.6387,-0.6387,-0.6387,-0.6387,-0.6387,-0.6387,-0.6387,-0.6387,-0.6387,-0.6387,-0.6387,-0.6387,-0.6387,-0.6387,-0.6387,-0.6387,-0.6387,-0.6387,-0.6387,-0.6387,-0.6387,-0.6387,-0.6387,-0.6387,-0.6387,-0.6387,-0.6387,-0.6387,-0.6387,-0.7132,-0.7826,-0.8418,-1.0435,-1.1965,-1.2764,-1.2813,-1.2813,-1.2813,-1.2813,-1.2813,-1.2813,-1.2813,-1.2813,-1.2813,-1.2953,-1.3147,0.0,0.0,0.0,0.6347,0.0,0.0,0.0,0.0,0.6027,0.0,0.0,0.0,0.0,0.5559,0.5281,0.4515,0.4419,0.0,0.0,0.0,0.0,0.0,0.0,0.0,0.0,0.0,0.0,0.138,0.1208,0.1063,0.1006,0.1056,0.1136,0.1203,0.1196,0.1226,0.1296,0.1296,0.1312,0.1303,0.125,0.1277,0.1347,0.1332,0.13,0.13,0.13,0.0762,-0.009,-0.0358,-0.0984,-0.184,-0.2011,-0.2239,-0.2565,-0.3898,-0.458,-0.4985,-0.6037,-0.6387,-0.6387,-0.6387,-0.6387,-0.6387,-0.6387,-0.6387,-0.6387,-0.6387,-0.6387,-0.6387,-0.6387,-0.6387,-0.6387,-0.6387,-0.6387,-0.6387,-0.6387,-0.6387,-0.6387,-0.6387,-0.6387,-0.6387,-0.6387,-0.6387,-0.6387,-0.6387,-0.6387,-0.6387,-0.6387,-0.6387,-0.6387,-0.6387,-0.6387,-0.6387,-0.6387,-0.6434,-0.7329,-0.9406,-1.1575,-1.2764,-1.2813,-1.2813,-1.2813,-1.2813,-1.2813,-1.2813,-1.2813,-1.2813,-1.2813,-1.2813,-1.2813,-1.291,0.0,0.0,0.6228,0.6269,0.0,0.0,0.0,0.0,0.0,0.0,0.0,0.0,0.0,0.5598,0.5499,0.513,0.4922,0.4718,0.0,0.407,0.3735,0.3356,0.0,0.0,0.0,0.0,0.0,0.1337,0.1104,0.097,0.0,0.102,0.1095,0.1201,0.1213,0.1244,0.1296,0.1296,0.1312,0.1303,0.1313,0.1343,0.1391,0.1401,0.1416,0.1391,0.1391,0.1211,0.0943,0.0865,0.0635,0.0315,0.0279,0.0142,-0.0286,-0.2217,-0.3052,-0.3271,-0.3621,-0.4225,-0.4826,-0.4826,-0.5281,-0.5887,-0.5887,-0.5887,-0.5887,-0.5887,-0.5887,-0.5887,-0.5887,-0.5887,-0.5887,-0.5887,-0.5989,-0.6139,-0.6139,-0.6287,-0.6387,-0.6387,-0.6387,-0.6387,-0.6387,-0.6239,-0.6189,-0.6387,-0.6387,-0.6387,-0.6387,-0.6387,-0.6387,-0.6387,-0.6387,-0.6387,-0.6387,-0.6387,-0.7033,-0.8467,-0.9899,-1.0984,-1.1717,-1.2414,-1.2813,-1.2813,-1.2813,-1.2813,-1.2813,-1.2813,-1.2813,-1.2813,-1.2813,-1.2861,0.6388,0.6398,0.0,0.6586,0.6678,0.0,0.6993,0.0,0.0,0.0,0.0,0.0,0.0,0.58,0.5771,0.5467,0.5365,0.5183,0.0,0.4613,0.4321,0.3898,0.3048,0.2443,0.0,0.0,0.1419,0.13,0.1156,0.106,0.0,0.0,0.1084,0.1201,0.1203,0.1233,0.1295,0.1296,0.1312,0.1303,0.1313,0.1343,0.1391,0.1401,0.1416,0.1391,0.1391,0.1391,0.1392,0.1457,0.1453,0.1396,0.1455,0.1383,0.1003,-0.0875,-0.1931,-0.2416,-0.2416,-0.2868,-0.3422,-0.3422,-0.4175,-0.5031,-0.5031,-0.5284,-0.5577,-0.5594,-0.5558,-0.5577,-0.5594,-0.556,-0.5586,-0.5586,-0.5737,-0.5839,-0.5839,-0.5989,-0.6137,-0.6239,-0.6239,-0.6287,-0.6387,-0.6239,-0.6189,-0.6239,-0.6239,-0.6239,-0.6239,-0.6337,-0.6387,-0.6387,-0.6387,-0.6387,-0.6387,-0.6734,-0.7279,-0.7971,-0.9011,-1.0096,-1.117,-1.1868,-1.245,-1.2883,-1.2856,-1.2851,-1.2932,-1.2851,-1.2813,-1.2813,-1.2813,-1.2813]}]]